[[{"header":{"parameterUnit":"m.s-1","parameterCategory":1,"la1":30.6,"la2":28.766,"lo1":-90.7593,"lo2":-88.6598,"dy":0.0162,"dx":0.0183,"nx":116,"ny":114,"refTime":"2023-07-19T12:00:00:Z","depth":0,"parameterNumber":2,"parameterNumberName":"U-component_of_WINDS"},"data":[0.0,0.0,0.0,0.0,0.0,0.0,0.0,0.0,0.0,0.0,0.0,0.0,0.0,0.0,0.0,0.0,0.0,0.0,0.0,0.0,0.0,0.0,0.0,0.0,0.0,0.0,0.0,0.0,0.0,0.0,0.0,0.0,0.0,0.0,0.0,0.0,0.0,0.0,0.0,0.0,0.0,0.0,0.0,0.0,0.0,0.0,0.0,0.0,0.0,0.0,0.0,0.0,0.0,0.0,0.0,0.0,0.0,0.0,0.0,0.0,0.0,0.0,0.0,0.0,0.0,0.0,0.0,0.0,0.0,0.0,0.0,0.0,0.0,0.0,0.0,0.0,0.0,0.0,0.0,0.0,0.0,0.0,0.0,0.0,0.0,0.0,0.0,0.0,0.0,0.0,0.0,0.0,0.0,0.0,0.0,0.0,0.0,0.0,0.0,0.0,0.0,0.0,0.0,0.0,0.0,0.0,0.0,0.0,0.0,0.0,0.0,0.0,0.0,0.0,0.0,0.0,0.0,0.0,0.0,0.0,0.0,0.0,0.0,0.0,0.0,0.0,0.0,0.0,0.0,0.0,0.0,0.0,0.0,0.0,0.0,0.0,0.0,0.0,0.0,0.0,0.0,0.0,0.0,0.0,0.0,0.0,0.0,0.0,0.0,0.0,0.0,0.0,0.0,0.0,0.0,0.0,0.0,0.0,0.0,0.0,0.0,0.0,0.0,0.0,0.0,0.0,0.0,0.0,0.0,0.0,0.0,0.0,0.0,0.0,0.0,0.0,0.0,0.0,0.0,0.0,0.0,0.0,0.0,0.0,0.0,0.0,0.0,0.0,0.0,0.0,0.0,0.0,0.0,0.0,0.0,0.0,0.0,0.0,0.0,0.0,0.0,0.0,0.0,0.0,0.0,0.0,0.0,0.0,0.0,0.0,0.0,0.0,0.0,0.0,0.0,0.0,0.0,0.0,0.0,0.0,0.0,0.0,0.0,0.0,0.0,0.0,0.0,0.0,0.0,0.0,0.0,0.0,0.0,0.0,0.0,0.0,0.0,0.0,0.0,0.0,0.0,0.0,0.0,0.0,0.0,0.0,0.0,0.0,0.0,0.0,0.0,0.0,0.0,0.0,0.0,0.0,0.0,0.0,0.0,0.0,0.0,0.0,0.0,0.0,0.0,0.0,0.0,0.0,0.0,0.0,0.0,0.0,0.0,0.0,0.0,0.0,0.0,0.0,0.0,0.0,0.0,0.0,0.0,0.0,0.0,0.0,0.0,0.0,0.0,0.0,0.0,0.0,0.0,0.0,0.0,0.0,0.0,0.0,0.0,0.0,0.0,0.0,0.0,0.0,0.0,0.0,0.0,0.0,0.0,0.0,0.0,0.0,0.0,0.0,0.0,0.0,0.0,0.0,0.0,0.0,0.0,0.0,0.0,0.0,0.0,0.0,0.0,0.0,0.0,0.0,0.0,0.0,0.0,0.0,0.0,0.0,0.0,0.0,0.0,0.0,0.0,0.0,0.0,0.0,0.0,0.0,0.0,0.0,0.0,0.0,0.0,0.0,0.0,0.0,0.0,0.0,0.0,0.0,0.0,0.0,0.0,0.0,0.0,0.0,0.0,0.0,0.0,0.0,0.0,0.0,0.0,0.0,0.0,0.0,0.0,0.0,0.0,0.0,0.0,0.0,0.0,0.0,0.0,0.0,0.0,0.0,0.0,0.0,0.0,0.0,0.0,0.0,0.0,0.0,0.0,0.0,0.0,0.0,0.0,0.0,0.0,0.0,0.0,0.0,0.0,0.0,0.0,0.0,0.0,0.0,0.0,0.0,0.0,0.0,0.0,0.0,0.0,0.0,0.0,0.0,0.0,0.0,0.0,0.0,0.0,0.0,0.0,0.0,0.0,0.0,0.0,0.0,0.0,0.0,0.0,0.0,0.0,0.0,0.0,0.0,0.0,0.0,0.0,0.0,0.0,0.0,0.0,0.0,0.0,0.0,0.0,0.0,0.0,0.0,0.0,0.0,0.0,0.0,0.0,0.0,0.0,0.0,0.0,0.0,0.0,0.0,0.0,0.0,0.0,0.0,0.0,0.0,0.0,0.0,0.0,0.0,0.0,0.0,0.0,0.0,0.0,0.0,0.0,0.0,0.0,0.0,0.0,0.0,0.0,0.0,0.0,0.0,0.0,0.0,0.0,0.0,0.0,0.0,0.0,0.0,0.0,0.0,0.0,0.0,0.0,0.0,0.0,0.0,0.0,0.0,0.0,0.0,0.0,0.0,0.0,0.0,0.0,0.0,0.0,0.0,0.0,0.0,0.0,0.0,0.0,0.0,0.0,0.0,0.0,0.0,0.0,0.0,0.0,0.0,0.0,0.0,0.0,0.0,0.0,0.0,0.0,0.0,0.0,0.0,0.0,0.0,0.0,0.0,0.0,0.0,0.0,0.0,0.0,0.0,0.0,0.0,0.0,0.0,0.0,0.0,0.0,0.0,0.0,0.0,0.0,0.0,0.0,0.0,0.0,0.0,0.0,0.0,0.0,0.0,0.0,0.0,0.0,0.0,0.0,0.0,0.0,0.0,0.0,0.0,0.0,0.0,0.0,0.0,0.0,0.0,0.0,0.0,0.0,0.0,0.0,0.0,0.0,0.0,0.0,0.0,0.0,0.0,0.0,0.0,0.0,0.0,0.0,0.0,0.0,0.0,0.0,0.0,0.0,0.0,0.0,0.0,0.0,0.0,0.0,0.0,0.0,0.0,0.0,0.0,0.0,0.0,0.0,0.0,0.0,0.0,0.0,0.0,0.0,0.0,0.0,0.0,0.0,0.0,0.0,0.0,0.0,0.0,0.0,0.0,0.0,0.0,0.0,0.0,0.0,0.0,0.0,0.0,0.0,0.0,0.0,0.0,0.0,0.0,0.0,0.0,0.0,0.0,0.0,0.0,0.0,0.0,0.0,0.0,0.0,0.0,0.0,0.0,0.0,0.0,0.0,0.0,0.0,0.0,0.0,0.0,0.0,0.0,0.0,0.0,0.0,0.0,0.0,0.0,0.0,0.0,0.0,0.0,0.0,0.0,0.0,0.0,0.0,0.0,0.0,0.0,0.0,0.0,0.0,0.0,0.0,0.0,0.0,0.0,0.0,0.0,0.0,0.0,0.0,0.0,0.0,0.0,0.0,0.0,0.0,0.0,0.0,0.0,0.0,0.0,0.0,0.0,0.0,0.0,0.0,0.0,0.0,0.0,0.0,0.0,0.0,0.0,0.0,0.0,0.0,0.0,0.0,0.0,0.0,0.0,0.0,0.0,0.0,0.0,0.0,0.0,0.0,0.0,0.0,0.0,0.0,0.0,0.0,0.0,0.0,0.0,0.0,0.0,0.0,0.0,0.0,0.0,0.0,0.0,0.0,0.0,0.0,0.0,0.0,0.0,0.0,0.0,0.0,0.0,0.0,0.0,0.0,0.0,0.0,0.0,0.0,0.0,0.0,0.0,0.0,0.0,0.0,0.0,0.0,0.0,0.0,0.0,0.0,0.0,0.0,0.0,0.0,0.0,0.0,0.0,0.0,0.0,0.0,0.0,0.0,0.0,0.0,0.0,0.0,0.0,0.0,0.0,0.0,0.0,0.0,0.0,0.0,0.0,0.0,0.0,0.0,0.0,0.0,0.0,0.0,0.0,0.0,0.0,0.0,0.0,0.0,0.0,0.0,0.0,0.0,0.0,0.0,0.0,0.0,0.0,0.0,0.0,0.0,0.0,0.0,0.0,0.0,0.0,0.0,0.0,0.0,0.0,0.0,0.0,0.0,0.0,0.0,0.0,0.0,0.0,0.0,0.0,0.0,0.0,0.0,0.0,0.0,0.0,0.0,0.0,0.0,0.0,0.0,0.0,0.0,0.0,0.0,0.0,0.0,0.0,0.0,0.0,0.0,0.0,0.0,0.0,0.0,0.0,0.0,0.0,0.0,0.0,0.0,0.0,0.0,0.0,0.0,0.0,0.0,0.0,0.0,0.0,0.0,0.0,0.0,0.0,0.0,0.0,0.0,0.0,0.0,0.0,0.0,0.0,0.0,0.0,0.0,0.0,0.0,0.0,0.0,0.0,0.0,0.0,0.0,0.0,0.0,0.0,0.0,0.0,0.0,0.0,0.0,0.0,0.0,0.0,0.0,0.0,0.0,0.0,0.0,0.0,0.0,0.0,0.0,0.0,0.0,0.0,0.0,0.0,0.0,0.0,0.0,0.0,0.0,0.0,0.0,0.0,0.0,0.0,0.0,0.0,0.0,0.0,0.0,0.0,0.0,0.0,0.0,0.0,0.0,0.0,0.0,0.0,0.0,0.0,0.0,0.0,0.0,0.0,0.0,0.0,0.0,0.0,0.0,0.0,0.0,0.0,0.0,0.0,0.0,0.0,0.0,0.0,0.0,0.0,0.0,0.0,0.0,0.0,0.0,0.0,0.0,0.0,0.0,0.0,0.0,0.0,0.0,0.0,0.0,0.0,0.0,0.0,0.0,0.0,0.0,0.0,0.0,0.0,0.0,0.0,0.0,0.0,0.0,0.0,0.0,0.0,0.0,0.0,0.0,0.0,0.0,0.0,0.0,0.0,0.0,0.0,0.0,0.0,0.0,0.0,0.0,0.0,0.0,0.0,0.0,0.0,0.0,0.0,0.0,0.0,0.0,0.0,0.0,0.0,0.0,0.0,0.0,0.0,0.0,0.0,0.0,0.0,0.0,0.0,0.0,0.0,0.0,0.0,0.0,0.0,0.0,0.0,0.0,0.0,0.0,0.0,0.0,0.0,0.0,0.0,0.0,0.0,0.0,0.0,0.0,0.0,0.0,0.0,0.0,0.0,0.0,0.0,0.0,0.0,0.0,0.0,0.0,0.0,0.0,0.0,0.0,0.0,0.0,0.0,0.0,0.0,0.0,0.0,0.0,0.0,0.0,0.0,0.0,0.0,0.0,0.0,0.0,0.0,0.0,0.0,0.0,0.0,0.0,0.0,0.0,0.0,0.0,0.0,0.0,0.0,0.0,0.0,0.0,0.0,0.0,0.0,0.0,0.0,0.0,0.0,0.0,0.0,0.0,0.0,0.0,0.0,0.0,0.0,0.0,0.0,0.0,0.0,0.0,0.0,0.0,0.0,0.0,0.0,0.0,0.0,0.0,0.0,0.0,0.0,0.0,0.0,0.0,0.0,0.0,0.0,0.0,0.0,0.0,0.0,0.0,0.0,0.0,0.0,0.0,0.0,0.0,0.0,0.0,0.0,0.0,0.0,0.0,0.0,0.0,0.0,0.0,0.0,0.0,0.0,0.0,0.0,0.0,0.0,0.0,0.0,0.0,0.0,0.0,0.0,0.0,0.0,0.0,0.0,0.0,0.0,0.0,0.0,0.0,0.0,0.0,0.0,0.0,0.0,0.0,0.0,0.0,0.0,0.0,0.0,0.0,0.0,0.0,0.0,0.0,0.0,0.0,0.0,0.0,0.0,0.0,0.0,0.0,0.0,0.0,0.0,0.0,0.0,0.0,0.0,0.0,0.0,0.0,0.0,0.0,0.0,0.0,0.0,0.0,0.0,0.0,0.0,0.0,0.0,0.0,0.0,0.0,0.0,0.0,0.0,0.0,0.0,0.0,0.0,0.0,0.0,0.0,0.0,0.0,0.0,0.0,0.0,0.0,0.0,0.0,0.0,0.0,0.0,0.0,0.0,0.0,0.0,0.0,0.0,0.0,0.0,0.0,0.0,0.0,0.0,0.0,0.0,0.0,0.0,0.0,0.0,0.0,0.0,0.0,0.0,0.0,0.0,0.0,0.0,0.0,0.0,0.0,0.0,0.0,0.0,0.0,0.0,0.0,0.0,0.0,0.0,0.0,0.0,0.0,0.0,0.0,0.0,0.0,0.0,0.0,0.0,0.0,0.0,0.0,0.0,0.0,0.0,0.0,0.0,0.0,0.0,0.0,0.0,0.0,0.0,0.0,0.0,0.0,0.0,0.0,0.0,0.0,0.0,0.0,0.0,0.0,0.0,0.0,0.0,0.0,0.0,0.0,0.0,0.0,0.0,0.0,0.0,0.0,0.0,0.0,0.0,0.0,0.0,0.0,0.0,-5.3162,-5.3501,0.0,0.0,0.0,0.0,0.0,0.0,0.0,0.0,0.0,0.0,0.0,0.0,0.0,0.0,0.0,0.0,0.0,0.0,0.0,0.0,0.0,0.0,0.0,0.0,0.0,0.0,0.0,0.0,0.0,0.0,0.0,0.0,0.0,0.0,0.0,0.0,0.0,0.0,0.0,0.0,0.0,0.0,0.0,0.0,0.0,0.0,0.0,0.0,0.0,0.0,0.0,0.0,0.0,0.0,0.0,0.0,0.0,0.0,0.0,0.0,0.0,0.0,0.0,0.0,0.0,0.0,0.0,0.0,0.0,0.0,0.0,0.0,0.0,0.0,0.0,0.0,0.0,0.0,0.0,0.0,0.0,0.0,0.0,0.0,0.0,0.0,0.0,0.0,0.0,0.0,0.0,0.0,0.0,0.0,0.0,0.0,0.0,0.0,0.0,0.0,0.0,0.0,0.0,0.0,0.0,0.0,0.0,0.0,0.0,0.0,0.0,0.0,0.0,0.0,-5.3923,-5.3501,0.0,0.0,0.0,0.0,0.0,0.0,0.0,0.0,0.0,0.0,0.0,0.0,0.0,0.0,0.0,0.0,0.0,0.0,0.0,0.0,0.0,0.0,0.0,0.0,0.0,0.0,0.0,0.0,0.0,0.0,0.0,0.0,0.0,0.0,0.0,0.0,0.0,0.0,0.0,0.0,0.0,0.0,0.0,0.0,0.0,0.0,0.0,0.0,0.0,0.0,0.0,0.0,0.0,0.0,0.0,0.0,0.0,0.0,0.0,0.0,0.0,0.0,0.0,0.0,0.0,0.0,0.0,0.0,0.0,0.0,0.0,0.0,0.0,0.0,0.0,0.0,0.0,0.0,0.0,0.0,0.0,0.0,0.0,0.0,0.0,0.0,0.0,0.0,0.0,0.0,0.0,0.0,0.0,0.0,0.0,0.0,0.0,0.0,0.0,0.0,0.0,0.0,0.0,0.0,0.0,0.0,0.0,0.0,-5.5733,-5.641,-5.7019,-5.7611,-5.7881,-5.7746,-5.5192,-5.4076,-5.4076,-5.394,0.0,0.0,0.0,0.0,0.0,0.0,0.0,0.0,0.0,0.0,0.0,0.0,0.0,0.0,0.0,0.0,0.0,0.0,0.0,0.0,0.0,0.0,0.0,0.0,0.0,0.0,0.0,0.0,0.0,0.0,0.0,0.0,0.0,0.0,0.0,0.0,0.0,0.0,0.0,0.0,0.0,0.0,0.0,0.0,0.0,0.0,0.0,0.0,0.0,0.0,0.0,0.0,0.0,0.0,0.0,0.0,0.0,0.0,0.0,0.0,0.0,0.0,0.0,0.0,0.0,0.0,0.0,0.0,0.0,0.0,0.0,0.0,0.0,0.0,0.0,0.0,0.0,0.0,0.0,0.0,0.0,0.0,0.0,0.0,0.0,0.0,-4.554,-4.7255,0.0,0.0,0.0,0.0,0.0,0.0,0.0,0.0,0.0,0.0,0.0,0.0,0.0,-5.3822,-5.5412,-5.5953,-5.6308,-5.6511,-5.7256,-5.7645,-5.7746,-5.7848,-5.7881,-5.7831,-5.6816,0.0,-5.6325,-5.5683,0.0,0.0,0.0,0.0,0.0,0.0,0.0,0.0,0.0,0.0,0.0,0.0,0.0,0.0,0.0,0.0,0.0,0.0,0.0,0.0,0.0,0.0,0.0,0.0,0.0,0.0,0.0,0.0,0.0,0.0,0.0,0.0,0.0,0.0,0.0,0.0,0.0,0.0,0.0,0.0,0.0,0.0,0.0,0.0,0.0,0.0,0.0,0.0,0.0,0.0,0.0,0.0,0.0,0.0,0.0,0.0,0.0,0.0,0.0,0.0,0.0,0.0,0.0,0.0,0.0,0.0,0.0,0.0,0.0,0.0,0.0,0.0,0.0,0.0,0.0,0.0,0.0,0.0,0.0,0.0,0.0,0.0,0.0,0.0,0.0,-4.513,-4.7483,-4.7848,-4.8646,-4.8984,0.0,0.0,0.0,0.0,0.0,0.0,0.0,0.0,0.0,-5.416,-5.4566,-5.5446,-5.6917,-5.7256,-5.7628,-5.8068,-5.8778,-5.937,-5.981,-6.0233,-6.0419,-6.0402,-6.008,-5.9708,-5.915,-5.6714,-5.5023,-5.3957,0.0,0.0,0.0,0.0,-5.1558,-5.0477,0.0,0.0,0.0,0.0,0.0,0.0,0.0,0.0,0.0,0.0,0.0,0.0,0.0,0.0,0.0,0.0,0.0,0.0,0.0,0.0,0.0,0.0,0.0,0.0,0.0,0.0,0.0,0.0,0.0,0.0,0.0,0.0,0.0,0.0,0.0,0.0,0.0,0.0,0.0,0.0,0.0,0.0,0.0,0.0,0.0,0.0,0.0,0.0,0.0,0.0,0.0,0.0,0.0,0.0,0.0,0.0,0.0,0.0,0.0,0.0,0.0,0.0,0.0,0.0,0.0,0.0,0.0,0.0,0.0,0.0,0.0,0.0,0.0,0.0,0.0,0.0,0.0,-4.7029,-4.9258,-4.8821,-5.0067,-5.0676,0.0,0.0,0.0,0.0,0.0,0.0,-5.3112,-5.3348,-5.4329,-5.6207,-5.6461,-5.7171,-5.844,-5.866,-5.9049,-5.9607,-6.0334,-6.0994,-6.1603,-6.2144,-6.2381,-6.2381,-6.2195,-6.1806,-6.1078,-5.8068,-5.6089,-5.4871,-5.4499,-5.3974,-5.3433,-5.3247,-5.2727,-5.2023,0.0,0.0,0.0,0.0,0.0,0.0,0.0,0.0,0.0,0.0,0.0,0.0,0.0,0.0,0.0,0.0,0.0,0.0,0.0,0.0,0.0,0.0,0.0,0.0,0.0,0.0,0.0,0.0,0.0,0.0,0.0,0.0,0.0,0.0,0.0,0.0,0.0,0.0,0.0,0.0,0.0,0.0,0.0,0.0,0.0,0.0,0.0,0.0,0.0,0.0,0.0,0.0,0.0,0.0,0.0,0.0,0.0,0.0,0.0,0.0,0.0,0.0,0.0,0.0,0.0,0.0,0.0,0.0,0.0,0.0,0.0,0.0,0.0,0.0,0.0,0.0,0.0,0.0,0.0,-5.1065,-5.2401,0.0,0.0,0.0,0.0,-5.3264,-5.3974,-5.4702,-5.5497,-5.619,-5.6951,-5.7746,-5.8473,-5.9218,-5.9979,-6.0757,-6.1146,-6.1197,-6.1924,-6.2296,-6.233,-6.2364,-6.2381,-6.2347,-6.1653,-6.1332,-6.1231,-6.0266,-5.9421,-5.8592,-5.7188,-5.6613,-5.6494,-5.5801,-5.4857,-5.3846,0.0,0.0,0.0,0.0,0.0,0.0,0.0,0.0,0.0,0.0,0.0,0.0,0.0,0.0,0.0,0.0,0.0,0.0,0.0,0.0,0.0,0.0,0.0,0.0,0.0,0.0,0.0,0.0,0.0,0.0,0.0,0.0,0.0,0.0,0.0,0.0,0.0,0.0,0.0,0.0,0.0,0.0,0.0,0.0,0.0,0.0,0.0,0.0,0.0,0.0,0.0,0.0,0.0,0.0,0.0,0.0,0.0,0.0,0.0,0.0,0.0,0.0,0.0,0.0,0.0,0.0,0.0,0.0,0.0,0.0,0.0,0.0,0.0,0.0,0.0,0.0,0.0,0.0,0.0,-5.2756,-5.4837,0.0,-5.4617,-5.4499,-5.5006,-5.6241,-5.6562,-5.7239,-5.8473,-5.8778,-5.9285,-6.0063,-6.0351,-6.0842,-6.1569,-6.1856,-6.2009,-6.2009,-6.2262,-6.2381,-6.2381,-6.2381,-6.2381,-6.2347,-6.162,-6.1569,-6.1907,-6.0622,-5.9674,-5.8913,-5.7898,-5.7222,-5.6714,-5.5987,-5.4575,-5.3096,0.0,0.0,0.0,0.0,0.0,0.0,0.0,0.0,0.0,0.0,0.0,0.0,0.0,0.0,0.0,0.0,0.0,0.0,0.0,0.0,0.0,0.0,0.0,0.0,0.0,0.0,0.0,0.0,0.0,0.0,0.0,0.0,0.0,0.0,0.0,0.0,0.0,0.0,0.0,0.0,0.0,0.0,-3.338,0.0,0.0,0.0,0.0,0.0,0.0,0.0,0.0,0.0,0.0,0.0,0.0,0.0,0.0,0.0,0.0,0.0,0.0,0.0,0.0,0.0,0.0,0.0,0.0,0.0,0.0,0.0,0.0,0.0,0.0,0.0,0.0,0.0,0.0,-5.1622,-5.4786,-5.4313,-5.663,-5.778,-5.6562,-5.69,-5.7712,-5.8947,-5.9505,-6.0317,-6.1552,-6.162,-6.1755,-6.2042,-6.2042,-6.2161,-6.2381,-6.2381,-6.2381,-6.2381,-6.2381,-6.2381,-6.2381,-6.2381,-6.2381,-6.2364,-6.1873,-6.1941,-6.2313,-6.1298,-6.0436,-5.9691,-5.8676,-5.7966,-5.7459,-5.6714,-5.5289,-5.368,0.0,0.0,0.0,0.0,0.0,0.0,0.0,0.0,0.0,0.0,0.0,0.0,0.0,0.0,0.0,0.0,0.0,0.0,0.0,0.0,0.0,0.0,0.0,0.0,0.0,0.0,0.0,0.0,0.0,0.0,0.0,0.0,0.0,0.0,0.0,0.0,0.0,0.0,0.0,0.0,0.0,0.0,-3.2464,0.0,0.0,0.0,0.0,0.0,0.0,0.0,0.0,0.0,0.0,0.0,0.0,0.0,0.0,0.0,0.0,0.0,0.0,0.0,0.0,0.0,0.0,0.0,0.0,0.0,0.0,0.0,0.0,0.0,0.0,0.0,0.0,0.0,-4.8655,-5.2836,-5.5801,-5.5852,-5.778,-5.8829,-5.8101,-5.9353,-6.0537,-6.1349,-6.2753,-6.3886,-6.4597,-6.4613,-6.4275,-6.3531,-6.3497,-6.3125,-6.2398,-6.2381,-6.2381,-6.2381,-6.2381,-6.2381,-6.2381,-6.2364,-6.2364,-6.2347,-6.2296,-6.2296,-6.2313,-6.2262,-6.1839,-6.1078,-5.9624,-5.9032,-5.893,-5.8152,-5.708,-5.5693,0.0,0.0,0.0,0.0,0.0,0.0,0.0,0.0,0.0,0.0,0.0,0.0,0.0,0.0,0.0,0.0,0.0,0.0,0.0,0.0,0.0,0.0,0.0,0.0,0.0,0.0,0.0,0.0,0.0,0.0,0.0,0.0,0.0,0.0,0.0,0.0,0.0,0.0,0.0,0.0,0.0,0.0,-3.1462,0.0,0.0,0.0,0.0,0.0,0.0,0.0,0.0,0.0,0.0,0.0,0.0,0.0,0.0,0.0,0.0,0.0,0.0,0.0,0.0,0.0,0.0,0.0,0.0,0.0,0.0,0.0,0.0,0.0,0.0,0.0,-4.5656,-4.8224,-5.051,-5.4566,-5.7679,-5.8761,-6.0419,-6.1383,-6.1163,-6.2009,-6.2888,-6.3649,-6.4563,-6.5172,-6.5375,-6.4884,-6.4275,-6.3531,-6.299,-6.2601,-6.2381,-6.2381,-6.2381,-6.2381,-6.2381,-6.2381,-6.2364,-6.1839,-6.1603,-6.1535,-6.0419,-6.025,-6.0655,-5.9573,-5.9336,-5.9658,-5.9759,-5.9488,-5.8863,-5.7577,-5.5605,-5.3182,0.0,0.0,0.0,0.0,0.0,0.0,0.0,0.0,0.0,0.0,0.0,0.0,0.0,0.0,0.0,0.0,0.0,0.0,0.0,0.0,0.0,0.0,0.0,0.0,0.0,0.0,0.0,0.0,0.0,0.0,0.0,0.0,0.0,0.0,0.0,0.0,0.0,0.0,0.0,0.0,0.0,0.0,-3.0558,-2.9998,-2.9534,-2.9028,-2.8347,-2.7844,-2.736,-2.6719,0.0,0.0,0.0,0.0,0.0,0.0,0.0,0.0,0.0,0.0,0.0,0.0,0.0,0.0,0.0,0.0,0.0,0.0,0.0,0.0,0.0,0.0,0.0,0.0,-4.6998,-4.9608,-5.2231,-5.5421,-5.7983,-5.9471,-6.0994,-6.1941,-6.1941,-6.2905,-6.37,-6.4123,-6.4816,-6.5239,-6.5239,-6.4833,-6.4123,-6.3074,-6.2618,-6.2076,-6.1434,-6.1434,-6.1434,-6.1434,-6.1434,-6.1434,-6.1417,-6.0994,-6.0808,-6.0757,-5.986,-5.9708,-6.003,-5.9167,-5.8896,0.0,0.0,0.0,0.0,0.0,-5.3754,-5.1758,0.0,0.0,0.0,0.0,0.0,0.0,0.0,0.0,0.0,0.0,0.0,0.0,0.0,0.0,0.0,0.0,0.0,0.0,0.0,0.0,0.0,0.0,0.0,0.0,0.0,0.0,0.0,0.0,0.0,0.0,0.0,0.0,0.0,0.0,0.0,0.0,0.0,0.0,0.0,0.0,0.0,0.0,-2.9704,-2.9599,-2.8937,-2.8084,-2.7844,-2.7116,-2.6307,-2.6141,0.0,0.0,0.0,0.0,0.0,0.0,0.0,0.0,0.0,0.0,0.0,0.0,0.0,0.0,0.0,0.0,0.0,0.0,0.0,0.0,0.0,0.0,0.0,0.0,-4.8488,-5.1286,-5.3824,-5.5554,-5.7171,-5.8812,-6.0283,-6.1197,-6.1298,-6.2567,-6.3429,-6.3514,-6.4123,-6.4478,-6.4478,0.0,0.0,0.0,0.0,-6.1467,-6.0114,-6.0097,-6.0097,-6.0097,-6.0013,-6.003,-6.0097,-5.9928,-5.9894,-5.9979,-5.9894,-5.9844,-5.9844,-5.9844,-5.937,-5.8524,-5.7374,-5.6816,-5.6364,-5.3836,-5.2218,-5.1073,0.0,0.0,0.0,0.0,0.0,0.0,0.0,0.0,0.0,0.0,0.0,0.0,0.0,0.0,0.0,0.0,0.0,0.0,0.0,0.0,0.0,0.0,0.0,0.0,0.0,0.0,0.0,0.0,0.0,0.0,0.0,0.0,0.0,0.0,0.0,0.0,0.0,0.0,0.0,0.0,0.0,0.0,-2.9063,-2.8597,-2.8267,-2.7844,-2.6108,-2.5284,-2.4967,-2.4059,-2.4382,-2.4957,-2.4059,0.0,0.0,0.0,0.0,0.0,0.0,0.0,0.0,0.0,0.0,0.0,0.0,0.0,0.0,0.0,0.0,0.0,0.0,0.0,0.0,-4.665,-4.8509,-5.0781,-5.4028,-5.4766,-5.6004,-5.8693,-5.9793,-6.0588,-6.1247,-6.2093,-6.2854,-6.348,-6.3649,-6.3734,-6.3734,-6.2584,-6.1806,-6.1518,-6.0875,-6.0402,-6.0097,-6.0097,-6.0097,-6.0097,0.0,0.0,-6.0063,-5.8863,-5.8643,-5.9184,-5.8575,-5.8321,-5.8321,-5.8321,-5.7543,-5.6444,-5.7323,-5.6968,-5.5832,-5.5291,-5.3198,-5.0527,0.0,0.0,0.0,0.0,0.0,0.0,0.0,0.0,0.0,0.0,0.0,0.0,0.0,0.0,0.0,0.0,0.0,0.0,0.0,0.0,0.0,0.0,0.0,0.0,0.0,0.0,0.0,0.0,0.0,0.0,0.0,0.0,0.0,0.0,0.0,0.0,0.0,0.0,0.0,0.0,0.0,0.0,-2.7396,-2.7639,-2.7375,-2.668,-2.5282,-2.4457,-2.3877,-2.3299,-2.3464,-2.3887,-2.3299,-2.3887,-2.4893,0.0,0.0,0.0,0.0,0.0,0.0,0.0,0.0,0.0,0.0,0.0,0.0,0.0,0.0,-4.1085,0.0,0.0,-4.4795,-4.7872,-4.9224,-5.0879,-5.3633,-5.4363,-5.5412,-5.7645,-5.8541,-5.9302,-6.008,-6.0825,-6.14,-6.1772,-6.1467,-6.1417,-6.1789,-6.0402,-5.9776,-6.0148,-5.9049,-5.8457,-5.8457,-5.8084,-5.8084,-5.844,-5.7712,-5.7932,-5.8947,-5.7848,-5.7746,-5.844,-5.8051,-5.7881,-5.7881,-5.7881,-5.7239,-5.6325,-5.7053,-5.6224,-5.4531,-5.3975,-5.2327,-5.032,0.0,0.0,0.0,0.0,0.0,0.0,0.0,0.0,0.0,0.0,0.0,0.0,0.0,0.0,0.0,0.0,0.0,0.0,0.0,0.0,0.0,0.0,0.0,0.0,0.0,0.0,0.0,0.0,0.0,0.0,0.0,0.0,0.0,0.0,0.0,0.0,0.0,0.0,0.0,0.0,0.0,0.0,-2.5462,-2.6177,-2.5882,-2.515,-2.4577,-2.3695,-2.292,-2.3086,-2.3086,-2.3027,-2.3115,-2.3135,-2.3299,-2.4457,-2.4787,0.0,0.0,0.0,0.0,0.0,0.0,0.0,0.0,0.0,-3.6178,-3.7723,-3.9955,-4.1923,-4.312,-4.3973,-4.5555,-4.8875,-4.9933,-5.1096,-5.3195,-5.4008,-5.4871,-5.6207,-5.7137,-5.7915,-5.8524,-5.937,-5.9894,-5.9894,-5.9201,-5.9116,-5.986,-5.8338,-5.7814,-5.8558,-5.7289,-5.6596,-5.6596,-5.6004,-5.6089,-5.6799,-5.5919,-5.6258,-5.7645,-5.6765,-5.685,-5.7679,-5.7679,-5.7679,-5.7679,-5.7526,-5.712,-5.6579,-5.6427,-5.5192,-5.3433,-5.2707,-5.1582,-5.0242,0.0,0.0,0.0,0.0,0.0,0.0,0.0,0.0,0.0,0.0,0.0,0.0,0.0,0.0,0.0,0.0,0.0,0.0,0.0,0.0,0.0,0.0,0.0,0.0,0.0,0.0,0.0,0.0,0.0,0.0,0.0,0.0,0.0,0.0,0.0,0.0,0.0,0.0,0.0,0.0,0.0,0.0,-2.3734,-2.3372,-2.3445,-2.3629,-2.2982,-2.2428,-2.2139,-2.2891,-2.2891,-2.2646,-2.3018,-2.3135,-2.3299,-2.4457,0.0,-2.5284,-2.751,-2.8858,-2.9849,-3.0972,-3.0859,-3.1596,0.0,0.0,-3.7211,-4.0253,-4.162,-4.2476,-4.3195,-4.4347,-4.6087,-4.8955,-4.9933,-5.1096,-5.3195,-5.3568,-5.3923,-5.4735,-5.6072,-5.6968,-5.7036,-5.8321,-5.9133,-5.9133,-5.844,-5.8338,-5.9099,-5.712,-5.6292,-5.7019,-5.6258,-5.5835,-5.5835,-5.575,-5.6089,-5.6782,-5.5378,-5.5497,-5.6884,-5.548,-5.5598,-5.6917,-5.6917,-5.6917,-5.6867,-5.6224,-5.5919,-5.5784,-5.5091,-5.4296,-5.3568,-5.4074,-5.2643,-5.0397,0.0,0.0,0.0,0.0,0.0,0.0,0.0,0.0,0.0,0.0,0.0,0.0,0.0,0.0,0.0,0.0,0.0,0.0,0.0,0.0,0.0,0.0,0.0,0.0,0.0,0.0,0.0,0.0,0.0,0.0,0.0,0.0,0.0,0.0,0.0,0.0,0.0,0.0,0.0,0.0,0.0,0.0,-2.2574,-2.24,-2.2072,-2.1799,-2.206,-2.2031,0.0,0.0,-2.2461,-2.2539,-2.2715,-2.2939,-2.3299,-2.4457,-2.4787,0.0,-2.751,-2.8937,-2.998,-3.0746,-3.0783,-3.1385,-3.4513,-3.6113,-3.7667,-4.0028,-4.1774,-4.3135,-4.3778,-4.4661,-4.6179,0.0,-4.9933,-5.1096,-5.3195,-5.3095,-5.2926,-5.3213,-5.4228,-5.5226,-5.6089,-5.6731,-5.7103,-5.7103,-5.6393,-5.6292,-5.7053,-5.5395,-5.4955,-5.6139,-5.504,-5.4634,-5.5057,-5.4634,-5.4803,-5.5513,-5.4465,-5.4735,-5.6139,-5.5074,-5.5175,-5.6173,-5.6173,-5.6173,-5.6156,-5.5852,-5.5463,-5.5023,-5.4718,-5.4143,-5.3551,-5.3856,-5.2824,-5.1155,0.0,0.0,0.0,0.0,0.0,0.0,0.0,0.0,0.0,0.0,0.0,0.0,0.0,0.0,0.0,0.0,0.0,0.0,0.0,0.0,0.0,0.0,0.0,0.0,0.0,0.0,0.0,0.0,0.0,0.0,0.0,0.0,0.0,0.0,0.0,0.0,0.0,0.0,0.0,0.0,0.0,0.0,-2.1593,-2.1593,-2.1074,-2.0498,-2.1387,-2.1631,0.0,0.0,-2.2012,-2.2178,-2.2295,-2.2549,-2.2975,-2.391,-2.4693,-2.5703,-2.7591,-2.8937,-2.993,-3.0482,-3.062,-3.1309,-3.3954,-3.5855,-3.7742,-4.0025,-4.1888,-4.3329,-4.4167,-4.492,-4.6211,-4.8684,-4.9695,-5.0807,-5.264,-5.2367,-5.208,-5.2283,-5.2807,-5.3687,-5.4989,-5.548,-5.5632,-5.5429,-5.4905,-5.4921,-5.5683,-5.4313,-5.4093,-5.5361,-5.4177,-5.3754,-5.4279,-5.3771,-5.3873,-5.4583,-5.3856,-5.4177,-5.5395,-5.4837,-5.4769,-5.5124,-5.5327,-5.5412,-5.5395,-5.5192,-5.4905,-5.4566,-5.438,-5.3974,-5.3433,-5.3195,-5.24,-5.1394,0.0,0.0,0.0,0.0,0.0,0.0,0.0,0.0,0.0,0.0,0.0,0.0,0.0,0.0,0.0,0.0,0.0,0.0,0.0,0.0,0.0,0.0,0.0,0.0,0.0,0.0,0.0,0.0,0.0,0.0,0.0,0.0,0.0,0.0,0.0,0.0,0.0,0.0,0.0,0.0,0.0,0.0,-2.0644,-2.0644,-2.0379,-2.0049,-2.0937,0.0,0.0,0.0,-2.1611,-2.1348,-2.1768,-2.1914,0.0,-2.2412,-2.4378,-2.6719,-2.7763,-2.8937,-2.993,-3.0482,-3.062,-3.1637,-3.5418,-3.6411,-3.7585,-4.1507,-4.2372,-4.2791,-4.4077,-4.5057,-4.6235,-4.8057,-4.9076,-5.0052,-5.1138,-5.1268,-5.1505,-5.2215,-5.2317,-5.2655,0.0,-5.4871,-5.5412,-5.4685,-5.46,-5.4921,-5.5683,-5.4313,-5.3856,-5.46,-5.3907,-5.3518,-5.3534,-5.3518,-5.3873,-5.4583,-5.3856,-5.3907,-5.4617,-5.46,-5.4211,-5.3619,-5.4313,-5.4617,-5.4566,-5.3856,-5.3974,-5.4515,-5.3805,-5.3518,-5.3348,-5.2312,-5.132,-5.0397,0.0,0.0,0.0,0.0,0.0,0.0,0.0,0.0,0.0,0.0,0.0,0.0,0.0,0.0,0.0,0.0,0.0,0.0,0.0,0.0,0.0,0.0,0.0,0.0,0.0,0.0,0.0,0.0,0.0,0.0,0.0,0.0,0.0,0.0,0.0,0.0,0.0,0.0,0.0,0.0,0.0,0.0,-1.9367,-1.962,-1.9629,-1.9541,0.0,0.0,0.0,0.0,0.0,0.0,-2.1309,-2.165,-2.2129,-2.3266,-2.5278,-2.7261,-2.7921,-2.8937,-2.993,-3.0482,-3.062,-3.1366,-3.4421,-3.5737,-3.7141,-3.9862,-4.0756,-4.14,-4.2315,-4.3541,-4.5003,-4.6815,-4.8997,-5.075,-5.1796,-5.1944,-5.2029,-5.2266,-5.2767,0.0,0.0,0.0,0.0,-5.4596,-5.4578,-5.4699,-5.4957,-5.4056,-5.3619,-5.3856,-5.3636,-5.3501,-5.3501,-5.3501,-5.3619,-5.3873,-5.3619,-5.3636,-5.3873,-5.3873,-5.3737,-5.3518,-5.3754,-5.3873,-5.3856,-5.3602,-5.3653,-5.3856,-5.3602,-5.3501,-5.3433,-5.311,-5.1625,-4.9601,0.0,0.0,0.0,0.0,0.0,0.0,0.0,0.0,0.0,0.0,0.0,0.0,0.0,0.0,0.0,0.0,0.0,0.0,0.0,0.0,0.0,0.0,0.0,0.0,0.0,0.0,0.0,0.0,0.0,0.0,0.0,0.0,0.0,0.0,0.0,0.0,0.0,0.0,0.0,0.0,0.0,0.0,-1.847,-1.8732,-1.8889,0.0,0.0,0.0,0.0,0.0,0.0,-2.041,-2.0859,-2.1299,-2.1964,-2.3504,-2.5347,-2.7038,-2.7873,-2.8937,-2.988,-3.0231,-3.0319,-3.0904,-3.3073,-3.4554,-3.6009,-3.8106,-3.9364,-4.037,-4.1117,-4.2542,-4.401,-4.5455,-4.7522,-4.9508,-5.0933,-5.1116,-5.1532,-5.2618,-5.3415,-5.4044,0.0,0.0,0.0,-5.5059,-5.4982,-5.4982,-5.4982,-5.4544,-5.4171,-5.3881,-5.3881,-5.3783,-5.3501,-5.3501,-5.3501,-5.3501,-5.3501,-5.3501,-5.3501,-5.3501,-5.3501,-5.3484,-5.3196,-5.3078,-5.3061,-5.279,-5.2689,-5.2689,-5.2689,-5.2689,-5.2605,-5.2236,-5.0796,-4.8989,0.0,0.0,0.0,0.0,0.0,0.0,0.0,0.0,0.0,0.0,0.0,0.0,0.0,0.0,0.0,0.0,0.0,0.0,0.0,0.0,0.0,0.0,0.0,0.0,0.0,0.0,0.0,0.0,0.0,0.0,0.0,0.0,0.0,0.0,0.0,0.0,0.0,0.0,0.0,0.0,0.0,0.0,-1.7775,-1.7888,0.0,0.0,0.0,0.0,0.0,0.0,0.0,-1.9973,-2.0469,-2.0908,-2.1499,-2.3008,-2.4567,-2.6154,-2.7622,-2.8858,-2.9792,-2.9792,-2.9792,-3.0214,-3.1767,-3.2915,-3.4203,-3.6459,-3.8267,-3.9725,0.0,0.0,-4.3344,-4.4212,-4.5176,-4.6633,-4.8815,-4.9198,-5.0305,0.0,0.0,0.0,0.0,0.0,0.0,-5.5928,0.0,-5.5762,-5.5762,-5.5706,-5.5379,-5.4651,-5.4589,-5.4264,-5.3501,-5.3501,-5.3501,-5.3501,-5.3501,-5.3501,-5.3501,-5.3467,-5.3467,-5.345,-5.2604,-5.2266,-5.2249,-5.1522,-5.1217,-5.1217,-5.1217,-5.1217,-5.1071,-5.0055,-4.9082,-4.8333,0.0,0.0,0.0,0.0,0.0,0.0,0.0,0.0,0.0,0.0,0.0,0.0,0.0,0.0,0.0,0.0,0.0,0.0,0.0,0.0,0.0,0.0,0.0,0.0,0.0,0.0,0.0,0.0,0.0,0.0,0.0,0.0,0.0,0.0,0.0,0.0,0.0,0.0,0.0,0.0,0.0,0.0,-1.6631,0.0,0.0,0.0,0.0,0.0,0.0,0.0,0.0,0.0,-2.0777,-2.1367,-2.1879,-2.2542,-2.4185,-2.5925,-2.6746,-2.8291,-2.9792,-2.9792,-2.9792,-3.0113,-3.1241,-3.2603,-3.3952,-3.5239,-3.6873,-3.8339,0.0,0.0,0.0,-4.4289,-4.6583,0.0,-5.0422,-5.1634,0.0,-5.4173,0.0,-5.6385,-5.6563,-5.7465,0.0,0.0,-5.6876,-5.6598,-5.6598,-5.6022,-5.5379,-5.4651,-5.4589,-5.4264,-5.3501,-5.3501,-5.3501,-5.3501,-5.3501,-5.3501,-5.3484,-5.2892,-5.2942,-5.3433,-5.208,-5.1792,-5.2249,-5.1522,-5.1217,-5.1217,-5.1217,-5.1217,-5.1071,-5.0123,-4.8828,-4.746,0.0,0.0,0.0,0.0,0.0,0.0,0.0,0.0,0.0,0.0,0.0,0.0,0.0,0.0,0.0,0.0,0.0,0.0,0.0,0.0,0.0,0.0,0.0,0.0,0.0,0.0,0.0,0.0,0.0,0.0,0.0,0.0,0.0,0.0,0.0,0.0,0.0,0.0,0.0,0.0,0.0,0.0,0.0,0.0,0.0,0.0,0.0,0.0,0.0,0.0,0.0,-2.0414,-2.1283,-2.1987,-2.2665,-2.3109,-2.4843,-2.6644,-2.7059,-2.845,-2.9792,-2.9792,-2.9792,-3.0075,-3.097,-3.2218,-3.3521,-3.4816,-3.6466,-3.7907,-3.873,-4.0473,-4.2306,0.0,0.0,0.0,-5.0888,-5.227,-5.3659,0.0,-5.6689,0.0,-5.7388,-5.8055,-5.8382,0.0,-5.7613,-5.7401,-5.7401,-5.6978,-5.6349,-5.5627,-5.5279,-5.4544,-5.3501,-5.3501,-5.3501,-5.3501,-5.3501,-5.3501,-5.3467,-5.2672,-5.2553,-5.2892,0.0,-5.0947,-5.1285,-5.0541,-5.0236,-5.0236,-5.0236,-4.9964,-4.9525,-4.901,-4.7686,-4.6161,0.0,0.0,0.0,0.0,0.0,0.0,0.0,0.0,0.0,0.0,0.0,0.0,0.0,0.0,0.0,0.0,0.0,0.0,0.0,0.0,0.0,0.0,0.0,0.0,0.0,0.0,0.0,0.0,0.0,0.0,0.0,0.0,0.0,0.0,0.0,0.0,0.0,0.0,0.0,0.0,0.0,0.0,0.0,0.0,0.0,0.0,0.0,0.0,0.0,0.0,-2.1135,-2.1377,-2.1981,-2.2941,-2.3998,-2.4413,-2.5983,-2.7693,-2.7977,-2.8937,-2.9792,-2.9792,-2.9856,-3.0216,-3.1044,-3.2092,-3.3378,-3.4866,-3.6674,-3.8133,-3.8799,-4.016,-4.1728,-4.3318,0.0,-4.7124,-5.0934,-5.2155,-5.3729,-5.6541,-5.7611,-5.8028,-5.8005,-5.8639,-5.8767,-5.8052,-5.7905,-5.7886,-5.7997,-5.7997,-5.7613,-5.6791,-5.5966,-5.4878,-5.3501,-5.3501,-5.3501,-5.3501,-5.3399,-5.3348,-5.3315,-5.2418,-5.2063,-5.208,-5.0591,-4.9999,-5.0033,-4.9306,-4.9001,-4.9001,-4.9001,-4.8513,-4.7737,-4.7523,-4.64,-4.4946,0.0,0.0,0.0,0.0,0.0,0.0,0.0,0.0,0.0,0.0,-2.0551,0.0,0.0,0.0,0.0,0.0,0.0,0.0,0.0,0.0,0.0,0.0,0.0,0.0,0.0,0.0,0.0,0.0,0.0,0.0,0.0,0.0,0.0,0.0,0.0,0.0,0.0,0.0,0.0,0.0,0.0,0.0,0.0,0.0,0.0,0.0,0.0,0.0,0.0,0.0,-2.2483,-2.2036,-2.3351,-2.483,-2.5991,-2.608,-2.699,-2.7977,-2.8072,-2.8937,-2.9792,-2.9792,-3.0343,-3.097,-3.118,-3.3059,0.0,0.0,-3.7062,-3.8745,-3.8854,-4.016,-4.1897,-4.4028,-4.5583,-4.7865,-5.1668,-5.3352,-5.4907,0.0,-5.7577,-5.8032,-5.8015,-5.8125,0.0,0.0,-5.7373,-5.7299,-5.796,-5.7997,-5.7364,-5.5948,-5.5144,-5.4391,-5.3501,-5.3501,-5.3501,-5.3501,-5.2841,-5.252,-5.2469,-5.1099,-5.0811,-5.1319,-4.983,0.0,-5.0033,-4.9306,-4.9001,-4.9001,-4.9001,-4.8923,-4.8576,-4.702,-4.6244,-4.5762,0.0,0.0,0.0,0.0,0.0,0.0,0.0,0.0,0.0,0.0,-2.2828,-2.2355,0.0,0.0,0.0,0.0,0.0,0.0,0.0,0.0,0.0,0.0,0.0,0.0,0.0,0.0,0.0,0.0,0.0,0.0,0.0,0.0,0.0,0.0,0.0,0.0,0.0,0.0,0.0,0.0,0.0,0.0,0.0,0.0,0.0,0.0,0.0,0.0,0.0,0.0,-2.3874,-2.4082,-2.506,-2.627,-2.7371,-2.7371,-2.8108,-2.8937,-2.8937,-2.9716,-3.0558,-3.0558,-3.1254,-3.1951,-3.215,0.0,0.0,0.0,-3.7552,-3.9032,-3.9437,-4.068,-4.2158,-4.3631,-4.5684,-4.8344,-5.1759,-5.3573,-5.5292,-5.7267,-5.7774,-5.7997,-5.7997,-5.7611,-5.7373,-5.7373,-5.6638,-5.6528,-5.7336,-5.6992,-5.6245,-5.5104,-5.4772,-5.4264,-5.3501,-5.3078,-5.3095,-5.3501,-5.23,-5.1944,-5.2249,-5.076,-5.0287,-5.0574,-4.9475,-4.9204,-4.9492,-4.9154,-4.9001,-4.9001,-4.9001,-4.8719,-4.8161,-4.7239,-4.633,-4.5358,0.0,0.0,0.0,0.0,0.0,0.0,0.0,-2.1523,-2.2914,-2.4043,-2.4588,-2.4755,-2.4508,-2.4,-2.3974,0.0,0.0,0.0,0.0,0.0,0.0,0.0,0.0,0.0,0.0,0.0,0.0,0.0,0.0,0.0,0.0,0.0,0.0,0.0,0.0,0.0,0.0,0.0,0.0,0.0,0.0,0.0,0.0,0.0,0.0,0.0,0.0,0.0,0.0,0.0,-2.5078,-2.5967,-2.6843,-2.7664,-2.8258,-2.8258,-2.9151,-3.0075,-3.0075,-3.0771,-3.1536,-3.1536,-3.2249,-3.2933,-3.3221,-3.4426,0.0,-3.6814,-3.8014,-3.9185,-4.0103,-4.114,-4.2168,0.0,-4.5404,-4.8146,-5.1369,-5.3218,-5.5116,-5.7474,-5.7905,0.0,-5.7997,-5.7428,0.0,-5.6822,-5.5886,-5.5684,-5.651,-5.5849,-5.5109,-5.429,-5.4336,-5.4023,-5.3247,-5.279,-5.2875,-5.3484,-5.2114,-5.1742,-5.2249,-5.076,-5.0084,-5.005,-4.9323,-4.9001,-4.9001,-4.9001,-4.9001,-4.9001,-4.9001,-4.8576,-4.7868,-4.7456,-4.6346,-4.5005,0.0,0.0,0.0,0.0,0.0,0.0,0.0,-2.1438,-2.2914,-2.4043,-2.4588,-2.5503,-2.7462,-2.7242,-2.6736,0.0,0.0,0.0,0.0,0.0,0.0,0.0,0.0,0.0,0.0,0.0,0.0,-2.5915,-2.5026,0.0,0.0,0.0,0.0,0.0,0.0,-1.9525,0.0,0.0,0.0,0.0,0.0,0.0,0.0,0.0,0.0,0.0,0.0,0.0,0.0,0.0,0.0,-2.6214,-2.8439,-2.8979,-2.8837,-2.8837,0.0,0.0,-3.1031,-3.1756,-3.2464,-3.2464,-3.3171,-3.3907,-3.3982,0.0,-3.6798,-3.7535,-3.8369,-3.9357,-4.0612,-4.0926,-4.1632,0.0,0.0,-4.6639,-5.047,-5.2316,-5.4202,-5.6638,0.0,0.0,-5.7997,-5.7923,-5.7593,-5.6859,-5.5372,-5.4858,-5.5666,-5.508,-5.432,-5.3511,-5.3568,-5.3232,-5.2418,-5.3061,-5.3433,-5.3501,-5.2621,-5.2232,-5.2249,-5.076,-5.0084,-5.005,-4.9323,-4.9001,0.0,-4.9001,-4.9001,-4.9001,-4.9001,-4.894,-4.8656,-4.6952,-4.6244,-4.5834,0.0,0.0,0.0,0.0,0.0,0.0,0.0,-2.3473,-2.4525,-2.6321,-2.6735,-2.7348,-2.8937,-2.8922,-2.8565,0.0,0.0,0.0,0.0,0.0,0.0,0.0,0.0,0.0,0.0,0.0,0.0,-2.8078,-2.7251,0.0,0.0,0.0,0.0,0.0,0.0,-2.1694,0.0,0.0,0.0,0.0,0.0,0.0,0.0,0.0,0.0,0.0,0.0,0.0,0.0,0.0,0.0,0.0,-2.8719,-2.9536,0.0,0.0,-3.0972,-3.1514,-3.1938,-3.2749,-3.3449,-3.3449,-3.4507,-3.5465,-3.5079,0.0,-3.7987,-3.79,-3.8839,-3.9897,-4.0775,-4.1223,-4.1833,0.0,0.0,0.0,-4.8243,-4.9962,-5.2068,-5.5005,-5.6069,0.0,0.0,0.0,-5.6014,-5.4748,-5.4051,-5.383,-5.4142,-5.3907,-5.3623,-5.3333,-5.3404,-5.3066,-5.23,-5.2198,-5.2131,-5.2114,-5.0896,-5.0541,-5.093,-4.9915,-4.9441,-4.9424,-4.9137,-4.9001,0.0,-4.9001,-4.9001,-4.9001,-4.9001,-4.9001,-4.8861,-4.7523,-4.6678,-4.5984,0.0,0.0,0.0,0.0,0.0,0.0,-2.4388,-2.4588,-2.5456,-2.782,-2.8096,-2.8518,-2.9702,-3.0075,-3.0037,-2.9629,0.0,0.0,0.0,0.0,0.0,0.0,0.0,0.0,0.0,0.0,0.0,-3.028,-2.9921,-2.8918,0.0,0.0,-2.6514,-2.5119,0.0,0.0,0.0,0.0,0.0,0.0,0.0,0.0,0.0,0.0,0.0,0.0,0.0,0.0,0.0,0.0,0.0,0.0,0.0,0.0,0.0,0.0,-3.1804,-3.2478,-3.2919,-3.3739,-3.4461,-3.4461,-3.5533,-3.649,0.0,0.0,-3.8517,-3.8316,-3.9194,-4.024,-4.1007,-4.1664,-4.2244,0.0,0.0,-4.4911,-4.6526,-4.7939,-4.9921,-5.2968,0.0,-5.4932,-5.5996,-5.5574,-5.4785,-5.3647,-5.3335,-5.3206,-5.3206,-5.3017,-5.2817,-5.2643,-5.249,-5.2164,-5.164,-5.1352,-5.1217,-5.12,-5.0168,-4.9932,-5.0388,-4.9661,-4.9323,-4.9306,-4.9086,-4.9001,0.0,-4.9001,-4.9001,-4.9001,-4.9001,-4.8861,-4.8497,-4.7523,-4.6609,-4.5523,0.0,0.0,0.0,0.0,0.0,0.0,0.0,-2.4209,-2.5169,-2.7773,-2.8096,-2.8518,-2.9702,-3.062,-3.1167,-3.1167,0.0,0.0,0.0,0.0,0.0,0.0,0.0,0.0,0.0,0.0,0.0,-3.2287,-3.2961,-3.2152,-2.9938,-2.9938,-2.9619,-2.8911,0.0,0.0,0.0,0.0,0.0,0.0,0.0,0.0,0.0,0.0,0.0,0.0,0.0,0.0,0.0,0.0,0.0,0.0,0.0,0.0,0.0,0.0,-3.237,-3.408,-3.4028,-3.4691,-3.5504,-3.5504,-3.6054,-3.6611,-3.6683,-3.7248,-3.8044,-3.8823,-3.9431,-4.02,-4.1523,-4.2302,-4.2864,-4.341,-4.3497,0.0,-4.5681,-4.6617,-4.8067,0.0,-5.1555,-5.2656,-5.4271,-5.4418,-5.4418,-5.4399,-5.3665,0.0,-5.3206,-5.2509,-5.1825,-5.1155,-5.0479,-5.0118,-5.0101,-5.0845,-5.1217,-5.1217,-5.12,-5.12,-5.1183,-5.0422,-5.0084,-5.0033,-4.9323,-4.9001,0.0,-4.9001,-4.9001,-4.9001,-4.9001,-4.8433,-4.7523,-4.6523,-4.5634,-4.4569,0.0,0.0,0.0,0.0,0.0,0.0,0.0,-2.6032,-2.7427,-2.9081,-2.9275,-2.9651,-3.062,-3.1044,-3.1462,-3.2105,0.0,0.0,0.0,0.0,0.0,0.0,0.0,0.0,0.0,0.0,0.0,-3.3971,-3.4171,-3.3306,-3.1504,-3.1048,-3.0418,-2.9661,-2.8926,0.0,0.0,0.0,0.0,0.0,0.0,0.0,0.0,0.0,0.0,0.0,0.0,0.0,0.0,0.0,0.0,0.0,0.0,0.0,0.0,0.0,0.0,0.0,-3.5729,-3.6424,-3.7055,-3.7055,-3.7616,-3.83,-3.8725,-3.9412,-4.01,-4.0784,-4.1051,-4.1425,-4.2248,-4.2577,-4.2864,-4.341,-4.3497,0.0,0.0,0.0,0.0,-4.9738,-5.2142,-5.383,0.0,0.0,-5.3592,-5.3592,-5.3353,-5.2968,-5.2417,-5.129,-5.1058,-5.1812,-5.117,-5.0591,-5.0084,-5.0321,-5.0202,-4.9712,-4.9712,-4.9441,-4.8968,-4.9221,-4.8798,-4.7851,-4.8139,-4.797,0.0,-4.7496,-4.7496,-4.7496,-4.7496,-4.6926,-4.6026,-4.5105,-4.4211,-4.3221,0.0,0.0,0.0,0.0,0.0,0.0,0.0,-2.7313,-2.8518,-2.9624,-3.0139,-3.0558,-3.1106,-3.1815,-3.2464,-3.3101,0.0,0.0,0.0,0.0,0.0,0.0,0.0,0.0,0.0,0.0,-3.6367,-3.5888,-3.6142,-3.5291,-3.3476,-3.3045,-3.217,-3.0925,-3.0136,0.0,0.0,0.0,0.0,0.0,0.0,0.0,-2.8221,0.0,0.0,0.0,0.0,0.0,0.0,0.0,0.0,0.0,0.0,0.0,0.0,0.0,-3.664,-3.7296,0.0,-3.7737,-3.8188,-3.84,-3.8994,0.0,-4.0029,-4.0689,-4.1358,-4.1707,-4.1979,-4.2244,-4.2616,-4.2864,-4.3087,-4.3444,-4.3497,-4.3699,0.0,0.0,0.0,-4.9352,-5.1885,0.0,0.0,-5.3316,-5.3206,-5.3206,-5.3206,-5.2858,-5.2032,-5.0724,-5.0254,-5.0875,-5.0024,-4.9342,-4.8849,-4.8832,-4.8765,-4.8595,-4.8595,-4.8359,-4.7936,-4.8392,-4.7936,-4.6819,-4.7293,-4.7225,0.0,-4.6786,-4.6786,-4.6786,-4.6786,-4.624,-4.5351,-4.4444,-4.3494,-4.2515,0.0,0.0,0.0,0.0,0.0,0.0,0.0,0.0,0.0,0.0,-3.062,-3.1254,-3.1315,-3.289,-3.4027,0.0,0.0,0.0,0.0,0.0,0.0,0.0,0.0,0.0,0.0,-3.8074,-3.8074,-3.7883,-3.8578,-3.7818,-3.5773,-3.5667,-3.4588,-3.2691,-3.1772,0.0,0.0,0.0,0.0,0.0,0.0,0.0,0.0,0.0,0.0,0.0,0.0,0.0,0.0,0.0,0.0,0.0,0.0,0.0,0.0,0.0,0.0,0.0,0.0,-3.8825,-3.8949,-3.9529,-4.0165,-4.07,-4.0746,-4.135,0.0,-4.1937,-4.2382,-4.275,-4.275,-4.3178,-4.3497,-4.3497,-4.3497,-4.403,-4.559,-4.6012,0.0,0.0,-5.1132,0.0,-5.1995,-5.2729,-5.3206,-5.3206,-5.317,-5.2766,-5.1899,-5.0581,-4.944,-4.8594,-4.7331,-4.6684,-4.6786,-4.6786,-4.7141,-4.7834,-4.7834,-4.7817,-4.7767,-4.7817,-4.7394,0.0,-4.6684,0.0,0.0,-4.6633,-4.6633,-4.6616,-4.6507,-4.5885,-4.4995,-4.4021,-4.3142,-4.2109,0.0,0.0,0.0,0.0,0.0,0.0,0.0,0.0,0.0,0.0,-3.062,-3.1462,-3.2177,-3.331,-3.4312,0.0,0.0,0.0,0.0,0.0,0.0,0.0,0.0,0.0,0.0,-3.9598,-3.9308,-3.8661,-3.8826,-3.8332,-3.7261,-3.6138,-3.5363,-3.4816,-3.3547,0.0,0.0,0.0,0.0,0.0,0.0,0.0,0.0,0.0,0.0,0.0,-3.2706,-3.3487,0.0,0.0,0.0,0.0,0.0,0.0,0.0,0.0,-3.9088,-3.9978,-4.0819,0.0,-4.1101,-4.1235,-4.1385,-4.1637,0.0,-4.2346,-4.2598,-4.3032,0.0,-4.3286,-4.3286,-4.341,-4.3497,-4.3497,-4.3497,-4.3846,-4.4837,-4.7095,-4.9334,-5.1206,-5.2307,-5.2674,-5.205,-5.2729,-5.3206,-5.3206,-5.2637,-5.1718,-5.0377,-4.9001,-4.7632,-4.6307,-4.5528,-4.5652,-4.6786,-4.6786,-4.6887,-4.7056,-4.7056,-4.6769,-4.6244,-4.6802,-4.6346,-4.5128,-4.5703,0.0,-4.5111,-4.5111,-4.5111,-4.497,-4.3814,-4.2824,-4.1882,-4.0513,-3.9421,-3.8596,0.0,0.0,0.0,0.0,0.0,0.0,0.0,0.0,0.0,0.0,0.0,0.0,0.0,0.0,0.0,0.0,0.0,0.0,0.0,0.0,0.0,0.0,0.0,0.0,0.0,-4.007,-3.9901,-3.9437,-3.9437,-3.9032,-3.8302,-3.7504,-3.6794,-3.6075,-3.4691,0.0,0.0,0.0,0.0,0.0,-3.2782,0.0,0.0,0.0,0.0,0.0,-3.3913,-3.4438,0.0,-3.5442,-3.6315,-3.7313,0.0,0.0,0.0,0.0,-4.0268,-4.092,-4.1955,-4.2203,-4.2284,-4.2523,-4.26,-4.2657,-4.3014,0.0,0.0,0.0,0.0,-4.3497,-4.3497,-4.3791,-4.392,-4.3552,-4.4103,-4.5002,-4.6195,-4.8177,-5.0105,-5.1793,-5.2068,-5.2068,0.0,-5.2729,-5.2894,-5.216,-5.2032,-5.1219,-4.9342,-4.8247,-4.7037,-4.5528,-4.4906,-4.4959,-4.5771,-4.5771,-4.5957,-4.6295,-4.6295,-4.6092,-4.572,-4.6109,-4.5669,-4.4604,-4.501,0.0,-4.4587,-4.4587,-4.4181,-4.3478,-4.2608,-4.1599,-4.0376,-3.914,-3.837,-3.7931,0.0,0.0,0.0,0.0,0.0,0.0,0.0,0.0,0.0,0.0,0.0,0.0,0.0,0.0,0.0,0.0,0.0,0.0,0.0,0.0,0.0,0.0,0.0,-4.007,-4.007,-4.007,-4.007,-4.007,-4.007,-3.9782,-3.9086,-3.8962,-3.8182,-3.6918,-3.5697,0.0,0.0,0.0,0.0,0.0,-3.4637,0.0,0.0,0.0,0.0,0.0,0.0,0.0,0.0,-3.6676,-3.7499,-3.8262,-3.887,0.0,0.0,0.0,0.0,0.0,-4.2422,-4.2783,-4.3084,-4.3411,-4.3497,-4.3497,-4.3497,0.0,0.0,0.0,0.0,0.0,-4.3497,-4.4066,0.0,-4.3754,-4.5131,0.0,-4.8453,-4.937,-5.0362,-5.1646,-5.1316,0.0,-5.1573,-5.2362,-5.2229,-5.0753,-5.1156,-5.0502,-4.8246,-4.7648,-4.666,-4.5044,-4.4613,-4.435,-4.4231,-4.4451,-4.4891,-4.5534,-4.5534,-4.5466,-4.5365,-4.5483,-4.5111,-4.4401,0.0,0.0,-4.457,-4.4485,-4.3675,-4.2419,-4.1979,-4.0976,-3.9693,-3.8629,-3.8212,-3.8106,0.0,0.0,0.0,0.0,0.0,0.0,0.0,0.0,0.0,0.0,0.0,0.0,0.0,0.0,0.0,0.0,0.0,0.0,0.0,0.0,0.0,0.0,-4.002,-4.007,-4.007,-4.007,-4.007,-4.007,-4.007,-4.002,-3.9901,-3.9209,-3.846,-3.7646,-3.7419,-3.6904,-3.6122,-3.6122,-3.5795,-3.5355,-3.5355,0.0,0.0,0.0,0.0,0.0,0.0,0.0,0.0,-3.8286,-3.9086,-3.9782,-3.9901,0.0,0.0,0.0,0.0,0.0,-4.1895,-4.3144,-4.4235,-4.3663,-4.3497,-4.3497,-4.3497,0.0,0.0,0.0,0.0,0.0,0.0,-4.3589,-4.3864,0.0,0.0,-4.8508,0.0,0.0,-5.1444,-5.1041,0.0,-5.1316,-5.0068,-5.0692,-5.0817,-5.0025,-4.9456,-4.8209,-4.616,-4.5924,-4.4889,-4.2872,-4.3305,-4.3284,-4.2642,-4.3927,-4.4637,-4.4756,-4.4756,-4.4401,-4.3792,-4.4451,-4.4333,-4.3639,0.0,-4.4587,-4.4536,-4.3861,-4.3463,-4.2986,-4.0404,-3.9262,-3.8785,-3.6781,-3.5963,-3.6023,0.0,0.0,0.0,0.0,0.0,0.0,0.0,0.0,0.0,0.0,0.0,0.0,0.0,0.0,0.0,0.0,0.0,0.0,0.0,0.0,0.0,0.0,-4.007,-4.007,-4.007,-4.007,-4.007,-4.007,-4.007,-4.007,-4.007,-3.9731,-3.9156,-3.8414,-3.8414,-3.7716,-3.6615,-3.6615,-3.6165,-3.5504,0.0,0.0,0.0,0.0,0.0,0.0,0.0,0.0,0.0,0.0,-3.9139,-3.9542,-3.9952,0.0,0.0,0.0,0.0,0.0,-4.2562,-4.3379,-4.4066,-4.4121,-4.447,-4.4562,-4.3681,0.0,0.0,0.0,0.0,0.0,0.0,0.0,-4.6012,-4.7719,0.0,-4.9426,-5.0637,-5.0729,-5.0729,0.0,0.0,-5.0398,-4.9646,-5.0325,-5.0012,-4.8048,-4.8349,-4.7347,-4.4518,-4.4713,-4.4079,-4.2373,-4.2625,-4.2642,-4.2286,-4.2997,-4.3352,-4.3352,-4.3352,-4.3149,-4.2828,-4.3183,-4.3145,-4.2854,0.0,-4.3978,-4.3895,-4.3569,-4.2925,-4.1992,-3.9764,-3.8404,-3.7497,-3.6023,-3.5504,-3.5534,0.0,0.0,0.0,0.0,0.0,0.0,0.0,0.0,0.0,0.0,0.0,0.0,0.0,0.0,0.0,0.0,0.0,0.0,0.0,0.0,-4.007,-4.007,-4.007,-4.007,-4.007,-4.007,-4.007,-4.007,-4.007,-4.007,-4.007,-4.007,-3.9782,-3.9193,-3.9193,-3.8398,-3.7128,-3.7128,-3.6615,-3.5782,0.0,0.0,0.0,0.0,0.0,0.0,0.0,0.0,0.0,0.0,0.0,0.0,0.0,0.0,0.0,-4.1286,-4.1664,-4.2021,-4.3032,-4.3538,-4.3883,-4.4305,0.0,-4.5112,-4.425,-4.4397,0.0,0.0,0.0,0.0,0.0,-4.603,-4.7792,-4.9884,-5.0178,-5.0362,-5.0986,-5.0545,-5.0233,-5.049,-4.9774,-4.9205,-4.9022,-4.9389,-4.8583,-4.5984,-4.6888,-4.6166,-4.2987,-4.3492,-4.3237,-4.1848,-4.1948,-4.1948,-4.1779,-4.1779,-4.1948,-4.2286,-4.232,-4.2182,-4.2066,-4.2219,-4.2236,-4.2061,-4.2811,-4.3124,-4.3155,-4.2965,-4.2189,-4.1013,-3.9287,-3.7705,-3.628,-3.5689,-3.5504,-3.5519,0.0,0.0,0.0,0.0,0.0,0.0,0.0,0.0,0.0,0.0,0.0,0.0,0.0,0.0,0.0,0.0,0.0,0.0,0.0,0.0,-4.007,-4.007,-4.007,-4.007,-4.007,-4.007,-4.007,-4.007,-4.007,-4.007,-4.007,-4.007,-4.007,-4.002,-4.002,-3.9558,-3.8728,-3.8728,-3.7873,-3.6492,-3.6492,0.0,0.0,0.0,0.0,0.0,0.0,0.0,0.0,0.0,0.0,0.0,0.0,0.0,-4.0204,-4.078,-4.1358,-4.1937,-4.2559,-4.3651,-4.4452,-4.3754,-4.3626,0.0,-4.5406,-4.5186,0.0,-4.559,0.0,0.0,0.0,-4.603,-4.7407,-4.8343,-5.0362,-5.1848,-5.1903,0.0,-5.1279,-4.9848,-4.8912,-4.8104,-4.737,-4.6673,-4.5688,-4.4352,-4.4351,-4.353,-4.146,-4.207,-4.1764,-4.0273,-4.0916,-4.095,-4.0257,-4.024,-4.0933,-4.2286,-4.2314,-4.194,-4.1285,-4.2016,-4.1935,-4.1325,-4.207,-4.2358,-4.2328,-4.166,-4.1282,-4.0967,-3.8766,-3.6933,-3.5549,-3.5519,-3.5504,-3.5564,0.0,0.0,0.0,0.0,0.0,0.0,0.0,0.0,0.0,0.0,0.0,0.0,0.0,0.0,0.0,0.0,0.0,0.0,0.0,0.0,-4.007,-4.007,-4.007,-4.007,-4.007,-4.007,-4.007,-4.007,-4.007,-4.007,-4.007,-4.007,-4.007,-4.007,-4.007,-3.9401,-3.8206,-3.8206,-3.7338,-3.5894,-3.5894,-3.5733,0.0,0.0,0.0,0.0,0.0,0.0,0.0,0.0,-3.942,-4.007,0.0,-4.007,-4.0204,-4.0733,-4.1313,-4.1937,-4.2537,-4.3688,-4.4635,-4.4323,-4.425,0.0,0.0,-4.6049,-4.6287,-4.6599,-4.704,0.0,0.0,0.0,-4.8912,-4.9719,-5.0637,-5.1426,-5.1922,-5.1132,-5.0068,-4.893,-4.8067,-4.726,-4.6434,-4.6085,-4.5197,-4.3553,-4.3846,-4.3034,-4.0663,-4.1202,-4.1135,-4.0104,-4.0358,-4.0358,-4.007,-4.007,-4.0358,-4.0916,-4.0915,-4.078,-4.0544,-4.0798,-4.0781,-4.0578,-4.1291,-4.1612,-4.1574,-4.1302,-4.091,-4.0277,-3.7943,-3.64,-3.5504,-3.5504,-3.5504,-3.5534,0.0,0.0,0.0,0.0,0.0,0.0,0.0,0.0,0.0,0.0,0.0,0.0,0.0,0.0,0.0,0.0,0.0,0.0,0.0,-4.007,-4.007,-4.007,-4.007,-4.007,-4.007,-4.007,-4.007,-4.007,-4.007,-4.007,-4.007,-4.007,-4.007,-4.007,-4.007,-3.9506,-3.8557,-3.8557,-3.7632,-3.6196,-3.6196,-3.591,0.0,0.0,0.0,0.0,0.0,0.0,0.0,0.0,-3.9262,0.0,0.0,0.0,0.0,0.0,-4.1178,-4.1664,-4.248,-4.3376,-4.4126,-4.4288,0.0,0.0,-4.6361,-4.6893,-4.726,-4.7792,-4.7921,-4.8012,-4.8251,0.0,0.0,0.0,-5.0453,-5.0894,-5.1187,-5.005,-4.8857,-4.8031,-4.7003,-4.6048,-4.5332,-4.504,-4.4186,-4.2449,-4.282,-4.2195,-4.0222,-4.0561,-4.0594,-4.0104,-4.007,-4.007,-4.007,-4.007,-4.007,-4.007,-4.007,-4.007,-4.007,-4.007,-4.007,-4.0155,-4.0629,-4.0849,-4.0849,-4.0849,-4.0268,-3.9231,-3.7608,-3.634,-3.5504,-3.5504,-3.5504,-3.5504,0.0,0.0,0.0,0.0,0.0,0.0,0.0,0.0,0.0,0.0,0.0,0.0,0.0,0.0,0.0,0.0,0.0,0.0,0.0,-4.007,-4.007,-4.007,-4.007,-4.007,-4.007,-4.007,-4.007,-4.007,-4.007,-4.007,-4.007,-4.007,-4.007,-4.007,-4.007,-4.007,-4.007,-4.007,-3.9172,-3.7764,-3.7764,-3.6829,-3.5504,0.0,0.0,0.0,0.0,0.0,0.0,0.0,-3.8832,-4.007,0.0,0.0,0.0,0.0,-4.0903,-4.1178,-4.2342,-4.2711,-4.2826,0.0,0.0,0.0,-4.7755,-4.7682,-4.759,-4.9242,-4.8269,-4.737,-4.8159,-4.7664,0.0,-4.8177,-4.9701,-5.0508,-4.9682,-4.882,-4.7994,-4.7186,-4.5681,-4.4492,-4.3945,-4.3162,-4.219,-4.0996,-4.0889,-4.0671,-4.0104,-4.007,-4.007,-4.007,-4.007,-4.007,-4.007,-4.007,-4.007,-4.007,-4.007,-4.007,-4.007,-4.007,-4.007,-4.007,-4.007,-4.007,-4.007,-4.007,-3.9184,-3.7763,-3.7778,-3.6823,-3.5504,-3.5504,-3.5504,-3.5504,0.0,0.0,0.0,0.0,0.0,0.0,0.0,0.0,0.0,0.0,0.0,0.0,0.0,0.0,0.0,0.0,0.0,0.0,0.0,-4.007,-4.007,-4.007,-4.007,-4.007,-4.007,-4.007,-4.007,-4.007,-4.007,-4.007,-4.007,-4.007,-4.007,-4.007,-4.007,-3.9506,-3.8486,-3.8486,-3.7573,-3.6196,-3.6196,-3.591,-3.5504,0.0,0.0,0.0,0.0,0.0,0.0,0.0,0.0,0.0,0.0,0.0,0.0,-4.0286,-4.0607,-4.0995,-4.1358,-4.2157,0.0,-4.364,0.0,0.0,0.0,-4.7297,0.0,0.0,-4.8673,-4.8031,-4.8269,-4.8104,0.0,-4.8269,-4.8728,-4.8967,-4.8728,-4.748,-4.6305,-4.5516,-4.4488,-4.3651,-4.3093,-4.2831,-4.2186,-4.1006,-4.0902,-4.0659,-4.0154,-4.007,-4.007,-4.007,-4.007,-4.007,-4.007,-4.007,-4.007,-4.007,-4.007,-4.007,-4.007,-4.007,-4.007,-4.007,-4.007,-4.007,-4.002,-3.8959,-3.7876,-3.6925,-3.6383,-3.5874,-3.5504,-3.5504,-3.5504,-3.5504,0.0,0.0,0.0,0.0,0.0,0.0,0.0,0.0,0.0,0.0,0.0,0.0,0.0,0.0,0.0,0.0,0.0,0.0,0.0,0.0,-4.007,-4.007,-4.007,-4.007,-4.007,-4.007,-4.007,-4.007,-4.007,-4.007,-4.007,-4.007,-3.9952,-3.961,-3.9952,-3.9226,-3.7822,-3.8092,-3.7338,-3.5943,-3.5943,-3.5782,-3.5504,0.0,0.0,0.0,0.0,0.0,0.0,0.0,0.0,0.0,0.0,0.0,0.0,-4.007,-4.0336,-4.0607,-4.0856,-4.1509,0.0,-4.3275,-4.448,-4.5648,-4.6561,0.0,0.0,0.0,-4.9095,-4.8416,-4.8746,-4.8269,0.0,-4.8251,-4.8306,-4.8196,-4.7884,-4.6709,-4.5608,-4.48,-4.3793,-4.2959,-4.24,-4.2114,-4.1573,-4.0671,-4.0562,-4.0427,-4.0104,-4.007,-4.007,-4.007,-4.007,-4.007,-4.007,-4.007,-4.007,-4.007,-4.007,-4.007,-4.007,-4.007,-4.007,-4.007,-4.007,-3.9926,-3.9535,-3.8602,-3.7609,-3.654,-3.6119,-3.5784,-3.5504,-3.5504,-3.5504,-3.5504,0.0,0.0,0.0,0.0,0.0,0.0,0.0,0.0,0.0,0.0,0.0,0.0,0.0,0.0,0.0,0.0,0.0,0.0,0.0,0.0,-4.007,-4.007,-4.007,-4.007,-4.007,-4.007,-4.007,-4.007,-4.007,-4.007,-4.007,-4.0155,-3.9729,-3.8924,-3.9746,-3.9222,-3.7748,-3.8414,-3.7815,-3.6492,-3.6492,-3.6117,-3.5504,-3.5504,0.0,0.0,0.0,0.0,0.0,0.0,0.0,0.0,-3.9731,-4.0003,-4.002,-4.007,-4.007,-4.0204,-4.0703,-4.0879,-4.1244,-4.259,-4.3642,0.0,-4.6122,-4.7966,-4.9588,-5.0233,0.0,-4.8526,-4.9224,-4.8196,-4.7443,-4.8086,-4.8196,-4.7884,-4.7021,-4.625,-4.548,-4.4635,-4.3428,-4.2432,-4.1765,-4.1209,-4.0674,-4.012,-4.007,-4.007,-4.007,-4.007,-4.007,-4.007,-4.007,-4.007,-4.007,-4.007,-4.007,-4.007,-4.007,-4.0087,-4.0002,-4.0087,-4.007,-4.007,-4.007,-3.9637,-3.8805,-3.8769,-3.792,-3.6496,-3.6496,-3.611,-3.5504,-3.5504,-3.5504,-3.5504,0.0,0.0,0.0,0.0,0.0,0.0,0.0,0.0,0.0,0.0,0.0,0.0,0.0,0.0,0.0,0.0,0.0,0.0,0.0,0.0,-4.007,-4.007,-4.007,-4.007,-4.007,-4.007,-4.007,-4.007,-4.007,-4.007,-4.0087,-4.0679,-4.0232,-3.8941,-3.9752,-3.8878,-3.6843,-3.7008,-3.6569,-3.5718,-3.5718,-3.5604,-3.5504,-3.5504,-3.5504,0.0,0.0,0.0,0.0,0.0,0.0,0.0,-3.8728,-3.9139,-3.9262,-3.9901,-4.007,-4.0121,-4.0254,-4.0679,0.0,0.0,-4.4553,-4.6287,-4.7741,-4.7958,-4.772,-4.7093,-4.7682,-4.8159,-4.7737,-4.7865,-4.7902,-4.7443,-4.737,-4.6874,-4.5424,-4.5076,-4.449,-4.3281,-4.2878,-4.2268,-4.1203,-4.0987,-4.0669,-4.0119,-4.007,-4.007,-4.007,-4.007,-4.007,-4.007,-4.007,-4.007,-4.007,-4.007,-4.007,0.0,-4.007,-3.9815,-3.9251,-3.9849,-4.007,-4.007,-4.007,-3.9301,-3.8011,-3.8058,-3.7136,-3.5719,-3.5719,-3.5659,-3.5504,-3.5504,-3.5504,-3.5504,0.0,0.0,0.0,0.0,0.0,0.0,0.0,0.0,0.0,0.0,0.0,0.0,0.0,0.0,0.0,0.0,0.0,0.0,0.0,0.0,0.0,0.0,-4.007,-4.007,-4.007,-4.007,-4.007,-4.007,-3.9714,-3.9542,-3.9558,-4.0258,-3.9726,-3.8328,-3.9095,-3.84,-3.6575,-3.6585,-3.6165,-3.5504,-3.5504,-3.5504,-3.5504,-3.5504,-3.5504,-3.5504,-3.5504,0.0,0.0,0.0,0.0,0.0,0.0,0.0,-3.8962,-3.9368,-3.9782,-4.007,-4.007,0.0,0.0,-4.245,0.0,-4.6168,-4.6962,-4.6972,-4.6584,-4.5669,-4.6649,-4.7609,-4.7205,-4.7131,-4.7021,-4.6599,-4.6544,-4.603,-4.4546,-4.4327,-4.3816,-4.2431,-4.1995,-4.1595,-4.0969,-4.0677,-4.0393,-4.0103,-4.007,-4.007,-4.007,-4.007,-4.007,-4.007,-4.007,-4.007,-4.007,-4.007,-4.007,-4.007,-4.007,-3.9697,-3.9016,-3.9378,-3.9581,-3.9598,-3.9969,-3.9218,-3.78,-3.782,-3.6892,-3.5504,-3.5504,-3.5504,-3.5504,-3.5504,-3.5504,-3.5504,0.0,0.0,0.0,0.0,0.0,0.0,0.0,0.0,0.0,0.0,0.0,0.0,0.0,0.0,0.0,0.0,0.0,0.0,0.0,0.0,0.0,0.0,-4.007,-4.007,-4.007,-4.007,-4.002,-3.9901,-3.9325,0.0,0.0,0.0,0.0,-3.7622,-3.843,-3.7904,-3.6334,-3.641,-3.6054,-3.5504,-3.5504,-3.5504,-3.5504,-3.5504,-3.5504,-3.5504,-3.5504,-3.5504,-3.5619,-3.6228,0.0,0.0,0.0,0.0,-3.8745,-3.8854,-3.9489,-4.007,-4.007,0.0,-4.0781,-4.2151,-4.3955,0.0,-4.5338,-4.5617,-4.5663,-4.5,-4.596,-4.6874,-4.6728,-4.6269,-4.5847,-4.5718,-4.5681,-4.5242,-4.3855,-4.3706,-4.316,-4.1819,-4.1215,-4.0869,-4.0762,-4.0381,-4.007,-4.007,-4.007,-4.007,-4.007,-4.007,-4.007,-4.007,-4.007,-4.007,-4.007,-4.007,-4.002,-3.9884,-3.9631,-3.9191,-3.8616,-3.8621,-3.8706,-3.8841,-3.9462,-3.8904,-3.7637,-3.7578,-3.6763,-3.5518,-3.5524,-3.5504,-3.5504,-3.5504,-3.5504,-3.5504,0.0,0.0,0.0,0.0,0.0,0.0,0.0,0.0,0.0,0.0,0.0,0.0,0.0,0.0,0.0,0.0,0.0,0.0,-3.7921,0.0,0.0,-4.007,-4.007,-4.007,-4.007,-4.007,-3.9782,-3.9086,0.0,0.0,0.0,0.0,0.0,-3.7653,-3.8385,-3.7582,-3.5624,-3.5649,-3.5619,-3.5504,-3.5504,-3.5504,-3.5504,-3.5504,-3.5504,-3.5504,-3.5504,-3.5504,-3.5504,-3.5619,-3.5668,0.0,0.0,0.0,-3.8092,-3.869,-3.9489,-4.007,-4.007,0.0,-4.2202,0.0,-4.3965,-4.4681,0.0,0.0,-4.455,0.0,-4.5233,-4.5847,-4.5168,-4.5498,-4.5663,-4.4984,-4.4874,-4.4382,-4.3059,-4.2869,-4.2414,-4.1162,-4.0939,-4.0717,-4.0229,-4.0152,-4.007,-4.007,-4.007,-4.007,-4.007,-4.007,-4.007,-4.007,-4.007,-4.007,-4.007,-4.007,-3.9766,-3.9123,-3.7838,-3.7178,-3.7077,-3.7094,-3.7418,-3.8043,-3.8159,-3.7653,-3.6849,-3.6876,-3.6321,-3.5477,-3.5507,-3.5504,-3.5504,-3.5504,-3.5504,-3.5504,0.0,0.0,0.0,0.0,0.0,0.0,0.0,0.0,0.0,0.0,0.0,0.0,0.0,0.0,0.0,-3.5504,-3.689,-3.8149,-3.9049,-3.9731,-4.007,-4.007,-4.007,-4.007,-4.007,-3.9662,-3.9262,-3.8908,0.0,0.0,0.0,-3.8778,-3.8683,0.0,-3.7998,-3.7464,-3.6522,-3.5804,-3.5714,-3.6028,-3.5654,-3.5729,-3.6013,-3.5639,-3.5504,-3.5504,-3.5504,-3.5504,-3.5504,-3.5504,-3.5504,-3.5554,-3.5894,0.0,0.0,0.0,-3.8453,-3.9542,-3.9952,-4.0865,-4.1863,0.0,-4.3369,-4.3936,-4.3868,-4.3803,-4.36,-4.3121,-4.3355,-4.3624,-4.3714,-4.366,-4.348,-4.3138,-4.3084,-4.2759,-4.1881,-4.1711,-4.1398,-4.0545,-4.0471,-4.0336,-4.0103,-4.007,-4.007,-4.007,-4.007,-4.007,-4.007,-4.007,-4.007,-4.007,-4.007,-4.007,-4.007,-4.007,-3.9715,-3.8988,-3.7922,-3.7195,-3.6755,-3.6332,-3.6552,-3.7297,-3.7299,-3.6834,-3.612,-3.6109,-3.5608,-3.4955,-3.5349,-3.5504,-3.5504,-3.5504,-3.5504,-3.5504,0.0,0.0,0.0,0.0,0.0,0.0,0.0,0.0,0.0,0.0,0.0,0.0,0.0,0.0,0.0,0.0,-3.6707,-3.8076,-3.9454,-3.9901,-4.002,-3.9782,-4.0003,-4.002,-3.9782,-3.9193,-3.869,0.0,0.0,0.0,-3.833,-3.834,-3.8482,0.0,-3.7778,-3.7315,-3.7105,-3.5983,-3.5893,-3.6432,-3.5774,-3.5893,-3.6417,-3.5759,-3.5504,-3.5504,-3.5504,-3.5609,-3.5744,-3.5744,-3.5863,-3.5968,-3.5804,-3.625,0.0,0.0,0.0,-3.8799,0.0,0.0,-4.1096,-4.1827,-4.2726,-4.3318,0.0,0.0,-4.2685,0.0,-4.1493,-4.155,-4.2156,-4.2009,-4.181,-4.181,-4.181,-4.1621,-4.1041,-4.0919,-4.0697,-4.0153,-4.007,-4.007,-4.007,-4.007,-4.007,-4.007,-4.007,-4.007,-4.007,-4.007,-4.007,-4.007,-4.007,-4.007,-4.007,-3.9715,-3.9242,-3.87,-3.777,-3.7043,-3.6468,-3.5876,-3.5836,-3.6236,-3.6224,-3.5834,-3.516,-3.5076,-3.4741,-3.4317,-3.479,-3.4996,-3.5011,-3.5175,-3.525,-3.5265,0.0,0.0,0.0,0.0,0.0,0.0,0.0,0.0,0.0,0.0,0.0,0.0,-3.3308,-3.3884,-3.4461,-3.5439,-3.6228,-3.7024,-3.7863,-3.9279,-3.9782,-3.9016,-3.9662,0.0,-3.8962,-3.8908,0.0,0.0,0.0,0.0,-3.7488,-3.8078,-3.8736,-3.9305,-3.7988,-3.709,-3.6492,-3.5804,-3.5893,-3.6432,-3.5774,-3.5893,-3.6417,-3.5759,-3.5504,-3.5504,-3.5504,-3.5908,-3.6432,-3.6432,-3.6821,-3.721,-3.6626,-3.6949,-3.7436,0.0,0.0,0.0,0.0,-3.9577,0.0,-4.1081,-4.2354,0.0,0.0,0.0,-4.1933,-4.0477,-4.0205,-4.0171,-4.0255,-4.1094,-4.181,-4.181,-4.181,-4.1568,-4.0969,-4.0889,-4.0683,-4.0137,-4.007,-4.007,-4.007,-4.007,-4.007,-4.007,-4.007,-4.007,-4.007,-4.007,-4.007,-4.007,-4.007,-4.007,-4.007,-3.87,-3.8007,-3.7939,-3.6451,-3.5723,-3.5673,-3.5639,-3.5287,-3.469,-3.4723,-3.4349,-3.369,-3.3638,-3.3599,-3.3563,-3.3608,-3.3604,-3.3679,-3.4307,-3.4532,-3.4622,0.0,0.0,0.0,0.0,0.0,0.0,0.0,0.0,0.0,0.0,0.0,0.0,0.0,-3.3589,-3.4394,-3.5424,-3.6165,-3.6964,-3.7764,-3.8334,-3.8486,-3.8206,-3.8486,-3.8486,-3.8189,-3.7716,0.0,0.0,0.0,-3.6884,-3.6836,-3.7464,-3.7898,-3.8108,-3.7614,-3.7285,-3.7015,-3.5953,-3.6118,-3.6985,-3.5923,-3.6133,-3.6971,-3.5908,-3.5504,-3.5504,-3.5504,-3.5923,-3.6492,-3.6492,-3.6896,-3.7375,-3.715,-3.6977,-3.6873,-3.6646,-3.6783,-3.7203,0.0,0.0,0.0,-3.9673,-4.0883,-4.1741,-4.0725,-4.1057,-4.1305,-4.029,-4.007,-4.007,-4.007,-4.0417,-4.0737,-4.0737,-4.0737,-4.0607,-4.0429,-4.038,-4.0317,-4.0121,-4.007,-4.007,-4.007,-4.007,-4.007,-4.007,-4.007,-4.007,-4.007,-4.007,-4.007,-4.007,-4.007,-3.9851,-3.9394,-3.8396,-3.7669,-3.7178,-3.662,-3.6096,-3.5577,-3.5144,-3.4592,-3.3937,-3.3495,-3.3198,-3.2942,-3.2879,-3.2879,-3.2881,-3.3351,-3.3499,-3.3574,-3.4233,-3.4472,-3.4577,0.0,0.0,0.0,0.0,0.0,0.0,0.0,0.0,0.0,0.0,0.0,0.0,0.0,0.0,-3.4307,-3.5374,-3.6165,-3.6737,-3.7011,-3.7531,-3.769,-3.7397,-3.7632,-3.769,-3.7397,0.0,0.0,0.0,0.0,0.0,0.0,-3.6911,-3.721,-3.7404,-3.7195,-3.7105,-3.703,-3.5953,-3.6133,-3.7,-3.5938,-3.6267,-3.7315,-3.6462,-3.6148,-3.6148,-3.6148,-3.6432,-3.6791,-3.6791,-3.7075,-3.7449,-3.7659,-3.7165,-3.6475,-3.6316,-3.6228,-3.6399,-3.716,0.0,0.0,0.0,-3.9495,-4.0254,-3.9493,-4.01,-4.0637,-3.9865,-3.9901,-4.007,-4.007,-4.007,-4.007,-4.007,-4.007,-4.007,-4.007,-4.007,-4.007,-4.007,-4.007,-4.007,-4.007,-4.007,-4.007,-4.007,-4.007,0.0,-4.007,-4.007,-3.9969,-3.9715,-3.9715,-3.9377,-3.8633,-3.7905,-3.728,-3.6772,-3.6518,-3.6129,-3.5577,-3.4894,-3.4235,-3.3531,-3.2895,-3.2437,-3.2206,-3.2163,-3.2183,-3.2243,-3.2901,-3.3155,-3.3275,-3.4158,-3.4472,-3.4577,0.0,0.0,0.0,0.0,0.0,0.0,0.0,0.0,0.0,0.0,0.0,0.0,0.0,0.0,0.0,-3.5389,-3.6165,-3.6275,-3.5569,-3.689,-3.7397,-3.6615,-3.7338,-3.7413,-3.6631,0.0,0.0,0.0,0.0,0.0,0.0,0.0,-3.6776,-3.733,-3.6731,-3.6462,-3.6417,-3.5774,-3.5893,-3.6462,-3.5774,-3.6267,-3.7404,-3.736,-3.7345,-3.7345,-3.7345,-3.7375,-3.7404,-3.7404,-3.7449,-3.7599,-3.8227,-3.7554,-3.6417,-3.5729,-3.5534,-3.5699,0.0,0.0,0.0,0.0,0.0,0.0,-3.7908,0.0,-3.9797,-3.9056,-3.9542,-4.007,-4.0087,-4.007,-4.007,-4.007,-4.007,-4.007,-4.007,-4.007,-4.007,-4.007,-4.007,-4.007,-4.007,-4.007,-4.007,-4.007,-4.007,-4.007,-4.007,-4.007,-3.9749,-3.9056,-3.8988,-3.8616,-3.7922,-3.7127,-3.6738,-3.6738,-3.5977,-3.5577,-3.556,-3.4894,-3.4186,-3.3531,-3.2841,-3.2176,-3.1482,-3.1482,-3.1482,-3.1541,-3.2258,-3.2512,-3.2677,-3.3993,-3.4472,-3.4577,0.0,0.0,0.0,0.0,0.0,0.0,0.0,0.0,0.0,0.0,0.0,0.0,-3.0524,-3.2553,-3.4346,-3.5439,-3.5668,-3.5733,-3.5504,-3.591,-3.6022,-3.5846,-3.6022,-3.625,-3.6542,0.0,0.0,0.0,0.0,0.0,0.0,0.0,0.0,0.0,-3.5848,-3.5774,-3.5759,-3.5579,-3.6148,-3.706,-3.5953,-3.6267,-3.7315,-3.6387,-3.6028,-3.6028,-3.6028,-3.6626,-3.7404,-3.7404,-3.8377,-3.9529,-3.923,-3.8556,-3.7644,-3.6537,-3.6207,-3.6169,-3.5853,0.0,0.0,0.0,0.0,0.0,0.0,0.0,-3.8489,-3.8849,-3.9086,-3.9437,-4.0003,-4.007,-4.007,-4.007,-4.007,-4.007,-4.007,-4.007,-4.007,-4.007,-4.007,-4.007,-4.007,-4.007,-4.007,0.0,-4.007,-4.007,-4.007,-4.007,-3.9986,-3.9783,-3.8751,-3.8108,-3.7905,-3.6603,-3.5943,-3.5943,-3.5723,-3.5362,-3.4847,-3.4186,-3.3479,-3.2841,-3.212,-3.1697,-3.1482,-3.1482,-3.1482,-3.1541,-3.2258,-3.2512,-3.2677,-3.3993,-3.4472,-3.4577,0.0,0.0,0.0,0.0,0.0,0.0,0.0,0.0,0.0,0.0,0.0,0.0,-3.1622,-3.3339,-3.4903,-3.6201,-3.6058,-3.6028,-3.6282,-3.6058,-3.5908,-3.5908,-3.5908,-3.6088,-3.6477,0.0,0.0,0.0,0.0,0.0,0.0,0.0,0.0,0.0,0.0,0.0,0.0,0.0,-3.5938,-3.6552,-3.5804,-3.6118,-3.6971,-3.6492,-3.6297,-3.6297,-3.6297,-3.6956,-3.7778,-3.7494,-3.8736,-4.0142,-3.8661,-3.8482,-3.8512,-3.6956,-3.6492,-3.6342,-3.5684,-3.5846,-3.6054,-3.5619,0.0,0.0,-3.6228,-3.6753,-3.744,0.0,-3.823,-3.858,-3.9049,-3.9119,-3.9119,-3.9119,-3.9119,-3.9348,-4.002,-4.007,-4.007,-4.007,-4.007,-4.007,-4.007,-4.007,-4.007,-4.007,-4.007,-4.007,-4.007,-4.007,-3.9935,-3.9631,-3.8514,-3.7753,-3.7432,-3.6231,-3.5622,-3.5622,-3.5622,-3.5253,-3.4576,-3.3887,-3.3235,-3.2547,-3.1796,-3.1482,-3.1482,-3.1482,-3.1482,-3.1541,-3.2258,-3.2677,-3.3051,-3.4098,-3.4666,-3.4966,0.0,0.0,0.0,0.0,0.0,0.0,0.0,0.0,0.0,0.0,0.0,0.0,-3.4413,-3.481,-3.5578,-3.7381,-3.6941,-3.6851,-3.7479,-3.6941,-3.6596,-3.6596,-3.6596,-3.6626,-3.6701,0.0,0.0,0.0,0.0,0.0,0.0,0.0,0.0,0.0,0.0,0.0,0.0,0.0,0.0,-3.5504,-3.5504,-3.5893,-3.6537,-3.7015,-3.7195,-3.7195,-3.7195,-3.7629,-3.8108,-3.7659,-3.8661,-3.9694,-3.7509,-3.7913,-3.8871,-3.7195,-3.6596,-3.6357,-3.5774,-3.5609,-3.5594,-3.5519,-3.5564,0.0,-3.5519,-3.6006,-3.6492,0.0,-3.7144,-3.769,-3.7748,-3.7822,-3.7822,-3.7822,-3.7822,-3.8262,-3.9679,-3.9901,-3.9919,-3.9851,-4.0003,-4.002,-3.9851,-4.0003,-4.0054,-3.9986,-4.0037,-4.007,-4.007,-4.007,-3.9749,-3.9005,-3.8278,-3.755,-3.6789,-3.6011,-3.5622,-3.5622,-3.5515,-3.5161,-3.4479,-3.3786,-3.3145,-3.2437,-3.1796,-3.1482,-3.1482,-3.1482,-3.1482,-3.1541,-3.2258,-3.2871,-3.3469,-3.4203,-3.4861,-3.54,-2.3135,0.0,0.0,0.0,0.0,0.0,0.0,0.0,0.0,0.0,0.0,0.0,-3.5559,-3.5092,-3.5522,-3.7983,-3.7599,-3.7509,-3.8153,-3.7584,-3.7225,-3.7225,-3.7225,-3.7479,-3.8003,-3.7629,0.0,0.0,0.0,0.0,0.0,0.0,0.0,0.0,0.0,0.0,0.0,0.0,0.0,-3.5504,-3.5504,-3.5893,-3.6432,-3.6028,-3.5878,-3.5878,-3.5878,-3.6297,-3.7,-3.7898,-3.8108,-3.8093,-3.8661,-3.8362,-3.7823,-3.7973,-3.7285,-3.6462,-3.6327,-3.6297,-3.6178,-3.5639,-3.5908,0.0,-3.5624,-3.5619,-3.5894,0.0,-3.6722,-3.7024,-3.769,-3.7822,-3.7822,-3.7822,-3.7822,-3.7937,-3.8206,-3.8761,-3.893,-3.8304,-3.9362,-3.9615,-3.8388,-3.9379,-3.9817,-3.9194,-3.975,-4.007,-4.007,-4.007,-3.9749,-3.9005,-3.8278,-3.755,-3.6789,-3.6011,-3.5622,-3.5577,-3.5052,-3.4431,-3.3786,-3.3093,-3.2367,-3.1697,-3.1582,-3.1482,-3.1482,-3.1482,-3.1482,-3.1541,-3.2258,-3.2587,-3.2841,-3.4038,-3.4562,-3.4756,-2.3135,0.0,0.0,0.0,0.0,0.0,0.0,0.0,0.0,0.0,0.0,-3.3099,-3.5244,-3.5338,-3.629,-3.8748,-3.8956,-3.917,-3.9843,-3.896,-3.8407,-3.8407,-3.8078,-3.8048,-3.8377,-3.8407,0.0,0.0,0.0,0.0,0.0,0.0,0.0,0.0,0.0,0.0,0.0,0.0,-3.5052,-3.5504,-3.5504,0.0,-3.5953,-3.5624,-3.5504,-3.5504,-3.5504,-3.5923,-3.6626,-3.7584,-3.8123,-3.8407,-3.8407,-3.8407,-3.8407,-3.8392,-3.7494,-3.6492,-3.6492,-3.6252,-3.5998,-3.5998,-3.5998,0.0,0.0,-3.5744,-3.5619,-3.6006,-3.6054,-3.618,-3.66,-3.6662,-3.6662,-3.6662,-3.6662,-3.6662,-3.6662,-3.7616,-3.8188,-3.7835,-3.851,-3.8636,-3.7886,-3.8504,-3.877,-3.8371,-3.9059,-3.948,-3.948,-3.9868,-3.9918,-3.9546,-3.8481,-3.7719,-3.7347,-3.6197,-3.5622,-3.5577,-3.4941,-3.4235,-3.3582,-3.2895,-3.2231,-3.1482,-3.1482,-3.1482,-3.1482,-3.1482,-3.1482,-3.1511,-3.1898,-3.2228,-3.2602,-3.3245,-3.3918,-3.4532,-2.3135,0.0,0.0,0.0,0.0,0.0,0.0,0.0,0.0,0.0,-3.1847,-3.361,-3.4892,-3.5655,-3.7014,-3.9538,-3.9862,-4.0347,-4.1362,-4.0085,-3.9371,-3.9604,-3.896,-3.8586,-3.8586,-3.9125,-3.9424,0.0,0.0,0.0,0.0,0.0,0.0,0.0,0.0,0.0,0.0,0.0,0.0,-3.5097,0.0,-3.5148,-3.5504,-3.5504,-3.5504,-3.5504,-3.5504,-3.5848,-3.6387,-3.703,-3.7868,-3.8542,-3.7823,-3.8093,-3.8631,-3.8437,-3.7494,-3.6492,-3.6492,-3.6193,-3.5938,-3.6222,-3.5998,-3.5804,0.0,0.0,0.0,-3.5504,0.0,-3.5504,-3.5504,0.0,0.0,0.0,0.0,0.0,0.0,-3.6538,0.0,-3.7367,-3.7632,-3.7697,-3.7404,-3.7521,-3.7608,-3.7785,-3.8331,-3.8676,-3.8687,-3.9445,-3.9783,-3.9631,-3.8668,-3.7973,-3.7702,-3.6295,-3.5605,-3.5577,-3.464,-3.3987,-3.3582,-3.2788,-3.2064,-3.1482,-3.1482,-3.1482,-3.1482,-3.1482,-3.1482,-3.1482,-3.1482,-3.1854,-3.2362,-3.2617,-3.338,-3.4322,-2.3135,-2.3135,0.0,0.0,0.0,0.0,0.0,0.0,0.0,0.0,0.0,-3.3909,-3.595,-3.5706,-3.6779,-4.0123,-3.9003,-3.91,-4.1299,-3.9751,-3.9229,-4.0203,-3.9649,-3.9305,-3.9305,-3.9379,-3.9424,0.0,0.0,0.0,0.0,0.0,0.0,0.0,-3.2968,0.0,0.0,0.0,-3.3125,0.0,-3.3113,-3.3973,0.0,-3.5504,-3.5504,-3.5504,-3.5504,-3.5549,-3.5714,0.0,-3.6312,-3.6222,0.0,-3.721,-3.6267,-3.7913,-3.7494,-3.6492,-3.6492,-3.6821,-3.6941,-3.5878,-3.5998,-3.6237,-3.5729,0.0,-3.5504,-3.5504,0.0,-3.5504,-3.5504,0.0,0.0,0.0,0.0,0.0,-3.5504,-3.5683,-3.5752,-3.5758,-3.6993,-3.7247,-3.5854,-3.6383,-3.7033,-3.7745,-3.787,-3.7899,-3.7887,-3.8602,-3.8735,-3.8055,-3.8606,-3.8244,-3.6924,-3.6071,-3.5654,-3.5577,-3.37,-3.3093,-3.3531,-3.2256,-3.1582,-3.1482,-3.1482,-3.1482,-3.1482,-3.1482,-3.1482,-3.1482,-3.1482,-3.1526,-3.1735,-3.2961,-3.3484,-3.3784,-2.3242,-2.3135,-2.3299,0.0,0.0,0.0,0.0,0.0,0.0,0.0,0.0,-3.5823,-3.8031,-3.7313,-3.7495,-3.9906,-4.0055,-4.0566,-4.1852,-4.0875,-4.0822,-4.2025,-4.1115,-4.0233,-3.966,-3.9218,-3.8597,-3.7558,-3.6476,0.0,0.0,0.0,0.0,0.0,-3.1421,0.0,-3.1998,0.0,-3.2241,0.0,0.0,-3.3101,0.0,-3.4409,-3.4986,-3.5504,-3.5504,-3.5504,-3.5549,0.0,-3.6222,0.0,0.0,0.0,0.0,-3.8153,0.0,-3.6567,-3.6926,-3.6206,-3.5507,-3.5955,-3.554,-3.5198,-3.5896,-3.5774,-3.5504,-3.5504,0.0,0.0,0.0,0.0,0.0,0.0,-3.5504,0.0,0.0,0.0,-3.5504,0.0,0.0,0.0,-3.5554,-3.5799,-3.6125,-3.6451,-3.6838,-3.7103,-3.7124,-3.7828,-3.8116,-3.7825,-3.7693,-3.715,-3.6186,-3.5421,-3.4852,-3.4399,-3.3198,-3.2749,-3.2986,-3.1951,-3.1482,-3.1482,-3.1482,-3.1482,-3.1482,-3.1482,-3.1482,-3.1482,-3.1482,-3.1764,-3.2123,-3.2302,-3.308,-3.402,-2.3633,-2.3486,-2.3821,0.0,0.0,0.0,0.0,0.0,0.0,-3.2475,-3.4392,-3.6815,-3.9029,-3.8799,-3.8864,-3.9719,-4.037,-4.1012,-4.1681,-4.091,-4.0915,-4.2041,-4.1052,-4.0046,-3.9301,-3.8688,-3.7726,-3.646,0.0,0.0,0.0,0.0,0.0,0.0,0.0,-3.08,-3.1798,0.0,-3.1431,-3.2058,-3.1896,-3.1974,-3.2321,-3.3518,-3.4461,-3.5133,-3.5424,-3.5294,-3.5096,-3.5274,-3.5672,0.0,-3.5991,-3.6369,-3.6825,0.0,0.0,0.0,-3.6327,0.0,0.0,0.0,-3.5316,-3.4742,-3.5955,-3.5848,-3.5504,-3.5504,-3.5504,0.0,0.0,0.0,-3.5504,-3.5504,0.0,-3.5504,0.0,-3.5504,0.0,0.0,0.0,0.0,0.0,-3.5504,-3.5394,-3.5225,-3.5704,-3.6014,-3.6014,-3.6739,-3.731,-3.7456,-3.7195,-3.6606,-3.571,-3.4981,-3.4266,-3.3582,-3.2734,-3.2382,-3.2586,-3.1853,-3.1482,-3.1482,-3.1482,-3.1482,-3.1482,-3.1482,-3.1482,-3.1482,-3.1482,-3.1943,-3.2482,-3.2183,-3.2779,-3.3716,-2.4463,-2.4375,-2.4723,0.0,0.0,0.0,0.0,0.0,0.0,-3.4512,-3.47,-3.5605,-3.7826,-3.995,-4.0745,-3.975,-3.9246,-3.9265,-3.9889,-3.8794,-3.8421,-3.9001,-3.838,-3.7965,-3.7965,-3.7454,-3.7137,-3.7042,0.0,0.0,0.0,0.0,0.0,0.0,-3.1599,-3.1348,-3.1405,-3.0889,-3.0662,-3.0612,-3.0083,-3.0419,-3.1462,0.0,-3.4027,-3.4177,-3.5133,0.0,0.0,-3.4802,-3.3974,0.0,0.0,0.0,0.0,0.0,0.0,0.0,0.0,0.0,0.0,-3.541,0.0,0.0,0.0,-3.5519,-3.5504,-3.5504,-3.5504,-3.5504,-3.5504,-3.5504,-3.5504,-3.5504,-3.5504,0.0,0.0,0.0,-3.5504,-3.5504,0.0,0.0,0.0,-3.5504,-3.5225,-3.4579,-3.4564,-3.4579,-3.4579,-3.5275,-3.6004,-3.6615,-3.7365,-3.7118,-3.571,-3.5043,-3.4352,-3.3582,-3.2201,-3.191,-3.2586,-3.1853,-3.1482,-3.1482,-3.1482,-3.1482,-3.1482,-3.1482,-3.1482,-3.1482,-3.1482,-3.1943,-3.2587,-3.32,-3.293,-3.2342,-2.6162,-2.6133,-2.642,0.0,0.0,0.0,0.0,-3.411,-3.4649,-3.4666,-3.5929,-3.7417,-3.8988,-4.0421,-4.0961,-4.0249,-4.0061,-4.0045,-4.0329,-3.9991,-4.0054,-4.0708,-4.0087,-3.9216,-3.8222,-3.7558,-3.6645,-3.5522,0.0,0.0,0.0,0.0,0.0,0.0,0.0,-3.0871,0.0,0.0,0.0,0.0,0.0,-3.0226,-3.0933,0.0,-3.2522,-3.3101,-3.3463,-3.3394,0.0,-3.331,-3.3354,-3.3237,-3.3262,-3.354,-3.3893,-3.3645,-3.3581,0.0,0.0,0.0,-3.2777,-3.4167,0.0,0.0,0.0,0.0,0.0,0.0,-3.5504,-3.5504,-3.5504,-3.5504,-3.5504,-3.5504,-3.5504,-3.5504,0.0,-3.4916,-3.4549,-3.4549,-3.507,-3.5504,0.0,0.0,-3.4732,-3.4549,-3.407,-3.3819,-3.3819,-3.4532,-3.4961,-3.5213,-3.5889,-3.56,-3.4281,-3.3999,-3.333,-3.2201,-3.1739,-3.164,-3.1838,-3.164,-3.1482,-3.1482,-3.1482,-3.1482,-3.1482,-3.1482,-3.1482,-3.1482,-3.1482,-3.1616,-3.1898,-3.2108,-3.2441,-3.2706,-2.7041,-2.7139,-2.7422,0.0,0.0,0.0,0.0,0.0,-3.6111,-3.6051,-3.8003,-3.9647,-4.0396,-4.1102,-4.125,-4.0538,-4.0513,-4.0246,-3.9672,-3.9874,-3.9926,-3.9826,-3.9599,-3.8872,-3.7691,-3.7235,-3.6238,-3.4726,0.0,-3.3884,0.0,0.0,0.0,0.0,0.0,-3.062,-3.0595,-3.0231,-2.9967,0.0,0.0,-3.0005,0.0,0.0,-3.1386,-3.2391,0.0,-3.2352,-3.2068,-3.2091,-3.215,-3.2165,-3.1776,-3.2233,-3.2818,-3.2388,-3.2259,-3.2355,-3.2667,-3.2015,0.0,-3.3114,-3.304,0.0,-3.4626,0.0,-3.4934,0.0,0.0,0.0,-3.4593,0.0,0.0,-3.5026,-3.524,-3.5365,0.0,-3.4118,-3.3506,-3.3504,-3.4345,-3.4887,-3.4703,-3.4762,-3.453,-3.3853,-3.3591,-3.3426,0.0,-3.3789,-3.4215,-3.4494,-3.5141,-3.4966,-3.3858,-3.3619,-3.2961,-3.1884,-3.1586,-3.1482,-3.1482,-3.1482,-3.1482,-3.1482,-3.1482,-3.1482,-3.1482,-3.1482,-3.1482,-3.1482,-3.1482,-3.1351,-3.1146,-3.1544,-3.2011,-3.225,-2.7158,-2.7412,0.0,0.0,-3.1112,0.0,0.0,0.0,-3.7585,-3.8551,-4.0504,-4.1827,-4.1872,-4.1898,-4.1508,-4.0551,-4.0513,-3.9823,-3.8203,-3.8605,-3.8191,-3.6558,-3.696,-3.6973,-3.6408,-3.6345,-3.5818,-3.4801,-3.4688,0.0,0.0,0.0,0.0,0.0,-3.0834,0.0,-3.057,-3.057,-3.0269,-2.9792,-2.9792,-2.9817,-2.9829,-2.9804,-3.0701,-3.1959,-3.2309,-3.1879,-3.1143,-3.1143,-3.053,-2.9792,-2.9792,-2.9792,-2.9792,-2.9792,-2.9792,-3.0022,-3.0868,-3.1126,-3.1384,-3.2266,-3.2526,0.0,0.0,0.0,-3.3957,0.0,0.0,0.0,0.0,0.0,0.0,0.0,0.0,-3.5005,-3.409,-3.3122,-3.2539,-3.2545,-3.3311,-3.3645,-3.3122,-3.4445,-3.452,-3.2641,-3.3084,-3.3157,0.0,-3.3157,-3.3819,-3.4416,-3.515,-3.5175,-3.4502,-3.3829,-3.3155,-3.2497,-3.1795,-3.1482,-3.1482,-3.1482,-3.1482,-3.1482,-3.1482,-3.1482,-3.1482,-3.1482,-3.1482,-3.1482,-3.1482,-3.0999,-3.0438,-3.1539,-3.1543,-3.0913,-2.7988,-2.8057,-2.8795,0.0,-3.3229,-3.4892,0.0,0.0,0.0,0.0,-4.0345,-4.1134,-4.1469,-4.176,-4.155,-4.0588,-4.0513,-4.0162,-3.932,-3.9396,-3.9107,-3.8253,-3.7952,-3.7538,-3.6985,-3.6169,-3.5818,-3.5943,-3.4299,0.0,-3.3432,0.0,0.0,0.0,0.0,0.0,-3.0005,-3.0005,-2.993,-2.9792,-2.9792,-3.0043,-3.0357,0.0,-3.0274,-3.0902,-3.0624,-3.033,-3.0165,-3.0165,-2.9973,-2.9792,-2.9792,-2.9792,-2.9792,-2.9792,-2.9792,-2.9817,-3.0072,-3.0175,-3.0341,-3.1293,-3.1552,-3.1847,0.0,0.0,0.0,0.0,0.0,0.0,0.0,0.0,0.0,-3.3093,-3.3202,-3.3274,-3.3033,-3.2152,-3.1536,-3.1564,-3.1978,-3.2349,-3.2694,-3.2862,-3.2795,-3.2227,-3.2542,-3.2443,0.0,0.0,0.0,-3.3781,-3.4872,-3.515,-3.4495,-3.3809,-3.3155,-3.2497,-3.1795,-3.1482,-3.1482,-3.1482,-3.1482,-3.1482,-3.1482,-3.1482,-3.1482,-3.1482,-3.1482,-3.1482,-3.1482,-3.1105,-3.0446,-2.9698,-2.9293,-2.9153,-2.8291,-2.8804,0.0,-3.1122,0.0,0.0,-3.5161,-3.6848,0.0,-3.8374,-3.968,0.0,-4.1476,-4.1422,-4.1034,-4.0563,-4.03,-3.9923,-3.9371,-3.9559,-3.9233,-3.8178,-3.8052,-3.7638,-3.6835,-3.6219,-3.5818,-3.5642,-3.4161,0.0,-3.278,0.0,0.0,0.0,0.0,-3.008,-2.9792,-2.9792,-2.9792,-2.9792,-2.9792,-2.998,0.0,-2.9905,-2.998,-3.0218,-2.9905,-2.9792,-2.9792,-2.9792,-2.9792,-2.9792,-2.9792,-2.9792,-2.9792,-2.9792,-2.9792,-2.9792,-2.9792,-2.9792,-2.9919,-3.0457,-3.0585,-3.0842,-3.1798,-3.1978,-3.1997,0.0,-3.2286,-3.2372,0.0,0.0,0.0,-3.2721,-3.2275,-3.2024,-3.1977,-3.1151,-3.0585,-3.0585,-3.0727,-3.095,-3.1329,-3.2191,-3.2327,-3.1492,-3.2392,0.0,0.0,0.0,0.0,-3.3532,-3.4807,-3.5335,-3.4916,-3.4274,-3.3589,-3.2931,-3.2273,-3.175,-3.1482,-3.1482,-3.1482,-3.1482,-3.1482,-3.1482,-3.1482,-3.1482,-3.1278,-3.0925,-3.042,-3.0151,-2.9954,-2.8734,-2.8505,-2.8672,-2.8291,-2.9207,0.0,0.0,0.0,0.0,0.0,-3.636,0.0,-3.6784,0.0,-4.0701,-4.1482,-4.0913,-4.0488,-4.0413,-3.991,-3.9383,-3.8906,-3.9245,-3.8818,-3.7362,-3.7688,-3.745,-3.6496,-3.6257,-3.5717,-3.4826,-3.406,0.0,0.0,0.0,0.0,0.0,0.0,0.0,0.0,-2.9792,-2.9792,-2.9792,-2.9792,-2.9792,-2.9792,-2.9792,-2.9792,-2.9792,-2.9792,-2.9792,-2.9792,-2.9792,-2.9792,-2.9792,-2.9792,-2.9792,-2.9792,-2.9792,-2.9792,-2.9792,-2.9792,-2.9792,-2.9792,-2.9792,-2.9792,-3.0035,-3.0842,-3.101,-3.101,-3.101,-3.1681,-3.1707,0.0,0.0,0.0,-3.2396,-3.1655,-3.101,-3.101,-3.0316,-2.9792,-2.9792,-2.9804,0.0,-2.9813,-3.1744,-3.2403,-3.069,-3.2199,0.0,0.0,0.0,-3.4136,-3.3492,-3.4777,-3.5504,-3.5504,0.0,-3.4188,-3.3484,-3.2826,-3.2168,-3.1482,-3.1482,-3.1482,-3.1482,-3.1482,-3.1482,-3.1482,-3.144,-3.1013,-3.0249,-2.9066,-2.8973,-2.9371,-2.8562,-2.8511,-2.8988,-2.8291,0.0,0.0,0.0,0.0,-3.1551,-3.2148,-3.4233,-3.596,-3.6379,-3.8107,-3.9491,-4.0084,-4.0345,-4.0337,-3.9873,-3.9333,0.0,0.0,-3.8517,-3.8165,-3.7877,-3.7525,-3.7236,-3.7048,-3.5705,-3.514,-3.5403,-3.3458,0.0,0.0,0.0,0.0,0.0,0.0,0.0,-2.9792,-2.9792,0.0,-2.9792,-2.9792,-2.9792,-2.9792,-2.9792,-2.9792,-2.9792,-2.9792,-2.9792,-2.9792,-2.9792,-2.9792,-2.9792,-2.9792,-2.9792,-2.9792,-2.9792,-2.9792,-2.9792,-2.9792,-2.9792,-2.9792,-2.9792,-2.9792,-2.9804,-3.0035,-3.0047,-3.0047,-3.0047,-3.0188,-3.0188,-2.9894,0.0,0.0,0.0,0.0,0.0,-3.0047,-2.9907,-2.9792,-2.9792,-3.0035,-3.0075,-2.9838,-3.0432,-3.0645,-3.0309,0.0,0.0,0.0,0.0,0.0,0.0,-3.4777,0.0,0.0,0.0,-3.4129,-3.3484,-3.2826,-3.2168,-3.1482,-3.1482,-3.1482,-3.1482,-3.1482,-3.1482,-3.1511,-3.1273,-3.0956,-3.0427,-2.96,-2.9579,-2.9961,-2.906,-2.885,-2.8875,-2.8291,0.0,0.0,0.0,0.0,0.0,0.0,-3.2097,-3.3135,-3.3475,-3.535,-3.7486,-3.9526,-3.9044,-3.8884,-3.9581,-3.8919,-3.8555,-3.8856,-3.8329,-3.7877,-3.76,-3.7324,-3.691,-3.6345,-3.5278,-3.4713,-3.4688,0.0,0.0,0.0,0.0,0.0,0.0,0.0,-2.9792,0.0,0.0,0.0,-2.9792,-2.9792,-2.9792,-2.9792,-2.9792,-2.9792,-2.9792,-2.9792,-2.9792,-2.9792,-2.9792,-2.9792,-2.9792,-2.9792,-2.9792,-2.9792,-2.9792,-2.9792,-2.9792,-2.9792,-2.9792,-2.9792,-2.9792,-2.9792,-2.9792,-2.9792,-2.9792,-2.9792,-2.9792,-2.9792,-2.9792,-2.9792,-2.9792,0.0,0.0,0.0,0.0,0.0,-2.9792,-2.9792,-2.9792,-2.9651,-2.9639,-2.9779,-2.9651,-2.9691,0.0,0.0,0.0,0.0,0.0,0.0,0.0,0.0,0.0,0.0,0.0,0.0,-3.3495,-3.3183,-3.2497,-3.1482,-3.1482,-3.1482,-3.1482,-3.1482,-3.1676,-3.196,-3.1232,-3.0535,-2.9856,-2.9054,-2.8877,-2.9087,-2.8962,-2.8925,-2.8938,0.0,-2.8369,0.0,0.0,-2.9355,0.0,-3.0146,-3.0596,-3.0876,-3.0852,-3.2668,-3.5007,-3.7522,-3.6847,-3.6844,-3.8479,-3.7839,-3.7606,-3.8053,-3.7866,-3.7462,-3.7023,-3.6897,-3.6326,-3.5171,-3.45,-3.3801,-3.2978,0.0,0.0,0.0,0.0,0.0,0.0,0.0,0.0,0.0,0.0,-2.9792,-2.9792,-2.9792,-2.9792,-2.9792,-2.9792,-2.9792,-2.9792,-2.9792,-2.9792,-2.9792,-2.9792,-2.9792,-2.9792,-2.9792,-2.9792,-2.9792,-2.9792,-2.9792,-2.9792,-2.9792,-2.9792,-2.9792,-2.9792,-2.9792,-2.9792,-2.9792,-2.9792,-2.9792,-2.9792,-2.9792,-2.9792,-2.9792,-2.9792,0.0,0.0,0.0,0.0,0.0,0.0,-2.9767,-2.9639,-2.9282,-2.9197,-2.9404,-2.9237,0.0,0.0,0.0,0.0,-3.1009,0.0,0.0,0.0,0.0,-3.5195,-3.5195,0.0,-3.4857,-3.3506,-3.352,-3.2811,-3.1482,-3.1482,-3.1482,-3.1482,-3.1616,-3.1931,-3.2229,-3.1142,-3.021,-2.9405,-2.8604,-2.8285,-2.8323,-2.8637,-2.875,-2.8812,0.0,0.0,0.0,0.0,0.0,0.0,-3.0185,-3.0596,-3.0945,-3.0907,-3.193,-3.2359,-3.1814,-3.3285,-3.449,-3.5001,-3.5278,-3.5517,-3.5565,-3.6207,-3.6496,-3.6445,-3.5968,-3.5071,-3.3887,-3.2903,-3.1569,0.0,0.0,-3.0563,0.0,0.0,0.0,0.0,0.0,0.0,0.0,-2.9792,-2.9792,-2.9792,-2.9792,-2.9792,-2.9792,-2.9792,-2.9792,-2.9792,-2.9792,-2.9792,-2.9792,-2.9792,-2.9792,-2.9792,-2.9792,-2.9792,-2.9792,-2.9792,-2.9792,-2.9792,-2.9792,-2.9792,-2.9792,-2.9792,-2.9792,-2.9792,-2.9792,-2.9792,-2.9792,-2.9792,-2.9792,-2.9792,-2.9792,-2.9792,-2.9792,0.0,0.0,0.0,0.0,0.0,-2.9639,-2.9028,-2.9409,-2.9353,-2.8381,-2.9111,0.0,0.0,-3.006,0.0,0.0,0.0,0.0,-3.2198,0.0,-3.4133,-3.4133,-3.5041,-3.4857,-3.3506,-3.352,-3.2811,-3.1482,-3.1482,-3.1482,-3.1511,-3.2153,-3.214,-3.1585,-3.0672,-3.0025,-2.9732,-2.9051,-2.885,-2.88,-2.8348,-2.8185,-2.8185,0.0,0.0,0.0,0.0,0.0,0.0,0.0,-3.0123,-3.0325,-3.0363,-3.0727,-3.1248,-3.161,-3.2009,-3.2721,-3.4151,-3.3811,-3.3568,-3.3991,-3.3749,-3.3585,-3.3585,-3.3089,-3.2382,-3.1596,-3.1193,-3.0319,0.0,0.0,0.0,0.0,0.0,0.0,0.0,0.0,-2.9792,-2.9792,-2.9792,-2.9792,-2.9792,-2.9792,-2.9792,-2.9792,-2.9792,-2.9792,-2.9792,-2.9792,-2.9792,-2.9792,-2.9792,-2.9792,-2.9792,-2.9792,-2.9792,-2.9792,-2.9792,-2.9792,-2.9792,-2.9792,-2.9792,-2.9792,-2.9792,-2.9792,-2.9792,-2.9792,-2.9792,-2.9792,-2.9792,-2.9792,-2.9792,-2.9792,-2.9792,-2.9792,-2.9792,0.0,0.0,0.0,0.0,0.0,-2.8991,-2.8848,-2.8588,-2.815,-2.8527,0.0,0.0,0.0,0.0,0.0,0.0,0.0,-3.1812,0.0,-3.3143,-3.3137,-3.355,-3.3108,-3.1911,-3.2387,-3.1974,-3.0791,-3.0758,-3.0513,-3.0068,-3.1068,-3.1048,-3.0301,-3.0299,-2.9917,-2.9214,-2.8649,-2.8436,-2.8448,-2.8561,-2.8398,-2.821,-2.8291,0.0,-2.8574,0.0,-2.9023,-2.9219,-2.9521,-2.9852,-2.9954,-2.9685,-2.979,-3.0214,-3.111,-3.0663,-3.0787,-3.2382,-3.187,-3.168,-3.2134,-3.1772,-3.1499,-3.1499,-3.1016,0.0,-2.9686,-2.9543,-2.8806,-2.7482,-2.9128,0.0,0.0,0.0,0.0,0.0,-2.9792,-2.9792,-2.9792,-2.9792,-2.9792,-2.9792,-2.9792,-2.9792,-2.9792,-2.9792,-2.9792,-2.9792,-2.9792,-2.9792,-2.9792,-2.9792,-2.9792,-2.9792,-2.9792,-2.9792,-2.9792,-2.9792,-2.9792,-2.9792,-2.9792,-2.9792,-2.9792,-2.9792,-2.9792,-2.9792,-2.9792,-2.9792,-2.9792,-2.9792,-2.9792,-2.9792,-2.9792,-2.9792,-2.9792,-2.9792,0.0,0.0,0.0,-2.9792,0.0,-2.8991,-2.8694,-2.8498,-2.8139,-2.8234,0.0,0.0,0.0,0.0,0.0,0.0,0.0,0.0,0.0,0.0,-3.2193,-3.2456,-3.2013,-3.0788,-3.1588,-3.1307,-3.0162,-3.0157,-2.9933,-2.9545,-3.0129,-3.0227,-2.9921,-3.0163,-2.9841,-2.9126,-2.8561,-2.8247,-2.816,-2.8549,-2.8335,-2.7996,-2.8291,-2.8633,-2.8916,-2.8916,-2.9277,-2.956,-2.957,-2.9852,-2.9715,-2.8994,-2.9084,-2.9241,-2.9211,-2.8661,-2.8467,-2.8887,-2.9475,-2.9758,-2.9768,-3.058,-3.0971,0.0,0.0,-2.9686,-2.8464,-2.7926,-2.6588,-2.4424,0.0,0.0,-2.4882,0.0,-2.87,-2.9792,-2.9792,-2.9792,-2.9792,-2.9792,-2.9792,-2.9792,-2.9792,-2.9792,-2.9792,-2.9792,-2.9792,-2.9792,-2.9792,-2.9792,-2.9792,-2.9792,-2.9792,-2.9792,-2.9792,-2.9792,-2.9792,-2.9792,-2.9792,-2.9792,-2.9792,-2.9792,-2.9792,-2.9792,-2.9792,-2.9792,-2.9792,-2.9792,-2.9792,-2.9792,-2.9792,-2.9792,-2.9792,-2.9792,-2.9792,-2.9792,0.0,0.0,0.0,-2.9792,0.0,-2.8991,-2.9437,-2.9358,-2.8183,-2.8602,0.0,0.0,0.0,0.0,0.0,0.0,0.0,-2.9409,-3.0585,0.0,-3.1216,-3.2161,-3.2018,-3.0791,-3.1334,-3.0997,-2.9813,-2.9821,-3.0147,-3.0705,-2.9781,-3.0121,-3.1093,-3.0203,-2.9779,-2.9729,-2.9151,-2.8586,-2.8109,-2.8109,-2.777,-2.7369,-2.8009,-2.8398,-2.8496,-2.8496,-2.8603,-2.8701,-2.8701,-2.8829,-2.8682,-2.8125,-2.7902,-2.7718,-2.7707,-2.7832,-2.792,0.0,-2.7944,-2.7903,0.0,-2.7882,-2.7826,-2.7826,-2.7385,-2.6815,-2.6129,-2.5989,-2.5302,-2.3984,0.0,0.0,0.0,-2.6866,-2.7209,-2.7557,-2.7557,-2.7557,-2.7637,-2.8359,-2.8597,-2.8688,-2.9456,-2.9792,-2.9792,-2.9792,-2.9792,-2.9792,-2.9792,-2.9792,-2.9792,-2.9792,-2.9792,-2.9792,-2.9792,-2.9792,-2.9792,-2.9792,-2.9792,-2.9792,-2.9792,-2.9792,-2.9792,-2.9792,-2.9792,-2.9792,-2.9792,-2.9792,-2.9792,-2.9792,-2.9792,-2.9792,-2.9792,-2.9792,-2.9792,-2.9792,-2.9792,0.0,-2.9792,0.0,-2.9409,-2.8484,-2.8875,-2.8737,-2.7692,-2.8077,0.0,0.0,0.0,0.0,0.0,0.0,0.0,0.0,-3.0047,0.0,-3.0213,-3.0573,-3.0303,-2.9499,-3.0294,-3.0263,-2.9502,-2.9555,-2.9318,-2.8953,-2.9035,-2.9288,-2.9589,-2.9315,-2.944,-2.9691,-2.8737,-2.8486,-2.8624,-2.8247,-2.7996,-2.7921,-2.6758,-2.7036,-2.7257,-2.7698,-2.7812,-2.7812,-2.7812,-2.7937,-2.7849,-2.7461,-2.7127,-2.6898,-2.7031,-2.7119,0.0,-2.7402,-2.7031,-2.6777,-2.6777,-2.6377,-2.6143,-2.6143,-2.5723,-2.5352,-2.5078,-2.4912,0.0,-2.3789,-2.4664,-2.5511,-2.633,-2.6023,-2.6058,-2.6483,-2.6483,-2.6483,-2.6565,-2.7602,-2.8096,-2.8176,-2.9365,-2.9792,-2.9792,-2.9792,-2.9792,-2.9792,-2.9792,-2.9792,-2.9792,-2.9792,-2.9792,-2.9792,-2.9792,-2.9792,-2.9792,-2.9792,-2.9792,-2.9792,-2.9792,-2.9792,-2.9792,-2.9792,-2.9792,-2.9792,-2.9792,-2.9792,-2.9792,-2.9792,-2.9792,-2.9792,-2.9792,-2.9792,-2.9792,-2.9792,-2.9792,-2.9677,-2.9512,0.0,-2.9232,0.0,0.0,0.0,0.0,-2.8358,-2.8475,0.0,0.0,0.0,0.0,0.0,0.0,-2.9474,-2.9664,0.0,-2.9792,-2.9792,-2.9512,-2.8876,-2.9481,-2.9558,-2.9207,-2.9218,-2.8936,-2.8443,-2.8508,-2.8698,-2.8875,-2.8875,-2.9099,-2.9377,-2.8461,-2.831,-2.8549,-2.7996,-2.7795,-2.7871,-2.4497,-2.495,-2.5402,0.0,-2.691,0.0,-2.7021,-2.7143,-2.7225,-2.6934,-2.6633,-2.6483,-2.6826,-2.6484,-2.6406,-2.6807,0.0,0.0,0.0,-2.5918,-2.5674,-2.5644,-2.5244,-2.501,-2.498,-2.458,-2.417,-2.374,-2.334,-2.3637,-2.4702,-2.4702,-2.521,-2.6224,-2.6224,-2.6224,-2.6307,-2.7441,-2.7844,-2.7936,-2.9118,-2.9546,-2.9546,-2.9624,-2.9702,-2.9702,-2.9792,-2.9792,-2.9792,-2.9792,-2.9792,-2.9792,-2.9792,-2.9792,-2.9792,-2.9792,-2.9792,-2.9792,-2.9792,-2.9792,-2.9792,-2.9792,-2.9754,-2.9741,-2.9779,-2.9779,-2.9767,-2.9792,-2.9792,-2.9792,-2.9792,-2.9792,-2.9792,-2.9792,-2.9792,-2.9549,-2.8991,-2.8981,-2.8919,0.0,0.0,0.0,-2.9705,-2.9245,-2.8687,0.0,0.0,0.0,0.0,0.0,-2.9537,-2.8991,-2.9524,-2.9792,-2.9792,-2.9792,-2.9524,-2.8991,-2.8991,-2.8991,-2.8991,-2.8991,-2.8901,-2.8839,-2.84,-2.8447,-2.8848,-2.8822,-2.8822,-2.8812,-2.826,-2.8047,-2.7984,-2.7469,-2.7306,-2.7347,0.0,0.0,-2.5072,-2.5402,-2.6368,-2.7031,-2.7284,-2.6608,-2.6039,-2.5976,-2.5217,-2.4756,-2.4954,-2.4941,-2.4922,-2.5019,-2.5557,-2.5752,-2.54,-2.5283,-2.5078,-2.4746,-2.4629,-2.4424,-2.4102,-2.3994,-2.373,-2.3291,-2.3193,-2.3222,-2.3464,-2.3464,-2.3637,-2.3887,-2.3887,-2.3887,-2.3973,-2.5126,-2.5619,-2.5703,-2.6801,-2.7302,-2.7383,-2.8187,-2.8518,-2.8609,-2.9456,-2.9792,-2.9792,-2.9792,-2.9792,-2.9792,-2.9792,-2.9792,-2.9792,-2.9792,-2.9792,-2.9792,-2.9792,-2.9792,-2.9792,-2.9792,-2.9479,-2.9227,-2.9679,-2.9409,-2.9257,-2.9677,-2.9792,-2.9792,-2.9792,-2.9792,-2.9792,-2.9792,-2.9792,-2.9549,-2.8991,-2.9318,-2.9235,0.0,-2.9043,-2.9454,-2.9105,-2.8991,-2.9046,0.0,0.0,0.0,0.0,-2.9651,-2.9767,-2.9549,-2.9767,-2.9792,-2.9792,-2.9792,-2.9767,-2.9549,-2.9549,-2.9549,-2.9549,-2.9549,-2.9372,-2.8876,-2.8744,-2.8573,-2.8267,-2.8274,-2.8283,-2.8247,-2.7695,-2.7482,-2.7457,-2.7331,-2.7028,-2.6779,-2.042,-2.1921,-2.3173,-2.3791,-2.5007,-2.5947,-2.6221,-2.5625,-2.5035,-2.4927,-2.4533,-2.4198,-2.4341,-2.4414,-2.4414,-2.4414,-2.4853,-2.5029,-2.4785,-2.4775,-2.4668,-2.4424,-2.4228,-2.4023,-2.3799,-2.3594,-2.3379,-2.3135,-2.3135,-2.3135,-2.3135,-2.3135,-2.3135,-2.3135,-2.3135,-2.3135,-2.3135,-2.4296,-2.4787,-2.4957,-2.6543,-2.7197,-2.7371,-2.8438,-2.8858,-2.8937,-2.9611,-2.9792,-2.9792,-2.9792,-2.9792,-2.9792,-2.9792,-2.9792,-2.9792,-2.9792,-2.9792,-2.9792,-2.9792,-2.9792,-2.9792,-2.9792,-2.9515,-2.9416,-2.9707,-2.9554,-2.9397,-2.9767,-2.9792,-2.9792,-2.9792,-2.9792,-2.9677,-2.9409,-2.9639,-2.9512,-2.8635,-2.9006,-2.9157,-2.8571,-2.9026,-2.9384,-2.9282,-2.9282,-2.9372,-2.9384,-2.9312,0.0,-2.9359,-2.9651,-2.9792,-2.9792,-2.9792,-2.9792,-2.9792,-2.9792,-2.9792,-2.9792,-2.9792,-2.9792,-2.9792,-2.9792,-2.9639,-2.9309,-2.8725,-2.84,-2.8049,-2.7831,-2.7695,-2.7708,-2.7394,-2.7042,-2.6588,-2.6528,-2.6029,-2.5523,-1.8091,-1.9384,-2.077,-2.2028,-2.3271,-2.4249,-2.4789,-2.4506,-2.4205,-2.3944,-2.4035,-2.4219,-2.4219,-2.4219,-2.4219,-2.4219,-2.4219,-2.4248,-2.4316,-2.4316,-2.4287,-2.4228,-2.3887,-2.3691,-2.3691,-2.333,-2.3135,-2.3135,-2.3135,-2.3135,-2.3135,-2.3135,-2.3135,-2.3135,-2.3135,-2.3135,-2.3135,-2.4125,-2.4542,-2.4713,-2.6603,-2.7348,-2.7429,-2.8609,-2.904,-2.9118,-2.9456,-2.9534,-2.9534,-2.9714,-2.9792,-2.9792,-2.9792,-2.9792,-2.9792,-2.9792,-2.9792,-2.9792,-2.9792,-2.9792,-2.9779,-2.9679,-2.9591,-2.9555,-2.9545,-2.9567,-2.9539,-2.9639,-2.9767,-2.9792,-2.9792,-2.9792,-2.9651,-2.913,-2.949,-2.9415,-2.8334,0.0,-2.9008,-2.8907,-2.8991,-2.9257,-2.9767,-2.9792,-2.9549,-2.9105,-2.9524,-2.9549,-2.9028,-2.9524,-2.9792,-2.9792,-2.9792,-2.9792,-2.9792,-2.9792,-2.9792,-2.9792,-2.9792,-2.9792,-2.9792,-2.9792,-2.9767,-2.9576,-2.8533,-2.8066,-2.7971,-2.7396,-2.7183,-2.7168,-2.7256,-2.6611,-2.5658,-2.5834,-2.5113,-2.415,-1.6626,-1.7884,-1.9416,-2.0674,-2.202,-2.328,-2.4331,-2.4121,-2.3757,-2.329,-2.3318,-2.334,-2.334,-2.334,-2.334,-2.334,-2.334,-2.3496,-2.3867,-2.3887,-2.3721,-2.335,-2.3271,-2.3242,-2.3242,-2.3174,-2.3135,-2.3135,-2.3135,-2.3135,-2.3135,-2.3135,-2.3135,-2.3135,-2.3135,-2.3135,-2.3135,-2.3309,-2.3387,-2.3387,-2.3714,-2.3887,-2.3963,-2.5126,-2.5619,-2.5786,-2.7683,-2.8347,-2.8505,-2.9456,-2.9792,-2.9792,-2.9792,-2.9792,-2.9792,-2.9792,-2.9792,-2.9792,-2.9792,-2.9792,-2.9679,-2.9189,-2.8712,-2.8386,-2.8338,-2.8363,-2.8512,-2.8981,-2.9422,-2.9792,-2.9792,-2.9792,-2.9779,-2.9664,-2.9727,-2.9529,-2.887,0.0,-2.9504,-2.8966,-2.9372,-2.9677,-2.9792,-2.9792,-2.9779,-2.9664,-2.9767,-2.9779,-2.9664,-2.9767,-2.9792,-2.9792,-2.9792,-2.9792,-2.9792,-2.9792,-2.9792,-2.9792,-2.9792,-2.9792,-2.9792,-2.9792,-2.9524,-2.8991,-2.8381,-2.7827,-2.7383,-2.6878,-2.6609,-2.6697,-2.7105,-2.6402,-2.5278,-2.6586,-2.553,-2.3572,-1.6032,-1.7184,-1.8506,-1.9805,-2.1015,-2.2327,-2.3541,-2.3564,-2.3329,-2.3104,-2.3145,-2.3135,-2.3135,-2.3135,-2.3135,-2.3135,-2.3135,-2.3223,-2.3428,-2.3437,-2.335,-2.3144,-2.3135,-2.3135,-2.3135,-2.3135,-2.3135,-2.3135,-2.3135,-2.3135,-2.3135,-2.3135,-2.3018,-2.2812,-2.3037,-2.2891,-2.248,-2.2705,-2.2676,-2.2565,-2.3358,-2.3693,-2.3798,-2.5209,-2.5724,-2.588,-2.6871,-2.7209,-2.729,-2.7879,-2.8051,-2.8084,-2.8348,-2.8419,-2.8525,-2.8812,-2.9315,-2.9792,-2.9792,-2.9792,-2.9654,-2.9076,-2.8976,-2.895,-2.8612,-2.851,-2.8659,-2.9287,-2.9372,-2.9397,-2.9767,-2.9792,-2.9664,-2.9384,-2.9579,0.0,-2.8994,-2.9409,-2.9677,-2.9409,-2.9651,-2.9792,-2.9792,-2.9792,-2.9792,-2.9792,-2.9792,-2.9792,-2.9792,-2.9792,-2.9792,-2.9792,-2.9792,-2.9792,-2.9792,-2.9792,-2.9792,-2.9792,-2.9792,-2.9792,-2.9792,-2.9499,-2.9372,-2.9282,-2.813,-2.7656,-2.7649,-2.681,-2.6164,-2.5688,-2.5932,-2.5083,-2.388,-2.4804,-2.4143,-2.3008,-1.5832,-1.6574,-1.7677,-1.8864,-1.9909,-2.1185,-2.2842,-2.3086,-2.3135,-2.3135,-2.3135,-2.3135,-2.3135,-2.3135,-2.3135,-2.3135,-2.3135,-2.3135,-2.3135,-2.3135,-2.3135,-2.3135,-2.3135,-2.3135,-2.3135,-2.3135,-2.3135,-2.3135,-2.3135,-2.3135,-2.3135,-2.3037,-2.2822,-2.2519,-2.2744,-2.249,-2.1904,-2.2227,-2.2178,-2.1997,-2.3298,-2.3795,-2.3919,-2.5099,-2.5561,-2.555,-2.576,-2.5798,-2.5809,-2.6136,-2.6217,-2.6312,-2.6941,-2.7121,-2.728,-2.7915,-2.8725,-2.9402,-2.9402,-2.9402,-2.9264,-2.8687,-2.8875,-2.9038,-2.8459,-2.8435,-2.8682,-2.9277,-2.9148,-2.9118,-2.9664,-2.9792,-2.9651,-2.9155,0.0,0.0,0.0,-2.9524,-2.9792,-2.9792,-2.9792,-2.9792,-2.9792,-2.9792,-2.9792,-2.9792,-2.9792,-2.9792,-2.9792,-2.9792,-2.9792,-2.9792,-2.9792,-2.9792,-2.9792,-2.9792,-2.9792,-2.9792,-2.9792,-2.9792,-2.9779,-2.9282,-2.9363,-2.9694,-2.79,-2.7396,-2.7672,-2.6362,-2.5358,-2.4647,-2.4765,-2.385,-2.2646,-2.3238,-2.2961,-2.2305,-1.5832,-1.5927,-1.6386,-1.7591,-1.821,-1.9579,-2.2678,-2.3105,-2.3135,-2.3135,-2.3135,-2.3135,-2.3135,-2.3135,-2.3135,-2.3135,-2.3135,-2.3135,-2.3135,-2.3135,-2.3135,-2.3135,-2.3135,-2.3135,-2.3135,-2.3135,-2.3135,-2.3135,-2.3135,-2.3135,-2.3135,-2.2744,-2.2539,-2.25,-2.2139,-2.1943,-2.1885,-2.1924,-2.1914,-2.1924,-2.2428,-2.2595,-2.268,-2.2794,-2.2804,-2.2914,-2.3523,-2.3758,-2.3919,-2.496,-2.5284,-2.5417,-2.6358,-2.6649,-2.6812,-2.7804,-2.816,-2.8235,-2.8235,-2.8235,-2.8097,-2.7544,-2.7431,-2.7318,-2.6836,-2.7075,-2.7586,-2.8122,-2.8562,-2.9118,-2.9664,-2.9792,-2.9792,-2.9767,0.0,0.0,-2.9767,-2.9779,-2.9792,-2.9792,-2.9792,-2.9792,-2.9792,-2.9792,-2.9792,-2.9792,-2.9792,-2.9792,-2.9792,-2.9792,-2.9792,-2.9792,-2.9792,-2.9792,-2.9792,-2.9792,-2.9792,-2.9792,-2.9792,-2.9792,-2.9792,-2.9767,-2.9789,-2.9661,-2.7604,-2.6657,-2.6591,-2.453,-2.3672,-2.3644,-2.4168,-2.3415,-2.2248,-2.365,-2.292,-2.1504,-1.5832,-1.5832,-1.6197,-1.7505,-1.8041,-1.9379,-2.2626,-2.3053,-2.3124,-2.3067,-2.3135,-2.3135,-2.3135,-2.3135,-2.3135,-2.3135,-2.3135,-2.3135,-2.3135,-2.3135,-2.3135,-2.3135,-2.2891,-2.2754,-2.2754,-2.249,-2.2363,-2.2363,-2.2363,-2.2363,-2.2353,-2.2197,-2.1973,-2.1719,-2.1836,-2.1582,-2.1084,-2.1367,-2.1318,-2.1103,-2.1543,-2.1719,-2.1748,-2.2021,-2.2129,-2.2183,-2.2409,-2.2503,-2.2584,-2.2981,-2.3143,-2.3241,-2.3928,-2.4599,-2.5384,-2.6729,-2.6643,-2.6333,-2.6939,-2.7582,-2.7971,-2.7419,-2.7544,-2.7645,-2.7092,-2.713,-2.749,-2.8028,-2.8275,-2.8597,-2.917,-2.9537,-2.9693,-2.9264,0.0,-2.9664,-2.9269,-2.9537,-2.9792,-2.9792,-2.9792,-2.9792,-2.9792,-2.9792,-2.9792,-2.9792,-2.9792,-2.9792,-2.9792,-2.9102,-2.8462,-2.781,-2.7746,-2.8382,-2.9792,-2.9792,-2.9792,-2.9792,-2.9792,-2.9792,-2.9779,-2.8737,-2.842,-2.8586,-2.6423,-2.5654,-2.5837,-2.4535,-2.3612,-2.2982,-2.294,-2.2475,-2.195,-2.2251,-2.2334,-2.2412,-1.5832,-1.5832,-1.6109,-1.6943,-1.7304,-1.8434,-2.0975,-2.1726,-2.2128,-2.2511,-2.2492,-2.2629,-2.2862,-2.2939,-2.2939,-2.2939,-2.2822,-2.2803,-2.293,-2.2822,-2.2861,-2.3125,-2.2861,-2.2646,-2.2519,-2.2227,-2.2021,-2.1885,-2.1885,-2.1885,-2.1885,-2.1748,-2.1523,-2.124,-2.1396,-2.1133,-2.0586,-2.0889,-2.084,-2.0605,-2.1055,-2.123,-2.1269,-2.1562,-2.168,-2.166,-2.1523,-2.1475,-2.1475,-2.1475,-2.1475,-2.1648,-2.2237,-2.3188,-2.4186,-2.5242,-2.5063,-2.4707,-2.5358,-2.6104,-2.6724,-2.6964,-2.7306,-2.7494,-2.7105,-2.6806,-2.6813,-2.7661,-2.7728,-2.7816,-2.8276,-2.9018,-2.9265,-2.8495,-2.9025,-2.9377,-2.8954,-2.9409,-2.9649,-2.9337,-2.9559,-2.9546,-2.8803,-2.904,-2.9118,-2.8791,-2.8791,-2.8791,-2.8791,-2.8045,-2.7261,-2.6523,-2.6519,-2.7228,-2.8742,-2.9118,-2.9422,-2.9792,-2.9409,-2.9269,-2.9245,-2.7729,-2.7266,-2.7475,-2.5502,-2.4848,-2.5093,-2.3773,-2.2966,-2.2412,-2.1799,-2.1628,-2.1641,-2.1348,-2.1699,-2.2285,-1.5825,-1.5832,-1.5832,-1.5832,-1.5779,-1.6185,-1.7468,-1.868,-1.9935,-2.1105,-2.1284,-2.1599,-2.2378,-2.251,-2.251,-2.251,-2.2129,-2.206,-2.248,-2.2119,-2.2256,-2.3096,-2.3125,-2.293,-2.251,-2.25,-2.2295,-2.1875,-2.1875,-2.1875,-2.1865,-2.1426,-2.123,-2.1211,-2.0762,-2.0566,-2.0566,-2.0566,-2.0566,-2.0605,-2.1045,-2.123,-2.123,-2.123,-2.123,-2.1172,-2.0723,-2.0566,-2.0566,-2.0566,-2.0566,-2.0789,-2.1735,-2.2702,-2.3514,-2.3514,-2.3514,-2.3514,-2.3514,-2.3514,-2.3952,-2.5943,-2.6452,-2.6465,-2.6465,-2.5734,-2.5444,-2.7014,-2.6921,-2.6761,-2.7217,-2.8154,-2.8505,-2.7482,-2.8134,-2.8885,-2.8855,-2.9397,-2.9324,-2.8194,-2.9113,-2.8882,-2.673,-2.7441,-2.7683,-2.6554,-2.6483,-2.6483,-2.6483,-2.6483,-2.6512,-2.6506,-2.644,-2.6495,-2.6519,-2.7545,-2.8635,-2.9779,-2.8623,-2.8106,-2.8028,-2.7014,-2.6529,-2.641,-2.4831,-2.421,-2.4032,-2.202,-2.1477,-2.1798,-2.0977,-2.084,-2.123,-2.123,-2.0947,-2.0703,-1.5524,-1.5691,-1.5832,-1.5832,-1.5785,-1.5839,-1.5895,-1.8096,-1.9927,-2.0431,-2.1183,-2.1767,-2.208,-2.207,-2.207,-2.207,-2.1963,-2.1934,-2.206,-2.1953,-2.2002,-2.2246,-2.1963,-2.1748,-2.1621,-2.1309,-2.1084,-2.0957,-2.0957,-2.0957,-2.0957,-2.082,-2.0762,-2.0762,-2.0625,-2.0566,-2.0566,-2.0566,-2.0566,-2.0576,-2.0713,-2.0762,-2.0762,-2.0762,-2.0762,-2.0752,-2.0615,-2.0566,-2.0566,-2.0566,-2.0566,-2.0789,-2.1735,-2.1745,-2.1745,-2.3073,-2.2999,-2.2627,-2.3294,-2.3514,-2.3661,-2.4253,-2.4921,-2.5441,-2.5441,-2.5734,-2.6213,-2.6666,-2.6377,-2.6092,-2.6249,-2.6311,-2.6025,-2.531,-2.5786,-2.6247,-2.6201,-2.6662,-2.6978,-2.6967,-2.7277,-2.7221,-2.6565,-2.6801,-2.6883,-2.6554,-2.6483,-2.6141,-2.5378,-2.5294,-2.4914,-2.4161,-2.409,-2.4512,-2.5305,-2.6415,-2.7127,-2.749,-2.7127,-2.6978,-2.6981,-2.5858,-2.5338,-2.5197,-2.3974,-2.3398,-2.3329,-2.2133,-2.1801,-2.1798,-2.0977,-2.084,-2.1201,-2.0879,-2.1074,-2.1435,-1.5224,-1.5364,-1.5491,-1.5584,-1.5591,-1.5483,-1.5271,-1.6691,-1.8121,-1.8784,-1.9791,-2.0606,-2.0955,-2.1366,-2.1621,-2.1621,-2.1621,-2.1621,-2.1621,-2.1465,-2.1445,-2.1621,-2.1201,-2.1055,-2.123,-2.0967,-2.0742,-2.0566,-2.0566,-2.0566,-2.0566,-2.0566,-2.0566,-2.0566,-2.0566,-2.0566,-2.0566,-2.0566,-2.0566,-2.0566,-2.0566,-2.0566,-2.0566,-2.0566,-2.0566,-2.0566,-2.0566,-2.0566,-2.0566,-2.0566,-2.0566,-2.0712,-2.1298,-2.1078,-2.0867,-2.2048,-2.1897,-2.1593,-2.2188,-2.2339,-2.2339,-2.2339,-2.3379,-2.442,-2.442,-2.4552,-2.4826,-2.5205,-2.495,-2.4619,-2.4607,-2.4729,-2.4612,-2.3766,-2.4358,-2.4857,-2.4971,-2.5419,-2.5806,-2.5866,-2.6229,-2.6141,-2.5221,-2.5557,-2.5641,-2.5231,-2.5147,-2.4882,-2.4125,-2.4125,-2.38,-2.3135,-2.3135,-2.3398,-2.4102,-2.4828,-2.5632,-2.6493,-2.6021,-2.583,-2.5791,-2.4682,-2.4102,-2.4092,-2.3388,-2.3135,-2.3008,-2.2254,-2.1987,-2.2019,-2.1006,-2.084,-2.1182,-2.0732,-2.0898,-2.1289,-1.4923,-1.4943,-1.506,-1.5163,-1.5163,-1.5156,-1.5122,-1.491,-1.5315,-1.6505,-1.7628,-1.8617,-1.9279,-2.0339,-2.1012,-2.1012,-2.1092,-2.1172,-2.1172,-2.0791,-2.0752,-2.1152,-2.0781,-2.0752,-2.1172,-2.1172,-2.0977,-2.0566,-2.0566,-2.0566,-2.0566,-2.0566,-2.0566,-2.0566,-2.0566,-2.0566,-2.0566,-2.0566,-2.0566,-2.0566,-2.0566,-2.0566,-2.0566,-2.0566,-2.0566,-2.0566,-2.0566,-2.0566,-2.0566,-2.0566,-2.0566,-2.0566,-2.0566,-2.0566,-2.0566,-2.0566,-2.0566,-2.0566,-2.0566,-2.0566,-2.0566,-2.0566,-2.1897,-2.3294,-2.3368,-2.2702,-2.2403,-2.3294,-2.3134,-2.2755,-2.2667,-2.3351,-2.3656,-2.2667,-2.3394,-2.4182,-2.4637,-2.5158,-2.524,-2.4682,-2.5525,-2.54,-2.3299,-2.4049,-2.4211,-2.3222,-2.3135,-2.3135,-2.3135,-2.3135,-2.3135,-2.3135,-2.3135,-2.3135,-2.3135,-2.3135,-2.4102,-2.6171,-2.5165,-2.4682,-2.4584,-2.3612,-2.3135,-2.3135,-2.3038,-2.3038,-2.3018,-2.2127,-2.2026,-2.2252,-2.1073,-2.081,-2.1123,-2.0713,-2.0566,-2.0566,-1.4616,-1.4803,-1.5053,-1.506,-1.506,-1.4883,-1.4447,-1.5179,-1.5855,-1.5943,-1.6905,-1.7622,-1.7792,-1.8763,-1.95,-1.95,-2.0222,-2.0713,-2.0713,-2.0625,-2.0605,-2.0703,-2.0615,-2.0605,-2.0713,-2.0713,-2.0664,-2.0566,-2.0566,-2.0566,-2.0566,-2.0566,-2.0566,-2.0566,-2.0566,-2.0566,-2.0566,-2.0566,-2.0566,-2.0566,-2.0566,-2.0566,-2.0566,-2.0566,-2.0566,-2.0566,-2.0566,-2.0566,-2.0566,-2.0566,-2.0566,-2.0566,-2.0566,-2.0566,-2.0566,-2.0566,-2.0566,-2.0566,-2.0566,-2.0566,-2.0566,-2.0566,-2.0934,-2.1451,-2.2178,-2.2776,-2.322,-2.3441,-2.2788,-2.2185,-2.2185,-2.1747,-2.1306,-2.1083,-2.1529,-2.1869,-2.2049,-2.2746,-2.3197,-2.3043,-2.3513,-2.3637,-2.3135,-2.3299,-2.3387,-2.3135,-2.3135,-2.3135,-2.3135,-2.3135,-2.3135,-2.3135,-2.3135,-2.3135,-2.3135,-2.3135,-2.3378,-2.3847,-2.3612,-2.3495,-2.3495,-2.3164,-2.3135,-2.3047,-2.2795,-2.2669,-2.2572,-2.1674,-2.136,-2.1396,-2.0858,-2.0625,-2.0703,-2.0596,-2.0566,-2.0566,-1.4315,-1.4428,-1.4575,-1.4609,-1.4529,-1.4428,-1.4124,-1.4709,-1.5078,-1.4999,-1.5733,-1.6517,-1.699,-1.8031,-1.9063,-1.9668,-2.0245,-2.0478,-2.0273,-2.0254,-2.0166,-1.9971,-2.0146,-2.0166,-1.9961,-2.0361,-2.0566,-2.0566,-2.0566,-2.0459,-2.0254,-2.0469,-2.0342,-1.9971,-2.0166,-2.0146,-1.9951,-1.9951,-2.0068,-2.0254,-2.0254,-2.0381,-2.0566,-2.0566,-2.0566,-2.0566,-2.0566,-2.0566,-2.0566,-2.0566,-2.0566,-2.0566,-2.0566,-2.0566,-2.0566,-2.0566,-2.0566,-2.0566,-2.0566,-2.041,-2.0303,-2.0508,-2.041,-2.0456,-2.1181,-2.1745,-2.2113,-2.2113,-2.1669,-2.1298,-2.1298,-2.0934,-2.0635,-2.085,-2.1084,-2.1377,-2.1787,-2.2227,-2.2588,-2.2783,-2.3008,-2.3135,-2.3135,-2.3135,-2.3135,-2.3135,-2.3135,-2.3135,-2.3135,-2.3135,-2.3135,-2.3135,-2.3135,-2.3135,-2.3135,-2.3135,-2.3135,-2.3135,-2.3135,-2.3135,-2.3135,-2.3135,-2.3135,-2.3047,-2.2911,-2.2676,-2.2466,-2.1802,-2.1377,-2.1171,-2.0761,-2.0566,-2.0566,-2.0566,-2.0566,-2.0566,-1.3941,-1.3933,-1.4022,-1.3985,-1.4015,-1.4036,-1.3991,-1.4072,-1.4085,-1.3948,-1.4561,-1.5275,-1.5992,-1.7157,-1.8466,-1.9995,-2.0111,-2.0033,-1.9834,-1.9805,-1.9648,-1.9307,-1.9619,-1.9648,-1.9297,-1.998,-2.0381,-2.0449,-2.0527,-2.0381,-2.0029,-2.0391,-2.0146,-1.9404,-1.9756,-1.9678,-1.9287,-1.9287,-1.9482,-1.9805,-1.9805,-2.0019,-2.0342,-2.0342,-2.0342,-2.0361,-2.043,-2.0498,-2.0557,-2.0478,-2.0449,-2.0439,-2.0371,-2.04,-2.0449,-2.0449,-2.0508,-2.0566,-2.0566,-2.0303,-2.0107,-2.0478,-2.0293,-2.0117,-2.0478,-2.0566,-2.0566,-2.0566,-2.0566,-2.0566,-2.0566,-2.0566,-2.0713,-2.1162,-2.1299,-2.1592,-2.2305,-2.2529,-2.2725,-2.2998,-2.3096,-2.3135,-2.3135,-2.3135,-2.3135,-2.3135,-2.3135,-2.3135,-2.3135,-2.3135,-2.3135,-2.3135,-2.3135,-2.3135,-2.3135,-2.3135,-2.3135,-2.3135,-2.3135,-2.3135,-2.3135,-2.3135,-2.3135,-2.3135,-2.3038,-2.279,-2.2477,-2.206,-2.1693,-2.1292,-2.083,-2.0703,-2.0674,-2.0596,-2.0566,-2.0566,-1.3327,-1.348,-1.3552,-1.3327,-1.3746,-1.3919,-1.3413,-1.3736,-1.3899,-1.3367,-1.3588,-1.3777,-1.3677,-1.4643,-1.6106,-1.8088,-1.8247,-1.8602,-1.9302,-1.9375,-1.9346,-1.9287,-1.9346,-1.9346,-1.9287,-1.9404,-1.9639,-2.0,-2.0381,-2.0537,-2.0478,-2.0537,-2.0303,-1.9834,-1.9893,-1.9678,-1.9287,-1.9287,-1.9316,-1.9375,-1.9375,-1.9404,-1.9463,-1.9463,-1.9463,-1.9512,-1.9873,-2.0244,-2.0508,-2.0127,-2.0,-1.9941,-1.958,-1.9707,-2.0,-2.0,-2.0273,-2.0566,-2.0566,-2.0518,-2.0498,-2.0547,-2.0518,-2.0498,-2.0557,-2.0566,-2.0566,-2.0566,-2.0566,-2.0566,-2.0566,-2.0566,-2.0713,-2.1162,-2.1553,-2.1836,-2.1953,-2.2598,-2.2939,-2.2637,-2.292,-2.3135,-2.3135,-2.3135,-2.3135,-2.3135,-2.3135,-2.3135,-2.3135,-2.3135,-2.3135,-2.3135,-2.3135,-2.3135,-2.3135,-2.3135,-2.3135,-2.3135,-2.3135,-2.3135,-2.3135,-2.3135,-2.3135,-2.3047,-2.2698,-2.2553,-2.2456,-2.205,-2.1859,-2.1742,-2.1283,-2.1115,-2.1094,-2.0713,-2.0566,-2.0566,-1.3213,-1.325,-1.3274,-1.3186,-1.3151,-1.3006,-1.2739,-1.2955,-1.3093,-1.3227,-1.3173,-1.3321,-1.3726,-1.4752,-1.5788,-1.6983,-1.7076,-1.7129,-1.736,-1.7351,-1.7479,-1.7769,-1.7984,-1.8299,-1.8584,-1.9043,-1.9258,-1.9199,-1.9639,-1.9727,-1.9492,-1.9736,-1.9492,-1.8857,-1.9092,-1.8965,-1.8574,-1.8574,-1.8711,-1.8926,-1.8926,-1.9072,-1.9287,-1.9287,-1.9287,-1.9307,-1.9502,-1.9687,-1.9824,-1.9629,-1.9561,-1.9531,-1.9346,-1.958,-1.9912,-1.9912,-2.0225,-2.0566,-2.0566,-2.0391,-2.0254,-2.0508,-2.0381,-2.0264,-2.0508,-2.0566,-2.0566,-2.0566,-2.0566,-2.0566,-2.0566,-2.0566,-2.0791,-2.1484,-2.1758,-2.2051,-2.2519,-2.291,-2.3066,-2.2881,-2.3027,-2.3135,-2.3135,-2.3135,-2.3135,-2.3135,-2.3135,-2.3135,-2.3135,-2.3135,-2.3135,-2.3135,-2.3135,-2.3135,-2.3135,-2.3135,-2.3135,-2.3135,-2.3135,-2.3135,-2.3135,-2.3135,-2.3135,-2.3047,-2.2921,-2.2698,-2.2514,-2.2314,-2.1916,-2.1495,-2.1298,-2.1179,-2.124,-2.1279,-2.1143,-2.0937]},{"header":{"parameterUnit":"m.s-1","parameterCategory":1,"la1":30.6,"la2":28.766,"lo1":-90.7593,"lo2":-88.6598,"dy":0.0162,"dx":0.0183,"nx":116,"ny":114,"refTime":"2023-07-19T12:00:00:Z","depth":0,"parameterNumber":3,"parameterNumberName":"V-component_of_WINDS"},"data":[0.0,0.0,0.0,0.0,0.0,0.0,0.0,0.0,0.0,0.0,0.0,0.0,0.0,0.0,0.0,0.0,0.0,0.0,0.0,0.0,0.0,0.0,0.0,0.0,0.0,0.0,0.0,0.0,0.0,0.0,0.0,0.0,0.0,0.0,0.0,0.0,0.0,0.0,0.0,0.0,0.0,0.0,0.0,0.0,0.0,0.0,0.0,0.0,0.0,0.0,0.0,0.0,0.0,0.0,0.0,0.0,0.0,0.0,0.0,0.0,0.0,0.0,0.0,0.0,0.0,0.0,0.0,0.0,0.0,0.0,0.0,0.0,0.0,0.0,0.0,0.0,0.0,0.0,0.0,0.0,0.0,0.0,0.0,0.0,0.0,0.0,0.0,0.0,0.0,0.0,0.0,0.0,0.0,0.0,0.0,0.0,0.0,0.0,0.0,0.0,0.0,0.0,0.0,0.0,0.0,0.0,0.0,0.0,0.0,0.0,0.0,0.0,0.0,0.0,0.0,0.0,0.0,0.0,0.0,0.0,0.0,0.0,0.0,0.0,0.0,0.0,0.0,0.0,0.0,0.0,0.0,0.0,0.0,0.0,0.0,0.0,0.0,0.0,0.0,0.0,0.0,0.0,0.0,0.0,0.0,0.0,0.0,0.0,0.0,0.0,0.0,0.0,0.0,0.0,0.0,0.0,0.0,0.0,0.0,0.0,0.0,0.0,0.0,0.0,0.0,0.0,0.0,0.0,0.0,0.0,0.0,0.0,0.0,0.0,0.0,0.0,0.0,0.0,0.0,0.0,0.0,0.0,0.0,0.0,0.0,0.0,0.0,0.0,0.0,0.0,0.0,0.0,0.0,0.0,0.0,0.0,0.0,0.0,0.0,0.0,0.0,0.0,0.0,0.0,0.0,0.0,0.0,0.0,0.0,0.0,0.0,0.0,0.0,0.0,0.0,0.0,0.0,0.0,0.0,0.0,0.0,0.0,0.0,0.0,0.0,0.0,0.0,0.0,0.0,0.0,0.0,0.0,0.0,0.0,0.0,0.0,0.0,0.0,0.0,0.0,0.0,0.0,0.0,0.0,0.0,0.0,0.0,0.0,0.0,0.0,0.0,0.0,0.0,0.0,0.0,0.0,0.0,0.0,0.0,0.0,0.0,0.0,0.0,0.0,0.0,0.0,0.0,0.0,0.0,0.0,0.0,0.0,0.0,0.0,0.0,0.0,0.0,0.0,0.0,0.0,0.0,0.0,0.0,0.0,0.0,0.0,0.0,0.0,0.0,0.0,0.0,0.0,0.0,0.0,0.0,0.0,0.0,0.0,0.0,0.0,0.0,0.0,0.0,0.0,0.0,0.0,0.0,0.0,0.0,0.0,0.0,0.0,0.0,0.0,0.0,0.0,0.0,0.0,0.0,0.0,0.0,0.0,0.0,0.0,0.0,0.0,0.0,0.0,0.0,0.0,0.0,0.0,0.0,0.0,0.0,0.0,0.0,0.0,0.0,0.0,0.0,0.0,0.0,0.0,0.0,0.0,0.0,0.0,0.0,0.0,0.0,0.0,0.0,0.0,0.0,0.0,0.0,0.0,0.0,0.0,0.0,0.0,0.0,0.0,0.0,0.0,0.0,0.0,0.0,0.0,0.0,0.0,0.0,0.0,0.0,0.0,0.0,0.0,0.0,0.0,0.0,0.0,0.0,0.0,0.0,0.0,0.0,0.0,0.0,0.0,0.0,0.0,0.0,0.0,0.0,0.0,0.0,0.0,0.0,0.0,0.0,0.0,0.0,0.0,0.0,0.0,0.0,0.0,0.0,0.0,0.0,0.0,0.0,0.0,0.0,0.0,0.0,0.0,0.0,0.0,0.0,0.0,0.0,0.0,0.0,0.0,0.0,0.0,0.0,0.0,0.0,0.0,0.0,0.0,0.0,0.0,0.0,0.0,0.0,0.0,0.0,0.0,0.0,0.0,0.0,0.0,0.0,0.0,0.0,0.0,0.0,0.0,0.0,0.0,0.0,0.0,0.0,0.0,0.0,0.0,0.0,0.0,0.0,0.0,0.0,0.0,0.0,0.0,0.0,0.0,0.0,0.0,0.0,0.0,0.0,0.0,0.0,0.0,0.0,0.0,0.0,0.0,0.0,0.0,0.0,0.0,0.0,0.0,0.0,0.0,0.0,0.0,0.0,0.0,0.0,0.0,0.0,0.0,0.0,0.0,0.0,0.0,0.0,0.0,0.0,0.0,0.0,0.0,0.0,0.0,0.0,0.0,0.0,0.0,0.0,0.0,0.0,0.0,0.0,0.0,0.0,0.0,0.0,0.0,0.0,0.0,0.0,0.0,0.0,0.0,0.0,0.0,0.0,0.0,0.0,0.0,0.0,0.0,0.0,0.0,0.0,0.0,0.0,0.0,0.0,0.0,0.0,0.0,0.0,0.0,0.0,0.0,0.0,0.0,0.0,0.0,0.0,0.0,0.0,0.0,0.0,0.0,0.0,0.0,0.0,0.0,0.0,0.0,0.0,0.0,0.0,0.0,0.0,0.0,0.0,0.0,0.0,0.0,0.0,0.0,0.0,0.0,0.0,0.0,0.0,0.0,0.0,0.0,0.0,0.0,0.0,0.0,0.0,0.0,0.0,0.0,0.0,0.0,0.0,0.0,0.0,0.0,0.0,0.0,0.0,0.0,0.0,0.0,0.0,0.0,0.0,0.0,0.0,0.0,0.0,0.0,0.0,0.0,0.0,0.0,0.0,0.0,0.0,0.0,0.0,0.0,0.0,0.0,0.0,0.0,0.0,0.0,0.0,0.0,0.0,0.0,0.0,0.0,0.0,0.0,0.0,0.0,0.0,0.0,0.0,0.0,0.0,0.0,0.0,0.0,0.0,0.0,0.0,0.0,0.0,0.0,0.0,0.0,0.0,0.0,0.0,0.0,0.0,0.0,0.0,0.0,0.0,0.0,0.0,0.0,0.0,0.0,0.0,0.0,0.0,0.0,0.0,0.0,0.0,0.0,0.0,0.0,0.0,0.0,0.0,0.0,0.0,0.0,0.0,0.0,0.0,0.0,0.0,0.0,0.0,0.0,0.0,0.0,0.0,0.0,0.0,0.0,0.0,0.0,0.0,0.0,0.0,0.0,0.0,0.0,0.0,0.0,0.0,0.0,0.0,0.0,0.0,0.0,0.0,0.0,0.0,0.0,0.0,0.0,0.0,0.0,0.0,0.0,0.0,0.0,0.0,0.0,0.0,0.0,0.0,0.0,0.0,0.0,0.0,0.0,0.0,0.0,0.0,0.0,0.0,0.0,0.0,0.0,0.0,0.0,0.0,0.0,0.0,0.0,0.0,0.0,0.0,0.0,0.0,0.0,0.0,0.0,0.0,0.0,0.0,0.0,0.0,0.0,0.0,0.0,0.0,0.0,0.0,0.0,0.0,0.0,0.0,0.0,0.0,0.0,0.0,0.0,0.0,0.0,0.0,0.0,0.0,0.0,0.0,0.0,0.0,0.0,0.0,0.0,0.0,0.0,0.0,0.0,0.0,0.0,0.0,0.0,0.0,0.0,0.0,0.0,0.0,0.0,0.0,0.0,0.0,0.0,0.0,0.0,0.0,0.0,0.0,0.0,0.0,0.0,0.0,0.0,0.0,0.0,0.0,0.0,0.0,0.0,0.0,0.0,0.0,0.0,0.0,0.0,0.0,0.0,0.0,0.0,0.0,0.0,0.0,0.0,0.0,0.0,0.0,0.0,0.0,0.0,0.0,0.0,0.0,0.0,0.0,0.0,0.0,0.0,0.0,0.0,0.0,0.0,0.0,0.0,0.0,0.0,0.0,0.0,0.0,0.0,0.0,0.0,0.0,0.0,0.0,0.0,0.0,0.0,0.0,0.0,0.0,0.0,0.0,0.0,0.0,0.0,0.0,0.0,0.0,0.0,0.0,0.0,0.0,0.0,0.0,0.0,0.0,0.0,0.0,0.0,0.0,0.0,0.0,0.0,0.0,0.0,0.0,0.0,0.0,0.0,0.0,0.0,0.0,0.0,0.0,0.0,0.0,0.0,0.0,0.0,0.0,0.0,0.0,0.0,0.0,0.0,0.0,0.0,0.0,0.0,0.0,0.0,0.0,0.0,0.0,0.0,0.0,0.0,0.0,0.0,0.0,0.0,0.0,0.0,0.0,0.0,0.0,0.0,0.0,0.0,0.0,0.0,0.0,0.0,0.0,0.0,0.0,0.0,0.0,0.0,0.0,0.0,0.0,0.0,0.0,0.0,0.0,0.0,0.0,0.0,0.0,0.0,0.0,0.0,0.0,0.0,0.0,0.0,0.0,0.0,0.0,0.0,0.0,0.0,0.0,0.0,0.0,0.0,0.0,0.0,0.0,0.0,0.0,0.0,0.0,0.0,0.0,0.0,0.0,0.0,0.0,0.0,0.0,0.0,0.0,0.0,0.0,0.0,0.0,0.0,0.0,0.0,0.0,0.0,0.0,0.0,0.0,0.0,0.0,0.0,0.0,0.0,0.0,0.0,0.0,0.0,0.0,0.0,0.0,0.0,0.0,0.0,0.0,0.0,0.0,0.0,0.0,0.0,0.0,0.0,0.0,0.0,0.0,0.0,0.0,0.0,0.0,0.0,0.0,0.0,0.0,0.0,0.0,0.0,0.0,0.0,0.0,0.0,0.0,0.0,0.0,0.0,0.0,0.0,0.0,0.0,0.0,0.0,0.0,0.0,0.0,0.0,0.0,0.0,0.0,0.0,0.0,0.0,0.0,0.0,0.0,0.0,0.0,0.0,0.0,0.0,0.0,0.0,0.0,0.0,0.0,0.0,0.0,0.0,0.0,0.0,0.0,0.0,0.0,0.0,0.0,0.0,0.0,0.0,0.0,0.0,0.0,0.0,0.0,0.0,0.0,0.0,0.0,0.0,0.0,0.0,0.0,0.0,0.0,0.0,0.0,0.0,0.0,0.0,0.0,0.0,0.0,0.0,0.0,0.0,0.0,0.0,0.0,0.0,0.0,0.0,0.0,0.0,0.0,0.0,0.0,0.0,0.0,0.0,0.0,0.0,0.0,0.0,0.0,0.0,0.0,0.0,0.0,0.0,0.0,0.0,0.0,0.0,0.0,0.0,0.0,0.0,0.0,0.0,0.0,0.0,0.0,0.0,0.0,0.0,0.0,0.0,0.0,0.0,0.0,0.0,0.0,0.0,0.0,0.0,0.0,0.0,0.0,0.0,0.0,0.0,0.0,0.0,0.0,0.0,0.0,0.0,0.0,0.0,0.0,0.0,0.0,0.0,0.0,0.0,0.0,0.0,0.0,0.0,0.0,0.0,0.0,0.0,0.0,0.0,0.0,0.0,0.0,0.0,0.0,0.0,0.0,0.0,0.0,0.0,0.0,0.0,0.0,0.0,0.0,0.0,0.0,0.0,0.0,0.0,0.0,0.0,0.0,0.0,0.0,0.0,0.0,0.0,0.0,0.0,0.0,0.0,0.0,0.0,0.0,0.0,0.0,0.0,0.0,0.0,0.0,0.0,0.0,0.0,0.0,0.0,0.0,0.0,0.0,0.0,0.0,0.0,0.0,0.0,0.0,0.0,0.0,0.0,0.0,0.0,0.0,0.0,0.0,0.0,0.0,0.0,0.0,0.0,0.0,0.0,0.0,0.0,0.0,0.0,0.0,0.0,0.0,0.0,0.0,0.0,0.0,0.0,0.0,0.0,0.0,0.0,0.0,0.0,0.0,0.0,0.0,0.0,0.0,0.0,0.0,0.0,0.0,0.0,0.0,0.0,0.0,0.0,0.0,0.0,0.0,0.0,0.0,0.0,0.0,0.0,0.0,0.0,0.0,0.0,0.0,0.0,0.0,0.0,0.0,0.0,0.0,0.0,0.0,0.0,0.0,0.0,0.0,0.0,0.0,0.0,0.0,0.0,0.0,0.0,0.0,0.0,0.0,0.0,0.0,0.0,0.0,0.0,0.0,0.0,0.0,0.0,0.0,0.0,0.0,0.0,0.0,0.0,0.0,0.0,0.0,0.0,0.0,0.0,0.0,0.0,0.0,0.0,0.0,0.0,0.0,0.0,0.0,0.0,0.0,0.0,0.0,0.0,-3.0693,-3.0889,0.0,0.0,0.0,0.0,0.0,0.0,0.0,0.0,0.0,0.0,0.0,0.0,0.0,0.0,0.0,0.0,0.0,0.0,0.0,0.0,0.0,0.0,0.0,0.0,0.0,0.0,0.0,0.0,0.0,0.0,0.0,0.0,0.0,0.0,0.0,0.0,0.0,0.0,0.0,0.0,0.0,0.0,0.0,0.0,0.0,0.0,0.0,0.0,0.0,0.0,0.0,0.0,0.0,0.0,0.0,0.0,0.0,0.0,0.0,0.0,0.0,0.0,0.0,0.0,0.0,0.0,0.0,0.0,0.0,0.0,0.0,0.0,0.0,0.0,0.0,0.0,0.0,0.0,0.0,0.0,0.0,0.0,0.0,0.0,0.0,0.0,0.0,0.0,0.0,0.0,0.0,0.0,0.0,0.0,0.0,0.0,0.0,0.0,0.0,0.0,0.0,0.0,0.0,0.0,0.0,0.0,0.0,0.0,0.0,0.0,0.0,0.0,0.0,0.0,-3.1133,-3.0889,0.0,0.0,0.0,0.0,0.0,0.0,0.0,0.0,0.0,0.0,0.0,0.0,0.0,0.0,0.0,0.0,0.0,0.0,0.0,0.0,0.0,0.0,0.0,0.0,0.0,0.0,0.0,0.0,0.0,0.0,0.0,0.0,0.0,0.0,0.0,0.0,0.0,0.0,0.0,0.0,0.0,0.0,0.0,0.0,0.0,0.0,0.0,0.0,0.0,0.0,0.0,0.0,0.0,0.0,0.0,0.0,0.0,0.0,0.0,0.0,0.0,0.0,0.0,0.0,0.0,0.0,0.0,0.0,0.0,0.0,0.0,0.0,0.0,0.0,0.0,0.0,0.0,0.0,0.0,0.0,0.0,0.0,0.0,0.0,0.0,0.0,0.0,0.0,0.0,0.0,0.0,0.0,0.0,0.0,0.0,0.0,0.0,0.0,0.0,0.0,0.0,0.0,0.0,0.0,0.0,0.0,0.0,0.0,-3.2178,-3.2568,-3.292,-3.3262,-3.3418,-3.334,-3.1865,-3.1221,-3.1221,-3.1143,0.0,0.0,0.0,0.0,0.0,0.0,0.0,0.0,0.0,0.0,0.0,0.0,0.0,0.0,0.0,0.0,0.0,0.0,0.0,0.0,0.0,0.0,0.0,0.0,0.0,0.0,0.0,0.0,0.0,0.0,0.0,0.0,0.0,0.0,0.0,0.0,0.0,0.0,0.0,0.0,0.0,0.0,0.0,0.0,0.0,0.0,0.0,0.0,0.0,0.0,0.0,0.0,0.0,0.0,0.0,0.0,0.0,0.0,0.0,0.0,0.0,0.0,0.0,0.0,0.0,0.0,0.0,0.0,0.0,0.0,0.0,0.0,0.0,0.0,0.0,0.0,0.0,0.0,0.0,0.0,0.0,0.0,0.0,0.0,0.0,0.0,-2.8734,-2.7835,0.0,0.0,0.0,0.0,0.0,0.0,0.0,0.0,0.0,0.0,0.0,0.0,0.0,-3.1074,-3.1992,-3.2305,-3.251,-3.2627,-3.3057,-3.3281,-3.334,-3.3398,-3.3418,-3.3389,-3.2803,0.0,-3.2519,-3.2148,0.0,0.0,0.0,0.0,0.0,0.0,0.0,0.0,0.0,0.0,0.0,0.0,0.0,0.0,0.0,0.0,0.0,0.0,0.0,0.0,0.0,0.0,0.0,0.0,0.0,0.0,0.0,0.0,0.0,0.0,0.0,0.0,0.0,0.0,0.0,0.0,0.0,0.0,0.0,0.0,0.0,0.0,0.0,0.0,0.0,0.0,0.0,0.0,0.0,0.0,0.0,0.0,0.0,0.0,0.0,0.0,0.0,0.0,0.0,0.0,0.0,0.0,0.0,0.0,0.0,0.0,0.0,0.0,0.0,0.0,0.0,0.0,0.0,0.0,0.0,0.0,0.0,0.0,0.0,0.0,0.0,0.0,0.0,0.0,0.0,-3.0155,-2.9384,-2.7904,-2.8086,-2.8281,0.0,0.0,0.0,0.0,0.0,0.0,0.0,0.0,0.0,-3.1269,-3.1504,-3.2012,-3.2861,-3.3057,-3.3271,-3.3525,-3.3935,-3.4277,-3.4531,-3.4775,-3.4883,-3.4873,-3.4687,-3.4473,-3.415,-3.2744,-3.1768,-3.1152,0.0,0.0,0.0,0.0,-3.2373,-3.5344,0.0,0.0,0.0,0.0,0.0,0.0,0.0,0.0,0.0,0.0,0.0,0.0,0.0,0.0,0.0,0.0,0.0,0.0,0.0,0.0,0.0,0.0,0.0,0.0,0.0,0.0,0.0,0.0,0.0,0.0,0.0,0.0,0.0,0.0,0.0,0.0,0.0,0.0,0.0,0.0,0.0,0.0,0.0,0.0,0.0,0.0,0.0,0.0,0.0,0.0,0.0,0.0,0.0,0.0,0.0,0.0,0.0,0.0,0.0,0.0,0.0,0.0,0.0,0.0,0.0,0.0,0.0,0.0,0.0,0.0,0.0,0.0,0.0,0.0,0.0,0.0,0.0,-3.0105,-2.989,-2.8329,-2.8906,-2.9258,0.0,0.0,0.0,0.0,0.0,0.0,-3.0664,-3.0801,-3.1367,-3.2451,-3.2598,-3.3008,-3.374,-3.3867,-3.4092,-3.4414,-3.4834,-3.5215,-3.5566,-3.5879,-3.6016,-3.6016,-3.5908,-3.5684,-3.5264,-3.3525,-3.2383,-3.168,-3.1465,-3.1162,-3.085,-3.0742,-3.2788,-3.5754,0.0,0.0,0.0,0.0,0.0,0.0,0.0,0.0,0.0,0.0,0.0,0.0,0.0,0.0,0.0,0.0,0.0,0.0,0.0,0.0,0.0,0.0,0.0,0.0,0.0,0.0,0.0,0.0,0.0,0.0,0.0,0.0,0.0,0.0,0.0,0.0,0.0,0.0,0.0,0.0,0.0,0.0,0.0,0.0,0.0,0.0,0.0,0.0,0.0,0.0,0.0,0.0,0.0,0.0,0.0,0.0,0.0,0.0,0.0,0.0,0.0,0.0,0.0,0.0,0.0,0.0,0.0,0.0,0.0,0.0,0.0,0.0,0.0,0.0,0.0,0.0,0.0,0.0,0.0,-2.9482,-3.0254,0.0,0.0,0.0,0.0,-3.0752,-3.1162,-3.1582,-3.2041,-3.2441,-3.2881,-3.334,-3.376,-3.4189,-3.4629,-3.5078,-3.5303,-3.5332,-3.5752,-3.5967,-3.5986,-3.6006,-3.6016,-3.5996,-3.5596,-3.541,-3.5351,-3.4795,-3.4307,-3.3828,-3.3018,-3.2685,-3.2617,-3.2217,-3.3124,-3.4635,0.0,0.0,0.0,0.0,0.0,0.0,0.0,0.0,0.0,0.0,0.0,0.0,0.0,0.0,0.0,0.0,0.0,0.0,0.0,0.0,0.0,0.0,0.0,0.0,0.0,0.0,0.0,0.0,0.0,0.0,0.0,0.0,0.0,0.0,0.0,0.0,0.0,0.0,0.0,0.0,0.0,0.0,0.0,0.0,0.0,0.0,0.0,0.0,0.0,0.0,0.0,0.0,0.0,0.0,0.0,0.0,0.0,0.0,0.0,0.0,0.0,0.0,0.0,0.0,0.0,0.0,0.0,0.0,0.0,0.0,0.0,0.0,0.0,0.0,0.0,0.0,0.0,0.0,0.0,-3.0459,-3.166,0.0,-3.1533,-3.1465,-3.1758,-3.2471,-3.2656,-3.3047,-3.376,-3.3935,-3.4228,-3.4678,-3.4844,-3.5127,-3.5547,-3.5713,-3.5801,-3.5801,-3.5947,-3.6016,-3.6016,-3.6016,-3.6016,-3.5996,-3.5576,-3.5547,-3.5742,-3.5,-3.4453,-3.4014,-3.3428,-3.3037,-3.2744,-3.2324,-3.3772,-3.5983,0.0,0.0,0.0,0.0,0.0,0.0,0.0,0.0,0.0,0.0,0.0,0.0,0.0,0.0,0.0,0.0,0.0,0.0,0.0,0.0,0.0,0.0,0.0,0.0,0.0,0.0,0.0,0.0,0.0,0.0,0.0,0.0,0.0,0.0,0.0,0.0,0.0,0.0,0.0,0.0,0.0,0.0,-3.1815,0.0,0.0,0.0,0.0,0.0,0.0,0.0,0.0,0.0,0.0,0.0,0.0,0.0,0.0,0.0,0.0,0.0,0.0,0.0,0.0,0.0,0.0,0.0,0.0,0.0,0.0,0.0,0.0,0.0,0.0,0.0,0.0,0.0,0.0,-3.1789,-3.1631,-3.1357,-3.2695,-3.3359,-3.2656,-3.2851,-3.332,-3.4033,-3.4355,-3.4824,-3.5537,-3.5576,-3.5654,-3.582,-3.582,-3.5889,-3.6016,-3.6016,-3.6016,-3.6016,-3.6016,-3.6016,-3.6016,-3.6016,-3.6016,-3.6006,-3.5723,-3.5762,-3.5976,-3.5391,-3.4892,-3.4463,-3.3877,-3.3467,-3.3174,-3.2744,-3.4214,-3.6549,0.0,0.0,0.0,0.0,0.0,0.0,0.0,0.0,0.0,0.0,0.0,0.0,0.0,0.0,0.0,0.0,0.0,0.0,0.0,0.0,0.0,0.0,0.0,0.0,0.0,0.0,0.0,0.0,0.0,0.0,0.0,0.0,0.0,0.0,0.0,0.0,0.0,0.0,0.0,0.0,0.0,0.0,-3.2749,0.0,0.0,0.0,0.0,0.0,0.0,0.0,0.0,0.0,0.0,0.0,0.0,0.0,0.0,0.0,0.0,0.0,0.0,0.0,0.0,0.0,0.0,0.0,0.0,0.0,0.0,0.0,0.0,0.0,0.0,0.0,0.0,0.0,-3.1296,-3.1747,-3.2217,-3.2246,-3.3359,-3.3965,-3.3545,-3.4267,-3.4951,-3.542,-3.623,-3.6885,-3.7295,-3.7305,-3.7109,-3.668,-3.666,-3.6445,-3.6025,-3.6016,-3.6016,-3.6016,-3.6016,-3.6016,-3.6016,-3.6006,-3.6006,-3.5996,-3.5967,-3.5967,-3.5976,-3.5947,-3.5703,-3.5264,-3.4424,-3.4082,-3.4023,-3.3574,-3.4467,-3.6167,0.0,0.0,0.0,0.0,0.0,0.0,0.0,0.0,0.0,0.0,0.0,0.0,0.0,0.0,0.0,0.0,0.0,0.0,0.0,0.0,0.0,0.0,0.0,0.0,0.0,0.0,0.0,0.0,0.0,0.0,0.0,0.0,0.0,0.0,0.0,0.0,0.0,0.0,0.0,0.0,0.0,0.0,-3.3739,0.0,0.0,0.0,0.0,0.0,0.0,0.0,0.0,0.0,0.0,0.0,0.0,0.0,0.0,0.0,0.0,0.0,0.0,0.0,0.0,0.0,0.0,0.0,0.0,0.0,0.0,0.0,0.0,0.0,0.0,0.0,-3.3323,-3.3144,-3.423,-3.3602,-3.3301,-3.3926,-3.4883,-3.5439,-3.5312,-3.5801,-3.6309,-3.6748,-3.7275,-3.7627,-3.7744,-3.7461,-3.7109,-3.668,-3.6367,-3.6142,-3.6016,-3.6016,-3.6016,-3.6016,-3.6016,-3.6016,-3.6006,-3.5703,-3.5566,-3.5527,-3.4883,-3.4785,-3.5019,-3.4394,-3.4258,-3.4443,-3.4502,-3.4346,-3.3984,-3.3242,-3.4409,-3.6551,0.0,0.0,0.0,0.0,0.0,0.0,0.0,0.0,0.0,0.0,0.0,0.0,0.0,0.0,0.0,0.0,0.0,0.0,0.0,0.0,0.0,0.0,0.0,0.0,0.0,0.0,0.0,0.0,0.0,0.0,0.0,0.0,0.0,0.0,0.0,0.0,0.0,0.0,0.0,0.0,0.0,0.0,-3.4691,-3.5279,-3.5668,-3.6006,-3.6446,-3.6783,-3.7144,-3.7632,0.0,0.0,0.0,0.0,0.0,0.0,0.0,0.0,0.0,0.0,0.0,0.0,0.0,0.0,0.0,0.0,0.0,0.0,0.0,0.0,0.0,0.0,0.0,0.0,-3.3834,-3.4095,-3.5065,-3.3962,-3.3476,-3.4336,-3.5215,-3.5762,-3.5762,-3.6318,-3.6777,-3.7021,-3.7422,-3.7666,-3.7666,-3.7432,-3.7021,-3.6416,-3.6152,-3.584,-3.5469,-3.5469,-3.5469,-3.5469,-3.5469,-3.5469,-3.5459,-3.5215,-3.5107,-3.5078,-3.456,-3.4473,-3.4658,-3.416,-3.4004,0.0,0.0,0.0,0.0,0.0,-3.5243,-3.6579,0.0,0.0,0.0,0.0,0.0,0.0,0.0,0.0,0.0,0.0,0.0,0.0,0.0,0.0,0.0,0.0,0.0,0.0,0.0,0.0,0.0,0.0,0.0,0.0,0.0,0.0,0.0,0.0,0.0,0.0,0.0,0.0,0.0,0.0,0.0,0.0,0.0,0.0,0.0,0.0,0.0,0.0,-3.54,-3.5589,-3.6054,-3.66,-3.6783,-3.7322,-3.7921,-3.8035,0.0,0.0,0.0,0.0,0.0,0.0,0.0,0.0,0.0,0.0,0.0,0.0,0.0,0.0,0.0,0.0,0.0,0.0,0.0,0.0,0.0,0.0,0.0,0.0,-3.4907,-3.4756,-3.4125,-3.3215,-3.3008,-3.3955,-3.4805,-3.5332,-3.5391,-3.6123,-3.6621,-3.667,-3.7021,-3.7226,-3.7226,0.0,0.0,0.0,0.0,-3.5488,-3.4707,-3.4697,-3.4697,-3.4697,-3.4648,-3.4658,-3.4697,-3.46,-3.458,-3.4629,-3.458,-3.4551,-3.4551,-3.4551,-3.4277,-3.3789,-3.3125,-3.2803,-3.3036,-3.5296,-3.6056,-3.6262,0.0,0.0,0.0,0.0,0.0,0.0,0.0,0.0,0.0,0.0,0.0,0.0,0.0,0.0,0.0,0.0,0.0,0.0,0.0,0.0,0.0,0.0,0.0,0.0,0.0,0.0,0.0,0.0,0.0,0.0,0.0,0.0,0.0,0.0,0.0,0.0,0.0,0.0,0.0,0.0,0.0,0.0,-3.479,-3.5951,-3.6508,-3.6783,-3.7987,-3.8564,-3.8816,-3.9454,-3.9209,-3.8799,-3.9454,0.0,0.0,0.0,0.0,0.0,0.0,0.0,0.0,0.0,0.0,0.0,0.0,0.0,0.0,0.0,0.0,0.0,0.0,0.0,0.0,-3.3583,-3.3966,-3.3931,-3.2303,-3.1938,-3.2334,-3.3887,-3.4521,-3.498,-3.5361,-3.585,-3.6289,-3.665,-3.6748,-3.6797,-3.6797,-3.6133,-3.5684,-3.5517,-3.5146,-3.4873,-3.4697,-3.4697,-3.4697,-3.4697,0.0,0.0,-3.4678,-3.3984,-3.3857,-3.417,-3.3818,-3.3672,-3.3672,-3.3672,-3.3223,-3.2588,-3.3096,-3.2891,-3.2397,-3.2894,-3.4054,-3.5544,0.0,0.0,0.0,0.0,0.0,0.0,0.0,0.0,0.0,0.0,0.0,0.0,0.0,0.0,0.0,0.0,0.0,0.0,0.0,0.0,0.0,0.0,0.0,0.0,0.0,0.0,0.0,0.0,0.0,0.0,0.0,0.0,0.0,0.0,0.0,0.0,0.0,0.0,0.0,0.0,0.0,0.0,-3.4135,-3.5536,-3.6328,-3.6891,-3.8378,-3.9139,-3.9542,-3.9952,-3.9833,-3.9558,-3.9952,-3.9558,-3.8887,0.0,0.0,0.0,0.0,0.0,0.0,0.0,0.0,0.0,0.0,0.0,0.0,0.0,0.0,-3.4474,0.0,0.0,-3.6113,-3.3989,-3.4307,-3.3996,-3.1592,-3.1387,-3.1992,-3.3281,-3.3799,-3.4238,-3.4687,-3.5117,-3.5449,-3.5664,-3.5488,-3.5459,-3.5674,-3.4873,-3.4512,-3.4726,-3.4092,-3.375,-3.375,-3.3535,-3.3535,-3.374,-3.332,-3.3447,-3.4033,-3.3398,-3.334,-3.374,-3.3516,-3.3418,-3.3418,-3.3418,-3.3047,-3.2519,-3.2939,-3.2461,-3.1642,-3.2431,-3.3819,-3.5398,0.0,0.0,0.0,0.0,0.0,0.0,0.0,0.0,0.0,0.0,0.0,0.0,0.0,0.0,0.0,0.0,0.0,0.0,0.0,0.0,0.0,0.0,0.0,0.0,0.0,0.0,0.0,0.0,0.0,0.0,0.0,0.0,0.0,0.0,0.0,0.0,0.0,0.0,0.0,0.0,0.0,0.0,-3.3637,-3.5055,-3.6118,-3.6938,-3.8393,-3.9241,-3.9698,-3.9986,-3.9986,-3.9884,-4.0037,-4.007,-3.9952,-3.9139,-3.8908,0.0,0.0,0.0,0.0,0.0,0.0,0.0,0.0,0.0,-3.5552,-3.6429,-3.5661,-3.5177,-3.6182,-3.6897,-3.6726,-3.4702,-3.4963,-3.4303,-3.1334,-3.1182,-3.168,-3.2451,-3.2988,-3.3437,-3.3789,-3.4277,-3.458,-3.458,-3.418,-3.4131,-3.456,-3.3682,-3.3379,-3.3809,-3.3076,-3.2676,-3.2676,-3.2334,-3.2383,-3.2793,-3.2285,-3.248,-3.3281,-3.2773,-3.2822,-3.3301,-3.3301,-3.3301,-3.3301,-3.3213,-3.2978,-3.2666,-3.2578,-3.1865,-3.1005,-3.2299,-3.3818,-3.5508,0.0,0.0,0.0,0.0,0.0,0.0,0.0,0.0,0.0,0.0,0.0,0.0,0.0,0.0,0.0,0.0,0.0,0.0,0.0,0.0,0.0,0.0,0.0,0.0,0.0,0.0,0.0,0.0,0.0,0.0,0.0,0.0,0.0,0.0,0.0,0.0,0.0,0.0,0.0,0.0,0.0,0.0,-3.3738,-3.5145,-3.6102,-3.6913,-3.8439,-3.8652,-3.8345,-3.9648,-3.9648,-3.9225,-3.9868,-4.007,-3.9952,-3.9139,0.0,-3.8564,-3.7008,-3.6117,-3.5889,-3.6911,-3.6776,-3.6507,0.0,0.0,-3.5778,-3.5146,-3.5234,-3.5642,-3.6245,-3.7211,-3.7155,-3.4758,-3.4963,-3.4303,-3.1334,-3.0928,-3.1133,-3.1601,-3.2373,-3.2891,-3.293,-3.3672,-3.4141,-3.4141,-3.374,-3.3682,-3.4121,-3.2978,-3.25,-3.292,-3.248,-3.2236,-3.2236,-3.2187,-3.2383,-3.2783,-3.1973,-3.2041,-3.2842,-3.2031,-3.21,-3.2861,-3.2861,-3.2861,-3.2832,-3.2461,-3.2285,-3.2207,-3.1807,-3.1348,-3.0928,-3.1535,-3.3215,-3.5288,0.0,0.0,0.0,0.0,0.0,0.0,0.0,0.0,0.0,0.0,0.0,0.0,0.0,0.0,0.0,0.0,0.0,0.0,0.0,0.0,0.0,0.0,0.0,0.0,0.0,0.0,0.0,0.0,0.0,0.0,0.0,0.0,0.0,0.0,0.0,0.0,0.0,0.0,0.0,0.0,0.0,0.0,-3.4268,-3.4824,-3.5494,-3.6279,-3.7826,-3.8159,0.0,0.0,-3.8903,-3.9039,-3.9343,-3.9732,-3.9952,-3.9139,-3.8908,0.0,-3.7008,-3.6054,-3.5729,-3.6641,-3.6686,-3.6585,-3.6849,-3.6749,-3.6375,-3.5726,-3.5836,-3.6194,-3.6734,-3.7475,-3.7228,0.0,-3.4963,-3.4303,-3.1334,-3.0654,-3.0557,-3.0723,-3.1309,-3.1885,-3.2383,-3.2754,-3.2969,-3.2969,-3.2559,-3.25,-3.2939,-3.1982,-3.1728,-3.2412,-3.1777,-3.1543,-3.1787,-3.1543,-3.1641,-3.2051,-3.1445,-3.1601,-3.2412,-3.1797,-3.1855,-3.2432,-3.2432,-3.2432,-3.2422,-3.2246,-3.2021,-3.1768,-3.1592,-3.126,-3.0918,-3.1094,-3.237,-3.4181,0.0,0.0,0.0,0.0,0.0,0.0,0.0,0.0,0.0,0.0,0.0,0.0,0.0,0.0,0.0,0.0,0.0,0.0,0.0,0.0,0.0,0.0,0.0,0.0,0.0,0.0,0.0,0.0,0.0,0.0,0.0,0.0,0.0,0.0,0.0,0.0,0.0,0.0,0.0,0.0,0.0,0.0,-3.4894,-3.4894,-3.5073,-3.5504,-3.7043,-3.7466,0.0,0.0,-3.8125,-3.8413,-3.8616,-3.9056,-3.9396,-3.9018,-3.876,-3.8286,-3.6948,-3.6054,-3.5669,-3.6327,-3.6492,-3.6497,-3.657,-3.6646,-3.6606,-3.6197,-3.6093,-3.6358,-3.7061,-3.7194,-3.6594,-3.4566,-3.4314,-3.3469,-3.0853,-3.0234,-3.0068,-3.0185,-3.0488,-3.0996,-3.1748,-3.2031,-3.2119,-3.2002,-3.1699,-3.1709,-3.2148,-3.1357,-3.123,-3.1963,-3.1279,-3.1035,-3.1338,-3.1045,-3.1103,-3.1514,-3.1094,-3.1279,-3.1982,-3.166,-3.1621,-3.1826,-3.1943,-3.1992,-3.1982,-3.1865,-3.1699,-3.1504,-3.1396,-3.1162,-3.1005,-3.1334,-3.2426,-3.3856,0.0,0.0,0.0,0.0,0.0,0.0,0.0,0.0,0.0,0.0,0.0,0.0,0.0,0.0,0.0,0.0,0.0,0.0,0.0,0.0,0.0,0.0,0.0,0.0,0.0,0.0,0.0,0.0,0.0,0.0,0.0,0.0,0.0,0.0,0.0,0.0,0.0,0.0,0.0,0.0,0.0,0.0,-3.5577,-3.5577,-3.5121,-3.4726,-3.6265,0.0,0.0,0.0,-3.7432,-3.6975,-3.7702,-3.7956,0.0,-3.8819,-3.8451,-3.7632,-3.6843,-3.6054,-3.5669,-3.6327,-3.6492,-3.6394,-3.62,-3.6094,-3.598,-3.5607,-3.5554,-3.5906,-3.6985,-3.6162,-3.4999,-3.3964,-3.2792,-3.1428,-2.9823,-2.96,-2.9736,-3.0146,-3.0205,-3.04,0.0,-3.168,-3.1992,-3.1572,-3.1523,-3.1709,-3.2148,-3.1357,-3.1094,-3.1523,-3.1123,-3.0898,-3.0908,-3.0898,-3.1103,-3.1514,-3.1094,-3.1123,-3.1533,-3.1523,-3.1299,-3.0957,-3.1357,-3.1533,-3.1504,-3.1094,-3.1162,-3.1475,-3.1064,-3.0898,-3.1112,-3.253,-3.3968,-3.5288,0.0,0.0,0.0,0.0,0.0,0.0,0.0,0.0,0.0,0.0,0.0,0.0,0.0,0.0,0.0,0.0,0.0,0.0,0.0,0.0,0.0,0.0,0.0,0.0,0.0,0.0,0.0,0.0,0.0,0.0,0.0,0.0,0.0,0.0,0.0,0.0,0.0,0.0,0.0,0.0,0.0,0.0,-3.6044,-3.4678,-3.3998,-3.3846,0.0,0.0,0.0,0.0,0.0,0.0,-3.6907,-3.7499,-3.7945,-3.8153,-3.73,-3.6341,-3.6552,-3.6054,-3.5669,-3.6327,-3.6492,-3.6241,-3.518,-3.5581,-3.571,-3.4196,-3.4198,-3.428,-3.3961,-3.4018,-3.3452,-3.1429,-3.1667,-3.1712,-3.0207,-2.999,-3.0039,-3.0176,-2.9249,0.0,0.0,0.0,0.0,-2.9489,-2.948,-2.9545,-2.9684,-3.0428,-3.0957,-3.1094,-3.0967,-3.0889,-3.0889,-3.0889,-3.0957,-3.1103,-3.0957,-3.0967,-3.1103,-3.1103,-3.1025,-3.0898,-3.1035,-3.1103,-3.1094,-3.0947,-3.0976,-3.1094,-3.0947,-3.0889,-3.1005,-3.1441,-3.2889,-3.4892,0.0,0.0,0.0,0.0,0.0,0.0,0.0,0.0,0.0,0.0,0.0,0.0,0.0,0.0,0.0,0.0,0.0,0.0,0.0,0.0,0.0,0.0,0.0,0.0,0.0,0.0,0.0,0.0,0.0,0.0,0.0,0.0,0.0,0.0,0.0,0.0,0.0,0.0,0.0,0.0,0.0,0.0,-3.548,-3.4144,-3.3386,0.0,0.0,0.0,0.0,0.0,0.0,-3.5351,-3.6129,-3.6891,-3.7475,-3.7432,-3.6708,-3.6044,-3.649,-3.6054,-3.5609,-3.6028,-3.6133,-3.5866,-3.4852,-3.4857,-3.4774,-3.3566,-3.3031,-3.2546,-3.198,-3.1623,-3.0959,-2.9519,-2.9839,-3.0042,-2.9554,-2.9512,-2.9453,-2.9317,-2.8551,-2.7685,0.0,0.0,0.0,-2.7452,-2.7563,-2.7563,-2.7563,-2.8545,-2.9412,-3.002,-3.002,-3.0274,-3.0889,-3.0889,-3.0889,-3.0889,-3.0889,-3.0889,-3.0889,-3.0889,-3.0889,-3.0879,-3.0713,-3.0644,-3.0635,-3.0478,-3.042,-3.042,-3.042,-3.042,-3.0525,-3.1077,-3.2517,-3.4302,0.0,0.0,0.0,0.0,0.0,0.0,0.0,0.0,0.0,0.0,0.0,0.0,0.0,0.0,0.0,0.0,0.0,0.0,0.0,0.0,0.0,0.0,0.0,0.0,0.0,0.0,0.0,0.0,0.0,0.0,0.0,0.0,0.0,0.0,0.0,0.0,0.0,0.0,0.0,0.0,0.0,0.0,-3.4146,-3.3999,0.0,0.0,0.0,0.0,0.0,0.0,0.0,-3.4769,-3.5453,-3.6214,-3.6865,-3.682,-3.6766,-3.6667,-3.6656,-3.6117,-3.5504,-3.5504,-3.5504,-3.5377,-3.4972,-3.4084,-3.3465,-3.3556,-3.1968,-3.062,0.0,0.0,-2.7747,-2.8166,-2.7279,-2.6924,-2.8184,-2.8262,-2.8172,0.0,0.0,0.0,0.0,0.0,0.0,-2.5635,0.0,-2.5855,-2.5855,-2.5976,-2.6712,-2.8298,-2.8417,-2.9157,-3.0889,-3.0889,-3.0889,-3.0889,-3.0889,-3.0889,-3.0889,-3.0869,-3.0869,-3.0859,-3.0371,-3.0176,-3.0166,-2.9746,-2.957,-2.957,-2.957,-2.957,-2.9784,-3.1278,-3.2641,-3.3843,0.0,0.0,0.0,0.0,0.0,0.0,0.0,0.0,0.0,0.0,0.0,0.0,0.0,0.0,0.0,0.0,0.0,0.0,0.0,0.0,0.0,0.0,0.0,0.0,0.0,0.0,0.0,0.0,0.0,0.0,0.0,0.0,0.0,0.0,0.0,0.0,0.0,0.0,0.0,0.0,0.0,0.0,-3.448,0.0,0.0,0.0,0.0,0.0,0.0,0.0,0.0,0.0,-3.6537,-3.7009,-3.7706,-3.8268,-3.76,-3.6853,-3.7324,-3.6538,-3.5504,-3.5504,-3.5504,-3.5258,-3.4394,-3.3761,-3.3219,-3.2574,-3.0803,-2.9153,0.0,0.0,0.0,-2.648,-2.7166,0.0,-2.9111,-2.8474,0.0,-2.8201,0.0,-2.4663,-2.4301,-2.2781,0.0,0.0,-2.3559,-2.417,-2.417,-2.5383,-2.6712,-2.8298,-2.8417,-2.9157,-3.0889,-3.0889,-3.0889,-3.0889,-3.0889,-3.0889,-3.0879,-3.0537,-3.0566,-3.085,-3.0068,-2.9902,-3.0166,-2.9746,-2.957,-2.957,-2.957,-2.957,-2.9784,-3.1168,-3.2318,-3.3387,0.0,0.0,0.0,0.0,0.0,0.0,0.0,0.0,0.0,0.0,0.0,0.0,0.0,0.0,0.0,0.0,0.0,0.0,0.0,0.0,0.0,0.0,0.0,0.0,0.0,0.0,0.0,0.0,0.0,0.0,0.0,0.0,0.0,0.0,0.0,0.0,0.0,0.0,0.0,0.0,0.0,0.0,0.0,0.0,0.0,0.0,0.0,0.0,0.0,0.0,0.0,-3.7209,-3.7238,-3.7326,-3.7535,-3.8271,-3.7357,-3.6337,-3.7074,-3.6415,-3.5504,-3.5504,-3.5504,-3.5213,-3.4245,-3.3508,-3.2654,-3.1211,-2.9267,-2.7541,-2.637,-2.5784,-2.542,0.0,0.0,0.0,-2.8208,-2.7792,-2.7193,0.0,-2.4796,0.0,-2.2606,-2.185,-2.1249,0.0,-2.1971,-2.2466,-2.2466,-2.3311,-2.4648,-2.6236,-2.6961,-2.8545,-3.0889,-3.0889,-3.0889,-3.0889,-3.0889,-3.0889,-3.0869,-3.041,-3.0342,-3.0537,0.0,-2.9414,-2.9609,-2.918,-2.9004,-2.9004,-2.9004,-2.9431,-3.0052,-3.0774,-3.2164,-3.3692,0.0,0.0,0.0,0.0,0.0,0.0,0.0,0.0,0.0,0.0,0.0,0.0,0.0,0.0,0.0,0.0,0.0,0.0,0.0,0.0,0.0,0.0,0.0,0.0,0.0,0.0,0.0,0.0,0.0,0.0,0.0,0.0,0.0,0.0,0.0,0.0,0.0,0.0,0.0,0.0,0.0,0.0,0.0,0.0,0.0,0.0,0.0,0.0,0.0,0.0,-3.6241,-3.7026,-3.7691,-3.7436,-3.6954,-3.7593,-3.6765,-3.5766,-3.646,-3.6054,-3.5504,-3.5504,-3.5424,-3.5067,-3.4177,-3.3087,-3.1675,-2.991,-2.7761,-2.5964,-2.4957,-2.425,-2.4092,-2.501,0.0,-2.6256,-2.6514,-2.6574,-2.5771,-2.3855,-2.3569,-2.3004,-2.1256,-2.1343,-2.139,-2.1129,-2.1076,-2.1069,-2.1109,-2.1109,-2.1971,-2.3814,-2.5505,-2.7811,-3.0889,-3.0889,-3.0889,-3.0889,-3.083,-3.0801,-3.0781,-3.0264,-3.0059,-3.0068,-2.9209,-2.8867,-2.8887,-2.8467,-2.8291,-2.8291,-2.8291,-2.9006,-3.012,-3.0421,-3.2039,-3.4178,0.0,0.0,0.0,0.0,0.0,0.0,0.0,0.0,0.0,0.0,-3.8246,0.0,0.0,0.0,0.0,0.0,0.0,0.0,0.0,0.0,0.0,0.0,0.0,0.0,0.0,0.0,0.0,0.0,0.0,0.0,0.0,0.0,0.0,0.0,0.0,0.0,0.0,0.0,0.0,0.0,0.0,0.0,0.0,0.0,0.0,0.0,0.0,0.0,0.0,0.0,-3.6869,-3.741,-3.7734,-3.7693,-3.7641,-3.7769,-3.7148,-3.646,-3.6584,-3.6054,-3.5504,-3.5504,-3.4905,-3.4245,-3.4027,-3.1924,0.0,0.0,-2.7175,-2.5041,-2.4872,-2.425,-2.4189,-2.542,-2.5008,-2.505,-2.6753,-2.4878,-2.3306,0.0,-2.239,-2.1409,-2.1116,-2.1156,0.0,0.0,-2.0882,-2.0855,-2.1096,-2.1109,-2.2452,-2.5497,-2.7194,-2.892,-3.0889,-3.0889,-3.0889,-3.0889,-3.0508,-3.0322,-3.0293,-2.9502,-2.9336,-2.9629,-2.8769,0.0,-2.8887,-2.8467,-2.8291,-2.8291,-2.8291,-2.8388,-2.89,-3.1122,-3.223,-3.2944,0.0,0.0,0.0,0.0,0.0,0.0,0.0,0.0,0.0,0.0,-3.8371,-3.8333,0.0,0.0,0.0,0.0,0.0,0.0,0.0,0.0,0.0,0.0,0.0,0.0,0.0,0.0,0.0,0.0,0.0,0.0,0.0,0.0,0.0,0.0,0.0,0.0,0.0,0.0,0.0,0.0,0.0,0.0,0.0,0.0,0.0,0.0,0.0,0.0,0.0,0.0,-3.5561,-3.5704,-3.7329,-3.7518,-3.716,-3.716,-3.6631,-3.6054,-3.6054,-3.5415,-3.4691,-3.4691,-3.3959,-3.3087,-3.229,0.0,0.0,0.0,-2.6051,-2.4628,-2.4049,-2.3368,-2.3129,-2.3937,-2.3655,-2.3448,-2.4135,-2.3294,-2.248,-2.227,-2.1601,-2.1109,-2.1109,-2.0969,-2.0882,-2.0882,-2.0615,-2.0575,-2.0869,-2.1735,-2.3297,-2.5695,-2.7458,-2.9157,-3.0889,-3.0644,-3.0654,-3.0889,-3.0195,-2.999,-3.0166,-2.9307,-2.9033,-2.9199,-2.8564,-2.8408,-2.8574,-2.8379,-2.8291,-2.8291,-2.8291,-2.8698,-2.9513,-3.0824,-3.214,-3.3563,0.0,0.0,0.0,0.0,0.0,0.0,0.0,-3.8828,-3.8706,-3.7923,-3.841,-3.8302,-3.6852,-3.6088,-3.5376,0.0,0.0,0.0,0.0,0.0,0.0,0.0,0.0,0.0,0.0,0.0,0.0,0.0,0.0,0.0,0.0,0.0,0.0,0.0,0.0,0.0,0.0,0.0,0.0,0.0,0.0,0.0,0.0,0.0,0.0,0.0,0.0,0.0,0.0,0.0,-3.4046,-3.3841,-3.5947,-3.638,-3.6168,-3.6168,-3.5679,-3.5213,-3.5213,-3.4476,-3.3671,-3.3671,-3.2961,-3.1942,-3.0441,-2.9403,0.0,-2.5777,-2.4804,-2.4012,-2.2921,-2.2221,-2.1951,0.0,-2.19,-2.1562,-2.1541,-2.1772,-2.1711,-2.1061,-2.1076,0.0,-2.1109,-2.0902,0.0,-2.0681,-2.0341,-2.0267,-2.0568,-2.2141,-2.3677,-2.5316,-2.7239,-2.9028,-3.0742,-3.0478,-3.0527,-3.0879,-3.0088,-2.9873,-3.0166,-2.9307,-2.8916,-2.8896,-2.8476,-2.8291,-2.8291,-2.8291,-2.8291,-2.8291,-2.8291,-2.89,-2.9911,-3.0525,-3.2151,-3.4068,0.0,0.0,0.0,0.0,0.0,0.0,0.0,-3.8875,-3.8706,-3.7923,-3.841,-3.8349,-3.6776,-3.5988,-3.5319,0.0,0.0,0.0,0.0,0.0,0.0,0.0,0.0,0.0,0.0,0.0,0.0,-2.8281,-2.8916,0.0,0.0,0.0,0.0,0.0,0.0,-3.2495,0.0,0.0,0.0,0.0,0.0,0.0,0.0,0.0,0.0,0.0,0.0,0.0,0.0,0.0,0.0,-3.3402,-3.2859,-3.3632,-3.4673,-3.4673,0.0,0.0,-3.4163,-3.3463,-3.2749,-3.2749,-3.2033,-3.0935,-2.941,0.0,-2.5766,-2.4609,-2.3512,-2.2494,-2.1594,-2.1418,-2.1327,0.0,0.0,-1.9438,-2.0906,-2.0345,-1.9996,-2.0615,0.0,0.0,-2.1109,-2.1082,-2.0962,-2.0695,-2.0154,-1.9967,-2.0261,-2.1697,-2.3338,-2.4953,-2.6854,-2.8602,-3.0264,-3.0635,-3.085,-3.0889,-3.0381,-3.0156,-3.0166,-2.9307,-2.8916,-2.8896,-2.8476,-2.8291,0.0,-2.8291,-2.8291,-2.8291,-2.8291,-2.8398,-2.8804,-3.1224,-3.223,-3.2844,0.0,0.0,0.0,0.0,0.0,0.0,0.0,-3.8873,-3.8496,-3.7243,-3.7308,-3.7128,-3.6054,-3.5715,-3.5275,0.0,0.0,0.0,0.0,0.0,0.0,0.0,0.0,0.0,0.0,0.0,0.0,-2.7353,-2.8096,0.0,0.0,0.0,0.0,0.0,0.0,-3.1565,0.0,0.0,0.0,0.0,0.0,0.0,0.0,0.0,0.0,0.0,0.0,0.0,0.0,0.0,0.0,0.0,-3.0529,-3.0586,0.0,0.0,-3.278,-3.2776,-3.3073,-3.2464,-3.1742,-3.1742,-3.053,-2.9105,-2.8154,0.0,-2.5024,-2.4261,-2.3453,-2.2573,-2.1453,-2.0666,-1.9953,0.0,0.0,0.0,-1.864,-1.868,-1.8951,-2.002,-2.0408,0.0,0.0,0.0,-2.0388,-1.9927,-1.9673,-1.9593,-1.9706,-2.137,-2.3177,-2.5011,-2.6918,-2.8663,-3.0195,-3.0137,-3.0098,-3.0088,-2.9385,-2.918,-2.9404,-2.8818,-2.8545,-2.8535,-2.8369,-2.8291,0.0,-2.8291,-2.8291,-2.8291,-2.8291,-2.8291,-2.8495,-3.0421,-3.1633,-3.2498,0.0,0.0,0.0,0.0,0.0,0.0,-3.8652,-3.8595,-3.8098,-3.6751,-3.6615,-3.6337,-3.5554,-3.5213,-3.486,-3.4386,0.0,0.0,0.0,0.0,0.0,0.0,0.0,0.0,0.0,0.0,0.0,-2.6789,-2.7538,-2.817,0.0,0.0,-2.9189,-3.0068,0.0,0.0,0.0,0.0,0.0,0.0,0.0,0.0,0.0,0.0,0.0,0.0,0.0,0.0,0.0,0.0,0.0,0.0,0.0,0.0,0.0,0.0,-3.1253,-3.1091,-3.1928,-3.1462,-3.0758,-3.0758,-2.9422,-2.7873,0.0,0.0,-2.442,-2.371,-2.2972,-2.2077,-2.1007,-1.9761,-1.8588,0.0,0.0,-1.6346,-1.6934,-1.7448,-1.817,-1.9279,0.0,-1.9993,-2.0381,-2.0227,-1.994,-1.9526,-1.9412,-1.9366,-1.9366,-2.1018,-2.2828,-2.4688,-2.7034,-2.8766,-2.9814,-2.9648,-2.957,-2.956,-2.8965,-2.8828,-2.9092,-2.8672,-2.8476,-2.8467,-2.834,-2.8291,0.0,-2.8291,-2.8291,-2.8291,-2.8291,-2.8495,-2.8996,-3.0421,-3.1735,-3.3074,0.0,0.0,0.0,0.0,0.0,0.0,0.0,-3.7817,-3.7491,-3.6689,-3.6615,-3.6337,-3.5554,-3.461,-3.4013,-3.4013,0.0,0.0,0.0,0.0,0.0,0.0,0.0,0.0,0.0,0.0,0.0,-2.7092,-2.7535,-2.8446,-2.9807,-2.9807,-2.949,-2.9038,0.0,0.0,0.0,0.0,0.0,0.0,0.0,0.0,0.0,0.0,0.0,0.0,0.0,0.0,0.0,0.0,0.0,0.0,0.0,0.0,0.0,0.0,-2.9923,-2.9236,-3.0773,-3.0558,-2.9792,-2.9792,-2.8937,-2.7714,-2.6166,-2.5006,-2.3888,-2.2755,-2.1521,-2.0483,-1.9694,-1.8503,-1.7318,-1.6015,-1.5832,0.0,-1.6627,-1.6967,-1.7495,0.0,-1.8764,-1.9165,-1.9753,-1.9806,-1.9806,-1.98,-1.9533,0.0,-1.9366,-2.0816,-2.2266,-2.3718,-2.7123,-2.8935,-2.8926,-2.9355,-2.957,-2.957,-2.956,-2.956,-2.9551,-2.9111,-2.8916,-2.8887,-2.8476,-2.8291,0.0,-2.8291,-2.8291,-2.8291,-2.8291,-2.9102,-3.0421,-3.1825,-3.3155,-3.4509,0.0,0.0,0.0,0.0,0.0,0.0,0.0,-3.7351,-3.6729,-3.5913,-3.5831,-3.5494,-3.461,-3.4177,-3.3739,-3.3101,0.0,0.0,0.0,0.0,0.0,0.0,0.0,0.0,0.0,0.0,0.0,-2.6661,-2.6817,-2.7823,-2.9507,-2.9079,-2.9119,-2.9532,-2.9435,0.0,0.0,0.0,0.0,0.0,0.0,0.0,0.0,0.0,0.0,0.0,0.0,0.0,0.0,0.0,0.0,0.0,0.0,0.0,0.0,0.0,0.0,0.0,-2.7293,-2.7573,-2.7545,-2.7545,-2.6707,-2.5471,-2.4198,-2.2985,-2.1886,-2.0669,-2.0133,-1.9537,-1.848,-1.7963,-1.7318,-1.6015,-1.5832,0.0,0.0,0.0,0.0,-1.8103,-1.8978,-1.9593,0.0,0.0,-1.9506,-1.9506,-1.9419,-1.9279,-1.9078,-2.1376,-2.3134,-2.4298,-2.6355,-2.7899,-2.8916,-2.9053,-2.8984,-2.8701,-2.8701,-2.8545,-2.8271,-2.8418,-2.8174,-2.7627,-2.7793,-2.7695,0.0,-2.7422,-2.7422,-2.7422,-2.7422,-2.8196,-2.9463,-3.0855,-3.2121,-3.3315,0.0,0.0,0.0,0.0,0.0,0.0,0.0,-3.6911,-3.6337,-3.5619,-3.5133,-3.4691,-3.4095,-3.338,-3.2749,-3.2105,0.0,0.0,0.0,0.0,0.0,0.0,0.0,0.0,0.0,0.0,-2.4878,-2.5599,-2.578,-2.6836,-2.8591,-2.8223,-2.8337,-2.8838,-2.8849,0.0,0.0,0.0,0.0,0.0,0.0,0.0,-3.1069,0.0,0.0,0.0,0.0,0.0,0.0,0.0,0.0,0.0,0.0,0.0,0.0,0.0,-2.3908,-2.3646,0.0,-2.5574,-2.5637,-2.5176,-2.4248,0.0,-2.2417,-2.1407,-2.0395,-1.967,-1.9131,-1.8588,-1.787,-1.7318,-1.6756,-1.592,-1.5832,-1.5905,0.0,0.0,0.0,-1.7963,-1.8885,0.0,0.0,-1.9406,-1.9366,-1.9366,-1.9366,-1.9239,-1.8938,-2.1662,-2.3434,-2.3859,-2.5764,-2.721,-2.8203,-2.8193,-2.8154,-2.8057,-2.8057,-2.792,-2.7676,-2.7939,-2.7676,-2.7031,-2.7305,-2.7266,0.0,-2.7012,-2.7012,-2.7012,-2.7012,-2.7784,-2.9031,-3.0403,-3.1746,-3.2919,0.0,0.0,0.0,0.0,0.0,0.0,0.0,0.0,0.0,0.0,-3.461,-3.3959,-3.3876,-3.2321,-3.118,0.0,0.0,0.0,0.0,0.0,0.0,0.0,0.0,0.0,0.0,-2.4023,-2.4023,-2.4251,-2.4577,-2.5628,-2.7203,-2.7245,-2.7267,-2.731,-2.811,0.0,0.0,0.0,0.0,0.0,0.0,0.0,0.0,0.0,0.0,0.0,0.0,0.0,0.0,0.0,0.0,0.0,0.0,0.0,0.0,0.0,0.0,0.0,0.0,-2.426,-2.3985,-2.2822,-2.1808,-2.0962,-2.0873,-2.0056,0.0,-1.9222,-1.8319,-1.7598,-1.7598,-1.6574,-1.5832,-1.5832,-1.5832,-1.6025,-1.6593,-1.6747,0.0,0.0,-1.8611,0.0,-1.8925,-1.9192,-1.9366,-1.9366,-1.9352,-1.9205,-1.9018,-2.1601,-2.3054,-2.2789,-2.5432,-2.6953,-2.7012,-2.7012,-2.7217,-2.7617,-2.7617,-2.7607,-2.7578,-2.7607,-2.7363,0.0,-2.6953,0.0,0.0,-2.6924,-2.6924,-2.6914,-2.6986,-2.7843,-2.908,-3.0397,-3.1633,-3.2899,0.0,0.0,0.0,0.0,0.0,0.0,0.0,0.0,0.0,0.0,-3.461,-3.3739,-3.3031,-3.1888,-3.0895,0.0,0.0,0.0,0.0,0.0,0.0,0.0,0.0,0.0,0.0,-2.3325,-2.3735,-2.463,-2.4735,-2.5492,-2.6701,-2.7109,-2.7257,-2.7324,-2.79,0.0,0.0,0.0,0.0,0.0,0.0,0.0,0.0,0.0,0.0,0.0,-2.8556,-2.7728,0.0,0.0,0.0,0.0,0.0,0.0,0.0,0.0,-2.1779,-2.07,-2.0686,0.0,-2.0604,-2.0335,-2.0073,-1.9637,0.0,-1.8303,-1.7863,-1.6842,0.0,-1.6292,-1.6292,-1.6015,-1.5832,-1.5832,-1.5832,-1.5959,-1.6319,-1.7141,-1.7956,-1.8637,-1.9038,-1.9172,-1.8945,-1.9192,-1.9366,-1.9366,-1.9158,-1.9337,-2.0098,-2.1561,-2.2719,-2.3467,-2.5107,-2.6357,-2.7012,-2.7012,-2.707,-2.7168,-2.7168,-2.7002,-2.6699,-2.7021,-2.6758,-2.6055,-2.6387,0.0,-2.6045,-2.6045,-2.6045,-2.6094,-2.6587,-2.7545,-2.8785,-2.9569,-3.0661,-3.1816,0.0,0.0,0.0,0.0,0.0,0.0,0.0,0.0,0.0,0.0,0.0,0.0,0.0,0.0,0.0,0.0,0.0,0.0,0.0,0.0,0.0,0.0,0.0,0.0,0.0,-2.3135,-2.3387,-2.4049,-2.4049,-2.4628,-2.5714,-2.6017,-2.6245,-2.6572,-2.7103,0.0,0.0,0.0,0.0,0.0,-2.9647,0.0,0.0,0.0,0.0,0.0,-2.871,-2.8263,0.0,-2.7442,-2.6143,-2.4697,0.0,0.0,0.0,0.0,-2.1074,-1.9958,-1.8899,-1.868,-1.8495,-1.794,-1.7755,-1.7669,-1.6943,0.0,0.0,0.0,0.0,-1.5832,-1.5832,-1.5939,-1.5985,-1.5852,-1.6052,-1.638,-1.6814,-1.7535,-1.8237,-1.8851,-1.8951,-1.8951,0.0,-1.9192,-1.9252,-1.8985,-1.8938,-1.9277,-2.0312,-2.1481,-2.2562,-2.3701,-2.502,-2.5957,-2.6426,-2.6426,-2.6533,-2.6728,-2.6728,-2.6611,-2.6396,-2.6621,-2.6367,-2.5752,-2.5986,0.0,-2.5742,-2.5742,-2.5895,-2.6124,-2.6238,-2.6886,-2.801,-2.8568,-2.9177,-2.9903,0.0,0.0,0.0,0.0,0.0,0.0,0.0,0.0,0.0,0.0,0.0,0.0,0.0,0.0,0.0,0.0,0.0,0.0,0.0,0.0,0.0,0.0,0.0,-2.3135,-2.3135,-2.3135,-2.3135,-2.3135,-2.3135,-2.3551,-2.4542,-2.4702,-2.5153,-2.573,-2.6294,0.0,0.0,0.0,0.0,0.0,-2.9063,0.0,0.0,0.0,0.0,0.0,0.0,0.0,0.0,-2.8016,-2.6871,-2.5808,-2.4882,0.0,0.0,0.0,0.0,0.0,-1.8226,-1.7721,-1.7189,-1.6123,-1.5832,-1.5832,-1.5832,0.0,0.0,0.0,0.0,0.0,-1.5832,-1.6039,0.0,-1.5925,-1.6426,0.0,-1.7635,-1.7969,-1.833,-1.8798,-1.8677,0.0,-1.8771,-1.9058,-1.9139,-1.885,-1.8999,-1.9512,-2.0603,-2.1715,-2.2758,-2.3825,-2.4985,-2.5605,-2.5537,-2.5664,-2.5918,-2.6289,-2.6289,-2.625,-2.6191,-2.626,-2.6045,-2.5635,0.0,0.0,-2.5732,-2.5684,-2.5984,-2.6506,-2.6104,-2.6483,-2.728,-2.7809,-2.8018,-2.8326,0.0,0.0,0.0,0.0,0.0,0.0,0.0,0.0,0.0,0.0,0.0,0.0,0.0,0.0,0.0,0.0,0.0,0.0,0.0,0.0,0.0,0.0,-2.3222,-2.3135,-2.3135,-2.3135,-2.3135,-2.3135,-2.3135,-2.3222,-2.3387,-2.4382,-2.5335,-2.636,-2.6445,-2.7059,-2.8095,-2.8095,-2.8729,-2.9666,-2.9666,0.0,0.0,0.0,0.0,0.0,0.0,0.0,0.0,-2.5703,-2.4542,-2.3551,-2.3387,0.0,0.0,0.0,0.0,0.0,-1.9314,-1.7871,-1.6429,-1.5892,-1.5832,-1.5832,-1.5832,0.0,0.0,0.0,0.0,0.0,0.0,-1.5865,-1.5965,0.0,0.0,-1.7655,0.0,0.0,-1.8724,-1.8577,0.0,-1.8677,-1.8223,-1.845,-1.9126,-2.0085,-1.9981,-2.0837,-2.2889,-2.3273,-2.3742,-2.4256,-2.4876,-2.499,-2.4619,-2.5361,-2.5771,-2.584,-2.584,-2.5635,-2.5283,-2.5664,-2.5596,-2.5195,0.0,-2.5742,-2.5713,-2.5707,-2.5729,-2.5956,-2.6997,-2.7491,-2.7793,-2.8996,-2.9514,-2.9564,0.0,0.0,0.0,0.0,0.0,0.0,0.0,0.0,0.0,0.0,0.0,0.0,0.0,0.0,0.0,0.0,0.0,0.0,0.0,0.0,0.0,0.0,-2.3135,-2.3135,-2.3135,-2.3135,-2.3135,-2.3135,-2.3135,-2.3135,-2.3135,-2.3637,-2.4467,-2.5546,-2.5546,-2.6532,-2.8096,-2.8096,-2.8767,-2.9792,0.0,0.0,0.0,0.0,0.0,0.0,0.0,0.0,0.0,0.0,-2.4457,-2.3877,-2.3299,0.0,0.0,0.0,0.0,0.0,-1.7848,-1.676,-1.6039,-1.6059,-1.6186,-1.6219,-1.5899,0.0,0.0,0.0,0.0,0.0,0.0,0.0,-1.6747,-1.7368,0.0,-1.7989,-1.843,-1.8464,-1.8464,0.0,0.0,-1.8343,-1.807,-1.8317,-1.8823,-1.9657,-1.9903,-2.0956,-2.2806,-2.3152,-2.3684,-2.4341,-2.4609,-2.4619,-2.4414,-2.4824,-2.5029,-2.5029,-2.5029,-2.4912,-2.4727,-2.4932,-2.5036,-2.4992,0.0,-2.5391,-2.5727,-2.5664,-2.5411,-2.5107,-2.6195,-2.752,-2.8903,-2.9564,-2.9792,-2.9817,0.0,0.0,0.0,0.0,0.0,0.0,0.0,0.0,0.0,0.0,0.0,0.0,0.0,0.0,0.0,0.0,0.0,0.0,0.0,0.0,-2.3135,-2.3135,-2.3135,-2.3135,-2.3135,-2.3135,-2.3135,-2.3135,-2.3135,-2.3135,-2.3135,-2.3135,-2.3551,-2.4372,-2.4372,-2.5535,-2.7348,-2.7348,-2.8096,-2.9365,0.0,0.0,0.0,0.0,0.0,0.0,0.0,0.0,0.0,0.0,0.0,0.0,0.0,0.0,0.0,-2.0584,-1.9761,-1.9039,-1.6842,-1.6062,-1.5972,-1.6126,0.0,-1.642,-1.6106,-1.6159,0.0,0.0,0.0,0.0,0.0,-1.6754,-1.7395,-1.8156,-1.8263,-1.833,-1.8557,-1.8397,-1.8283,-1.8377,-1.8116,-1.7909,-1.7842,-1.7976,-1.8406,-1.9283,-1.9903,-2.0917,-2.2617,-2.3125,-2.3598,-2.404,-2.4219,-2.4219,-2.4121,-2.4121,-2.4219,-2.4414,-2.4434,-2.4477,-2.4287,-2.4375,-2.4385,-2.4529,-2.4717,-2.5149,-2.5674,-2.5688,-2.5349,-2.4765,-2.5028,-2.7019,-2.9774,-2.9814,-2.9792,-2.9804,0.0,0.0,0.0,0.0,0.0,0.0,0.0,0.0,0.0,0.0,0.0,0.0,0.0,0.0,0.0,0.0,0.0,0.0,0.0,0.0,-2.3135,-2.3135,-2.3135,-2.3135,-2.3135,-2.3135,-2.3135,-2.3135,-2.3135,-2.3135,-2.3135,-2.3135,-2.3135,-2.3222,-2.3222,-2.3887,-2.5031,-2.5031,-2.6273,-2.8255,-2.8255,0.0,0.0,0.0,0.0,0.0,0.0,0.0,0.0,0.0,0.0,0.0,0.0,0.0,-2.2862,-2.1569,-2.0395,-1.9222,-1.7956,-1.6975,-1.6179,-1.5925,-1.5879,0.0,-1.6526,-1.6446,0.0,-1.6593,0.0,0.0,0.0,-1.6754,-1.7255,-1.7595,-1.833,-1.8871,-1.8891,0.0,-1.8664,-1.8143,-1.7802,-1.7508,-1.7241,-1.6987,-1.7882,-2.0329,-2.0564,-2.1466,-2.3577,-2.4045,-2.3991,-2.3252,-2.3623,-2.3643,-2.3242,-2.3232,-2.3633,-2.4414,-2.4677,-2.4582,-2.4077,-2.4258,-2.3968,-2.3261,-2.4045,-2.4951,-2.5685,-2.5655,-2.5671,-2.5475,-2.3873,-2.5981,-2.9829,-2.9804,-2.9792,-2.9842,0.0,0.0,0.0,0.0,0.0,0.0,0.0,0.0,0.0,0.0,0.0,0.0,0.0,0.0,0.0,0.0,0.0,0.0,0.0,0.0,-2.3135,-2.3135,-2.3135,-2.3135,-2.3135,-2.3135,-2.3135,-2.3135,-2.3135,-2.3135,-2.3135,-2.3135,-2.3135,-2.3135,-2.3135,-2.4145,-2.5891,-2.5891,-2.7128,-2.9197,-2.9197,-2.9456,0.0,0.0,0.0,0.0,0.0,0.0,0.0,0.0,-2.4039,-2.3135,0.0,-2.3135,-2.2862,-2.1658,-2.0486,-1.9222,-1.8056,-1.6989,-1.6246,-1.6132,-1.6106,0.0,0.0,-1.676,-1.6847,-1.6961,-1.7121,0.0,0.0,0.0,-1.7802,-1.8096,-1.843,-1.8718,-1.8898,-1.8611,-1.8223,-1.7809,-1.7495,-1.7201,-1.6901,-1.6774,-1.769,-1.9963,-2.0446,-2.1456,-2.3241,-2.3908,-2.3869,-2.3154,-2.3301,-2.3301,-2.3135,-2.3135,-2.3301,-2.3623,-2.3742,-2.3663,-2.3408,-2.3555,-2.3427,-2.3075,-2.348,-2.3783,-2.4124,-2.4087,-2.4098,-2.4321,-2.6445,-2.8311,-2.9792,-2.9792,-2.9792,-2.9817,0.0,0.0,0.0,0.0,0.0,0.0,0.0,0.0,0.0,0.0,0.0,0.0,0.0,0.0,0.0,0.0,0.0,0.0,0.0,-2.3135,-2.3135,-2.3135,-2.3135,-2.3135,-2.3135,-2.3135,-2.3135,-2.3135,-2.3135,-2.3135,-2.3135,-2.3135,-2.3135,-2.3135,-2.3135,-2.3973,-2.54,-2.54,-2.6719,-2.8791,-2.8791,-2.9209,0.0,0.0,0.0,0.0,0.0,0.0,0.0,0.0,-2.4296,0.0,0.0,0.0,0.0,0.0,-2.0755,-1.9761,-1.8141,-1.7196,-1.6608,-1.6229,0.0,0.0,-1.6874,-1.7068,-1.7201,-1.7395,-1.7442,-1.7475,-1.7562,0.0,0.0,0.0,-1.8364,-1.8524,-1.8631,-1.8217,-1.7782,-1.7482,-1.7108,-1.6988,-1.7175,-1.7064,-1.7852,-2.002,-2.0424,-2.1384,-2.2989,-2.3536,-2.3555,-2.3154,-2.3135,-2.3135,-2.3135,-2.3135,-2.3135,-2.3135,-2.3135,-2.3135,-2.3135,-2.3135,-2.3135,-2.3067,-2.3104,-2.3111,-2.3111,-2.3111,-2.3957,-2.5477,-2.8598,-2.9824,-2.9792,-2.9792,-2.9792,-2.9792,0.0,0.0,0.0,0.0,0.0,0.0,0.0,0.0,0.0,0.0,0.0,0.0,0.0,0.0,0.0,0.0,0.0,0.0,0.0,-2.3135,-2.3135,-2.3135,-2.3135,-2.3135,-2.3135,-2.3135,-2.3135,-2.3135,-2.3135,-2.3135,-2.3135,-2.3135,-2.3135,-2.3135,-2.3135,-2.3135,-2.3135,-2.3135,-2.4478,-2.6565,-2.6565,-2.7879,-2.9792,0.0,0.0,0.0,0.0,0.0,0.0,0.0,-2.4978,-2.3135,0.0,0.0,0.0,0.0,-2.1293,-2.0755,-1.8411,-1.7692,-1.7412,0.0,0.0,0.0,-1.7382,-1.7355,-1.7321,-1.7923,-1.7569,-1.7241,-1.7528,-1.7348,0.0,-1.7535,-1.809,-1.8384,-1.8083,-1.7769,-1.7468,-1.7174,-1.6627,-1.6746,-1.7978,-1.7878,-1.8564,-2.0552,-2.0722,-2.1398,-2.3038,-2.3135,-2.3135,-2.3135,-2.3135,-2.3135,-2.3135,-2.3135,-2.3135,-2.3135,-2.3135,-2.3135,-2.3135,-2.3135,-2.3135,-2.3135,-2.3135,-2.3135,-2.3135,-2.3135,-2.569,-2.977,-2.9782,-2.9819,-2.9792,-2.9792,-2.9792,-2.9792,0.0,0.0,0.0,0.0,0.0,0.0,0.0,0.0,0.0,0.0,0.0,0.0,0.0,0.0,0.0,0.0,0.0,0.0,0.0,-2.3135,-2.3135,-2.3135,-2.3135,-2.3135,-2.3135,-2.3135,-2.3135,-2.3135,-2.3135,-2.3135,-2.3135,-2.3135,-2.3135,-2.3135,-2.3135,-2.3973,-2.5473,-2.5473,-2.6801,-2.8791,-2.8791,-2.9209,-2.9792,0.0,0.0,0.0,0.0,0.0,0.0,0.0,0.0,0.0,0.0,0.0,0.0,-2.2677,-2.1933,-2.1114,-2.0395,-1.977,0.0,-1.7743,0.0,0.0,0.0,-1.7215,0.0,0.0,-1.7716,-1.7482,-1.7569,-1.7508,0.0,-1.7569,-1.7736,-1.7822,-1.7736,-1.7281,-1.6854,-1.6567,-1.6192,-1.6429,-1.774,-1.698,-1.7582,-2.0445,-2.0171,-2.0829,-2.295,-2.3135,-2.3135,-2.3135,-2.3135,-2.3135,-2.3135,-2.3135,-2.3135,-2.3135,-2.3135,-2.3135,-2.3135,-2.3135,-2.3135,-2.3135,-2.3135,-2.3135,-2.3105,-2.3063,-2.3898,-2.5378,-2.8554,-2.9836,-2.9792,-2.9792,-2.9792,-2.9792,0.0,0.0,0.0,0.0,0.0,0.0,0.0,0.0,0.0,0.0,0.0,0.0,0.0,0.0,0.0,0.0,0.0,0.0,0.0,0.0,-2.3135,-2.3135,-2.3135,-2.3135,-2.3135,-2.3135,-2.3135,-2.3135,-2.3135,-2.3135,-2.3135,-2.3135,-2.3299,-2.38,-2.3299,-2.4392,-2.6483,-2.6058,-2.7128,-2.9106,-2.9106,-2.9365,-2.9792,0.0,0.0,0.0,0.0,0.0,0.0,0.0,0.0,0.0,0.0,0.0,0.0,-2.3135,-2.2589,-2.1933,-2.1382,-2.0922,0.0,-1.9154,-1.9225,-1.9376,-1.8223,0.0,0.0,0.0,-1.7869,-1.7622,-1.7742,-1.7569,0.0,-1.7562,-1.7582,-1.7542,-1.7428,-1.7001,-1.66,-1.6306,-1.6048,-1.6383,-1.778,-1.7552,-1.851,-2.1398,-2.1228,-2.1609,-2.3038,-2.3135,-2.3135,-2.3135,-2.3135,-2.3135,-2.3135,-2.3135,-2.3135,-2.3135,-2.3135,-2.3135,-2.3135,-2.3135,-2.3135,-2.3135,-2.3135,-2.4109,-2.5797,-2.5793,-2.5727,-2.6064,-2.873,-2.9761,-2.9792,-2.9792,-2.9792,-2.9792,0.0,0.0,0.0,0.0,0.0,0.0,0.0,0.0,0.0,0.0,0.0,0.0,0.0,0.0,0.0,0.0,0.0,0.0,0.0,0.0,-2.3135,-2.3135,-2.3135,-2.3135,-2.3135,-2.3135,-2.3135,-2.3135,-2.3135,-2.3135,-2.3135,-2.3184,-2.3754,-2.4798,-2.3764,-2.4509,-2.6554,-2.5546,-2.6356,-2.8255,-2.8255,-2.8858,-2.9792,-2.9792,0.0,0.0,0.0,0.0,0.0,0.0,0.0,0.0,-2.3637,-2.3212,-2.3222,-2.3135,-2.3135,-2.2862,-2.1756,-2.1507,-2.1356,-2.0543,-2.0467,0.0,-1.9459,-1.8653,-1.8171,-1.8283,0.0,-1.7662,-1.7916,-1.7542,-1.7268,-1.7502,-1.7542,-1.7428,-1.7114,-1.6834,-1.6553,-1.6246,-1.6021,-1.6501,-1.8268,-1.8889,-2.0279,-2.2931,-2.3135,-2.3135,-2.3135,-2.3135,-2.3135,-2.3135,-2.3135,-2.3135,-2.3135,-2.3135,-2.3135,-2.3135,-2.3135,-2.3028,-2.2979,-2.3028,-2.3135,-2.3135,-2.3135,-2.5495,-2.9508,-2.9748,-2.976,-2.9819,-2.9819,-2.9766,-2.9792,-2.9792,-2.9792,-2.9792,0.0,0.0,0.0,0.0,0.0,0.0,0.0,0.0,0.0,0.0,0.0,0.0,0.0,0.0,0.0,0.0,0.0,0.0,0.0,0.0,-2.3135,-2.3135,-2.3135,-2.3135,-2.3135,-2.3135,-2.3135,-2.3135,-2.3135,-2.3135,-2.3144,-2.3486,-2.4055,-2.4808,-2.484,-2.5977,-2.7763,-2.751,-2.8187,-2.9443,-2.9443,-2.9611,-2.9792,-2.9792,-2.9792,0.0,0.0,0.0,0.0,0.0,0.0,0.0,-2.5031,-2.4457,-2.4296,-2.3387,-2.3135,-2.3047,-2.2775,-2.3015,0.0,0.0,-2.173,-2.1216,-2.0142,-1.962,-1.8797,-1.7373,-1.7355,-1.7528,-1.7375,-1.7422,-1.7435,-1.7268,-1.7241,-1.7061,-1.6533,-1.6406,-1.6303,-1.5967,-1.5819,-1.6757,-1.8995,-1.7609,-1.8427,-2.2814,-2.3135,-2.3135,-2.3135,-2.3135,-2.3135,-2.3135,-2.3135,-2.3135,-2.3135,-2.3135,-2.3135,0.0,-2.3135,-2.2756,-2.2207,-2.2776,-2.3135,-2.3135,-2.3135,-2.4677,-2.7364,-2.9071,-2.9805,-2.9839,-2.9839,-2.9789,-2.9792,-2.9792,-2.9792,-2.9792,0.0,0.0,0.0,0.0,0.0,0.0,0.0,0.0,0.0,0.0,0.0,0.0,0.0,0.0,0.0,0.0,0.0,0.0,0.0,0.0,0.0,0.0,-2.3135,-2.3135,-2.3135,-2.3135,-2.3135,-2.3135,-2.3627,-2.3877,-2.3887,-2.4429,-2.543,-2.6713,-2.6494,-2.7391,-2.9224,-2.8455,-2.8767,-2.9792,-2.9792,-2.9792,-2.9792,-2.9792,-2.9792,-2.9792,-2.9792,0.0,0.0,0.0,0.0,0.0,0.0,0.0,-2.4702,-2.4125,-2.3551,-2.3135,-2.3135,0.0,0.0,-2.3409,0.0,-2.2518,-2.1899,-2.0546,-1.9058,-1.7875,-1.7557,-1.7328,-1.7181,-1.7154,-1.7114,-1.6961,-1.6941,-1.6981,-1.7099,-1.6684,-1.6491,-1.6928,-1.6331,-1.628,-1.7602,-1.8645,-2.036,-2.2921,-2.3135,-2.3135,-2.3135,-2.3135,-2.3135,-2.3135,-2.3135,-2.3135,-2.3135,-2.3135,-2.3135,-2.3135,-2.3135,-2.2804,-2.2186,-2.285,-2.3083,-2.3093,-2.3076,-2.4625,-2.7087,-2.7858,-2.8823,-2.9792,-2.9792,-2.9792,-2.9792,-2.9792,-2.9792,-2.9792,0.0,0.0,0.0,0.0,0.0,0.0,0.0,0.0,0.0,0.0,0.0,0.0,0.0,0.0,0.0,0.0,0.0,0.0,0.0,0.0,0.0,0.0,-2.3135,-2.3135,-2.3135,-2.3135,-2.3222,-2.3387,-2.4454,0.0,0.0,0.0,0.0,-2.8869,-2.805,-2.8692,-3.0353,-2.8961,-2.8937,-2.9792,-2.9792,-2.9792,-2.9792,-2.9792,-2.9792,-2.9792,-2.9792,-2.9792,-2.9624,-2.8688,0.0,0.0,0.0,0.0,-2.5041,-2.4872,-2.3963,-2.3135,-2.3135,0.0,-2.3545,-2.4336,-2.4239,0.0,-2.3601,-2.1636,-1.9737,-1.9102,-1.7989,-1.7061,-1.7007,-1.684,-1.6687,-1.664,-1.6627,-1.6915,-1.7941,-1.6996,-1.6892,-1.8292,-1.6862,-1.6099,-1.6988,-2.0686,-2.3135,-2.3135,-2.3135,-2.3135,-2.3135,-2.3135,-2.3135,-2.3135,-2.3135,-2.3135,-2.3135,-2.3135,-2.3105,-2.3027,-2.2881,-2.2627,-2.2295,-2.2636,-2.28,-2.2879,-2.2899,-2.4428,-2.6846,-2.6558,-2.7577,-2.9409,-2.9677,-2.9792,-2.9792,-2.9792,-2.9792,-2.9792,0.0,0.0,0.0,0.0,0.0,0.0,0.0,0.0,0.0,0.0,0.0,0.0,0.0,0.0,0.0,0.0,0.0,0.0,-2.6307,0.0,0.0,-2.3135,-2.3135,-2.3135,-2.3135,-2.3135,-2.3551,-2.4542,0.0,0.0,0.0,0.0,0.0,-2.8892,-2.9189,-2.9494,-2.9892,-2.9649,-2.9624,-2.9792,-2.9792,-2.9792,-2.9792,-2.9792,-2.9792,-2.9792,-2.9792,-2.9792,-2.9792,-2.9624,-2.9534,0.0,0.0,0.0,-2.6058,-2.5126,-2.3963,-2.3135,-2.3135,0.0,-2.4365,0.0,-2.5256,-2.5023,0.0,0.0,-2.2091,0.0,-1.839,-1.6687,-1.644,-1.656,-1.662,-1.6373,-1.6333,-1.6704,-1.7616,-1.6671,-1.6707,-1.9085,-1.7272,-1.7494,-2.1729,-2.2717,-2.3135,-2.3135,-2.3135,-2.3135,-2.3135,-2.3135,-2.3135,-2.3135,-2.3135,-2.3135,-2.3135,-2.3135,-2.2959,-2.2588,-2.1846,-2.1465,-2.1406,-2.1416,-2.1712,-2.2075,-2.2031,-2.2848,-2.4159,-2.5344,-2.6632,-2.7968,-2.9269,-2.9792,-2.9792,-2.9792,-2.9792,-2.9792,0.0,0.0,0.0,0.0,0.0,0.0,0.0,0.0,0.0,0.0,0.0,0.0,0.0,0.0,0.0,-2.9792,-2.7799,-2.5975,-2.4638,-2.3637,-2.3135,-2.3135,-2.3135,-2.3135,-2.3135,-2.3714,-2.4296,-2.4787,0.0,0.0,0.0,-3.0025,-3.0495,0.0,-3.0633,-3.061,-3.0645,-3.0043,-2.9967,-3.0231,-2.9917,-2.998,-3.0218,-2.9905,-2.9792,-2.9792,-2.9792,-2.9792,-2.9792,-2.9792,-2.9792,-2.9702,-2.9197,0.0,0.0,0.0,-2.5452,-2.3877,-2.3299,-2.3594,-2.417,0.0,-2.5039,-2.5111,-2.4316,-2.3413,-2.2455,-2.1499,-1.9644,-1.8293,-1.8331,-1.8308,-1.8233,-1.8089,-1.8067,-1.8481,-1.953,-1.868,-1.8757,-2.1219,-2.051,-2.0774,-2.2921,-2.3135,-2.3135,-2.3135,-2.3135,-2.3135,-2.3135,-2.3135,-2.3135,-2.3135,-2.3135,-2.3135,-2.3135,-2.3135,-2.293,-2.251,-2.1894,-2.1475,-2.1221,-2.0977,-2.1103,-2.1533,-2.2301,-2.3353,-2.4478,-2.5994,-2.7323,-2.8433,-2.9399,-2.9792,-2.9792,-2.9792,-2.9792,-2.9792,0.0,0.0,0.0,0.0,0.0,0.0,0.0,0.0,0.0,0.0,0.0,0.0,0.0,0.0,0.0,0.0,-2.8039,-2.6047,-2.4059,-2.3387,-2.3222,-2.3551,-2.3212,-2.3222,-2.3551,-2.4372,-2.5126,0.0,0.0,0.0,-3.0217,-3.1605,-3.229,0.0,-3.17,-3.1311,-3.1135,-3.0193,-3.0118,-3.057,-3.0018,-3.0118,-3.0557,-3.0005,-2.9792,-2.9792,-2.9792,-2.988,-2.9993,-2.9993,-3.0093,-3.0181,-3.0043,-2.9224,0.0,0.0,0.0,-2.4957,0.0,0.0,-2.4207,-2.4271,-2.4668,-2.501,0.0,0.0,-2.2936,0.0,-2.1256,-2.049,-2.0675,-2.0037,-1.9497,-1.9497,-1.9497,-1.9852,-2.1025,-2.0401,-2.0625,-2.2833,-2.3135,-2.3135,-2.3135,-2.3135,-2.3135,-2.3135,-2.3135,-2.3135,-2.3135,-2.3135,-2.3135,-2.3135,-2.3135,-2.3135,-2.3135,-2.293,-2.2656,-2.2344,-2.1807,-2.1387,-2.1055,-2.0713,-2.0899,-2.1451,-2.2525,-2.3606,-2.4734,-2.6312,-2.7388,-2.8164,-2.9063,-2.9365,-2.9377,-2.9515,-2.9578,-2.9591,0.0,0.0,0.0,0.0,0.0,0.0,0.0,0.0,0.0,0.0,0.0,0.0,-3.2732,-3.1736,-3.0758,-2.9869,-2.8688,-2.7522,-2.6389,-2.4307,-2.3551,-2.4617,-2.3714,0.0,-2.4702,-2.4787,0.0,0.0,0.0,0.0,-3.1317,-3.1951,-3.2503,-3.298,-3.1876,-3.1122,-3.062,-3.0043,-3.0118,-3.057,-3.0018,-3.0118,-3.0557,-3.0005,-2.9792,-2.9792,-2.9792,-3.0131,-3.057,-3.057,-3.0896,-3.1223,-3.0733,-2.9788,-2.8726,0.0,0.0,0.0,0.0,-2.4971,0.0,-2.4078,-2.4453,0.0,0.0,0.0,-2.4088,-2.3252,-2.2979,-2.296,-2.2891,-2.1051,-1.9497,-1.9497,-1.9497,-1.9827,-2.065,-2.0722,-2.1291,-2.294,-2.3135,-2.3135,-2.3135,-2.3135,-2.3135,-2.3135,-2.3135,-2.3135,-2.3135,-2.3135,-2.3135,-2.3135,-2.3135,-2.3135,-2.3135,-2.2344,-2.1943,-2.1904,-2.1045,-2.0625,-2.0596,-2.0576,-2.1098,-2.1993,-2.2014,-2.2628,-2.37,-2.5233,-2.5898,-2.6104,-2.7581,-2.8197,-2.826,-2.8787,-2.8976,-2.9051,0.0,0.0,0.0,0.0,0.0,0.0,0.0,0.0,0.0,0.0,0.0,0.0,0.0,-3.1736,-3.0833,-2.9856,-2.8767,-2.7602,-2.6565,-2.5735,-2.5473,-2.5891,-2.5473,-2.5473,-2.588,-2.6532,0.0,0.0,0.0,-3.027,-3.0909,-3.1436,-3.18,-3.1976,-3.1562,-3.1286,-3.106,-3.0168,-3.0306,-3.1035,-3.0143,-3.0319,-3.1022,-3.0131,-2.9792,-2.9792,-2.9792,-3.0143,-3.062,-3.062,-3.0959,-3.1361,-3.1173,-3.0617,-2.9726,-2.8503,-2.7844,-2.7279,0.0,0.0,0.0,-2.5764,-2.5053,-2.4342,-2.4713,-2.4426,-2.3848,-2.3262,-2.3135,-2.3135,-2.3135,-2.2403,-2.1774,-2.1774,-2.1774,-2.1933,-2.218,-2.2268,-2.2463,-2.3047,-2.3135,-2.3135,-2.3135,-2.3135,-2.3135,-2.3135,-2.3135,-2.3135,-2.3135,-2.3135,-2.3135,-2.3135,-2.3135,-2.3008,-2.2744,-2.2168,-2.1748,-2.1465,-2.1143,-2.084,-2.0644,-2.1221,-2.2038,-2.2999,-2.3672,-2.412,-2.4599,-2.6153,-2.6744,-2.6865,-2.7738,-2.8109,-2.8172,-2.8725,-2.8925,-2.9013,0.0,0.0,0.0,0.0,0.0,0.0,0.0,0.0,0.0,0.0,0.0,0.0,0.0,0.0,-3.1163,-2.9946,-2.8767,-2.7936,-2.7637,-2.6894,-2.6637,-2.7046,-2.6719,-2.6637,-2.7046,0.0,0.0,0.0,0.0,0.0,0.0,-3.0972,-3.1223,-3.1386,-3.121,-3.1135,-3.1072,-3.0168,-3.0319,-3.1047,-3.0156,-3.0432,-3.1311,-3.0595,-3.0331,-3.0331,-3.0331,-3.057,-3.0871,-3.0871,-3.111,-3.1424,-3.1599,-3.1185,-3.0336,-2.9016,-2.8688,-2.8438,-2.7371,0.0,0.0,0.0,-2.5894,-2.5032,-2.5647,-2.5057,-2.4177,-2.3717,-2.3387,-2.3135,-2.3135,-2.3135,-2.3135,-2.3135,-2.3135,-2.3135,-2.3135,-2.3135,-2.3135,-2.3135,-2.3135,-2.3135,-2.3135,-2.3135,-2.3135,-2.3135,-2.3135,0.0,-2.3135,-2.3135,-2.3076,-2.293,-2.293,-2.2734,-2.2305,-2.1885,-2.1523,-2.123,-2.1084,-2.0859,-2.0644,-2.1593,-2.2553,-2.3588,-2.4564,-2.5229,-2.5618,-2.6631,-2.7005,-2.7055,-2.7607,-2.7821,-2.7921,-2.8662,-2.8925,-2.9013,0.0,0.0,0.0,0.0,0.0,0.0,0.0,0.0,0.0,0.0,0.0,0.0,0.0,0.0,0.0,-2.9959,-2.8767,-2.8597,-2.9714,-2.7799,-2.7046,-2.8096,-2.7128,-2.7058,-2.8108,0.0,0.0,0.0,0.0,0.0,0.0,0.0,-3.0859,-3.1323,-3.0821,-3.0595,-3.0557,-3.0018,-3.0118,-3.0595,-3.0018,-3.0432,-3.1386,-3.1348,-3.1336,-3.1336,-3.1336,-3.1361,-3.1386,-3.1386,-3.1424,-3.1549,-3.2077,-3.1512,-3.0557,-2.998,-2.9817,-2.9559,0.0,0.0,0.0,0.0,0.0,0.0,-2.6667,0.0,-2.5354,-2.4882,-2.3877,-2.3135,-2.3144,-2.3135,-2.3135,-2.3135,-2.3135,-2.3135,-2.3135,-2.3135,-2.3135,-2.3135,-2.3135,-2.3135,-2.3135,-2.3135,-2.3135,-2.3135,-2.3135,-2.3135,-2.3135,-2.3135,-2.2949,-2.2549,-2.251,-2.2295,-2.1894,-2.1435,-2.1211,-2.1211,-2.0771,-2.0644,-2.0634,-2.1593,-2.2627,-2.3588,-2.4636,-2.5594,-2.6533,-2.6533,-2.6533,-2.6584,-2.7067,-2.7281,-2.7419,-2.8524,-2.8925,-2.9013,0.0,0.0,0.0,0.0,0.0,0.0,0.0,0.0,0.0,0.0,0.0,0.0,-3.3752,-3.2412,-3.1061,-2.9869,-2.9534,-2.9456,-2.9792,-2.9209,-2.904,-2.9287,-2.904,-2.9224,-2.9856,0.0,0.0,0.0,0.0,0.0,0.0,0.0,0.0,0.0,-3.008,-3.0018,-3.0005,-2.9854,-3.0331,-3.1097,-3.0168,-3.0432,-3.1311,-3.0532,-3.0231,-3.0231,-3.0231,-3.0733,-3.1386,-3.1386,-3.2202,-3.3169,-3.2918,-3.2353,-3.1587,-3.0658,-3.0382,-3.0215,-2.9555,0.0,0.0,0.0,0.0,0.0,0.0,0.0,-2.5961,-2.4988,-2.4542,-2.4049,-2.3212,-2.3135,-2.3135,-2.3135,-2.3135,-2.3135,-2.3135,-2.3135,-2.3135,-2.3135,-2.3135,-2.3135,-2.3135,-2.3135,-2.3135,0.0,-2.3135,-2.3135,-2.3135,-2.3135,-2.3086,-2.2969,-2.2373,-2.2002,-2.1885,-2.1133,-2.0752,-2.0752,-2.0625,-2.0934,-2.1669,-2.2627,-2.3661,-2.4636,-2.5664,-2.6245,-2.6533,-2.6533,-2.6533,-2.6584,-2.7067,-2.7281,-2.7419,-2.8524,-2.8925,-2.9013,0.0,0.0,0.0,0.0,0.0,0.0,0.0,0.0,0.0,0.0,0.0,0.0,-3.3911,-3.2477,-3.1289,-3.0511,-3.0256,-3.0231,-3.0444,-3.0256,-3.0131,-3.0131,-3.0131,-3.0281,-3.0608,0.0,0.0,0.0,0.0,0.0,0.0,0.0,0.0,0.0,0.0,0.0,0.0,0.0,-3.0156,-3.067,-3.0043,-3.0306,-3.1022,-3.062,-3.0457,-3.0457,-3.0457,-3.1009,-3.17,-3.1461,-3.2503,-3.3684,-3.2441,-3.229,-3.2315,-3.1009,-3.062,-3.0495,-2.9942,-2.9287,-2.8937,-2.9624,0.0,0.0,-2.8688,-2.7947,-2.6953,0.0,-2.5786,-2.5294,-2.4638,-2.4563,-2.4563,-2.4563,-2.4563,-2.4231,-2.3222,-2.3135,-2.3135,-2.3135,-2.3135,-2.3135,-2.3135,-2.3135,-2.3135,-2.3135,-2.3135,-2.3135,-2.3135,-2.3135,-2.3057,-2.2881,-2.2236,-2.1797,-2.1611,-2.0918,-2.0566,-2.0566,-2.0566,-2.1078,-2.2027,-2.3073,-2.4036,-2.5087,-2.6094,-2.6533,-2.6533,-2.6533,-2.6533,-2.6584,-2.7067,-2.7419,-2.7733,-2.8612,-2.9089,-2.934,0.0,0.0,0.0,0.0,0.0,0.0,0.0,0.0,0.0,0.0,0.0,0.0,-3.367,-3.289,-3.2175,-3.1505,-3.0997,-3.0922,-3.1449,-3.0997,-3.0708,-3.0708,-3.0708,-3.0733,-3.0796,0.0,0.0,0.0,0.0,0.0,0.0,0.0,0.0,0.0,0.0,0.0,0.0,0.0,0.0,-2.9792,-2.9792,-3.0118,-3.0658,-3.106,-3.121,-3.121,-3.121,-3.1574,-3.1976,-3.1599,-3.2441,-3.3307,-3.1474,-3.1813,-3.2616,-3.121,-3.0708,-3.0507,-3.0018,-2.988,-2.9867,-2.9804,-2.9842,0.0,-2.9804,-2.9028,-2.8255,0.0,-2.736,-2.6637,-2.6554,-2.6483,-2.6483,-2.6483,-2.6483,-2.5808,-2.3724,-2.3387,-2.328,-2.3124,-2.3096,-2.3105,-2.3124,-2.3096,-2.3125,-2.3086,-2.3115,-2.3135,-2.3135,-2.3135,-2.2949,-2.2519,-2.21,-2.168,-2.124,-2.0791,-2.0566,-2.0566,-2.0712,-2.1231,-2.2178,-2.322,-2.4192,-2.5229,-2.6094,-2.6533,-2.6533,-2.6533,-2.6533,-2.6584,-2.7067,-2.7582,-2.8084,-2.8699,-2.9252,-2.9704,-4.007,0.0,0.0,0.0,0.0,0.0,0.0,0.0,0.0,0.0,0.0,0.0,-3.4339,-3.4036,-3.3416,-3.2155,-3.1549,-3.1474,-3.2014,-3.1537,-3.1235,-3.1235,-3.1235,-3.1449,-3.1888,-3.1574,0.0,0.0,0.0,0.0,0.0,0.0,0.0,0.0,0.0,0.0,0.0,0.0,0.0,-2.9792,-2.9792,-3.0118,-3.057,-3.0231,-3.0105,-3.0105,-3.0105,-3.0457,-3.1047,-3.18,-3.1976,-3.1964,-3.2441,-3.219,-3.1738,-3.1863,-3.1286,-3.0595,-3.0482,-3.0457,-3.0357,-2.9905,-3.0131,0.0,-2.9892,-2.9624,-2.9197,0.0,-2.7924,-2.7522,-2.6637,-2.6483,-2.6483,-2.6483,-2.6483,-2.6318,-2.5891,-2.5052,-2.4091,-2.3243,-2.3071,-2.3103,-2.3066,-2.308,-2.3104,-2.3087,-2.3065,-2.3135,-2.3135,-2.3135,-2.2949,-2.2519,-2.21,-2.168,-2.124,-2.0791,-2.0566,-2.0644,-2.1375,-2.2253,-2.322,-2.4264,-2.5288,-2.6245,-2.6383,-2.6533,-2.6533,-2.6533,-2.6533,-2.6584,-2.7067,-2.7344,-2.7557,-2.8561,-2.9001,-2.9164,-4.007,0.0,0.0,0.0,0.0,0.0,0.0,0.0,0.0,0.0,0.0,-3.7084,-3.6179,-3.5648,-3.5045,-3.4432,-3.3271,-3.2867,-3.3432,-3.2692,-3.2227,-3.2227,-3.1951,-3.1926,-3.2202,-3.2227,0.0,0.0,0.0,0.0,0.0,0.0,0.0,0.0,0.0,0.0,0.0,0.0,-3.0203,-2.9792,-2.9792,0.0,-3.0168,-2.9892,-2.9792,-2.9792,-2.9792,-3.0143,-3.0733,-3.1537,-3.1989,-3.2227,-3.2227,-3.2227,-3.2227,-3.2215,-3.1461,-3.062,-3.062,-3.0419,-3.0206,-3.0206,-3.0206,0.0,0.0,-2.9993,-2.9624,-2.9028,-2.8937,-2.8779,-2.8211,-2.8131,-2.8131,-2.8131,-2.8131,-2.8131,-2.8131,-2.6707,-2.5037,-2.3299,-2.4064,-2.4377,-2.3216,-2.5125,-2.554,-2.3284,-2.3123,-2.314,-2.314,-2.3134,-2.3047,-2.2832,-2.2217,-2.1777,-2.1562,-2.0898,-2.0566,-2.0644,-2.1517,-2.2553,-2.3514,-2.4564,-2.5523,-2.6533,-2.6533,-2.6533,-2.6533,-2.6533,-2.6533,-2.6559,-2.6766,-2.7042,-2.7356,-2.7896,-2.8461,-2.8976,-4.007,0.0,0.0,0.0,0.0,0.0,0.0,0.0,0.0,0.0,-3.8292,-3.8664,-3.8413,-3.7572,-3.7176,-3.7356,-3.5735,-3.4919,-3.5326,-3.4235,-3.3477,-3.3232,-3.2692,-3.2378,-3.2378,-3.283,-3.3081,0.0,0.0,0.0,0.0,0.0,0.0,0.0,0.0,0.0,0.0,0.0,0.0,-3.0509,0.0,-3.0152,-2.9792,-2.9792,-2.9792,-2.9792,-2.9792,-3.008,-3.0532,-3.1072,-3.1775,-3.234,-3.1738,-3.1964,-3.2416,-3.2252,-3.1461,-3.062,-3.062,-3.0369,-3.0156,-3.0394,-3.0206,-3.0043,0.0,0.0,0.0,-2.9792,0.0,-2.9792,-2.9792,0.0,0.0,0.0,0.0,0.0,0.0,-2.8291,0.0,-2.4616,-2.5623,-2.5909,-2.4523,-2.7638,-2.8339,-2.4655,-2.442,-2.4167,-2.3591,-2.3467,-2.3434,-2.3345,-2.2438,-2.1924,-2.1768,-2.1273,-2.0868,-2.0644,-2.1962,-2.2925,-2.3514,-2.4707,-2.5734,-2.6533,-2.6533,-2.6533,-2.6533,-2.6533,-2.6533,-2.6533,-2.6533,-2.6728,-2.7155,-2.7369,-2.8009,-2.88,-4.007,-4.007,0.0,0.0,0.0,0.0,0.0,0.0,0.0,0.0,0.0,-4.0233,-4.0456,-4.0359,-4.0314,-4.0475,-3.8833,-3.7758,-3.7844,-3.6266,-3.486,-3.3884,-3.3269,-3.298,-3.298,-3.3043,-3.3081,0.0,0.0,0.0,0.0,0.0,0.0,0.0,-3.3842,0.0,0.0,0.0,-3.2695,0.0,-3.254,-3.1267,0.0,-2.9792,-2.9792,-2.9792,-2.9792,-2.9829,-2.9967,0.0,-3.047,-3.0394,0.0,-3.1223,-3.0432,-3.1813,-3.1461,-3.062,-3.062,-3.0896,-3.0997,-3.0105,-3.0206,-3.0407,-2.998,0.0,-2.9792,-2.9792,0.0,-2.9792,-2.9792,0.0,0.0,0.0,0.0,0.0,-2.9792,-2.9546,-2.9341,-2.9086,-2.7498,-2.7186,-2.8905,-2.9462,-2.9589,-2.9094,-2.9059,-2.7916,-2.5315,-2.483,-2.444,-2.4127,-2.2968,-2.208,-2.1318,-2.2104,-2.1849,-2.0644,-2.3379,-2.4264,-2.3588,-2.5429,-2.6383,-2.6533,-2.6533,-2.6533,-2.6533,-2.6533,-2.6533,-2.6533,-2.6533,-2.6571,-2.6747,-2.7657,-2.8097,-2.8348,-4.0257,-4.007,-3.9952,0.0,0.0,0.0,0.0,0.0,0.0,0.0,0.0,-4.1759,-4.2237,-4.1622,-4.1642,-4.2422,-4.1117,-3.9864,-3.8857,-3.7785,-3.6596,-3.542,-3.45,-3.4362,-3.4934,-3.4697,-3.4601,-3.487,-3.6001,0.0,0.0,0.0,0.0,0.0,-3.5205,0.0,-3.492,0.0,-3.3241,0.0,0.0,-3.2105,0.0,-3.0846,-3.0279,-2.9792,-2.9792,-2.9792,-2.9829,0.0,-3.0394,0.0,0.0,0.0,0.0,-3.2014,0.0,-3.0683,-3.0984,-3.1197,-3.1139,-3.0438,-3.0624,-3.0868,-3.0388,-3.0018,-2.9792,-2.9792,0.0,0.0,0.0,0.0,0.0,0.0,-2.9792,0.0,0.0,0.0,-2.9792,0.0,0.0,0.0,-2.9702,-2.9774,-2.9779,-2.9782,-2.9831,-2.925,-2.7975,-2.661,-2.571,-2.5513,-2.483,-2.4126,-2.3387,-2.3556,-2.3178,-2.2339,-2.412,-2.4791,-2.4409,-2.5873,-2.6533,-2.6533,-2.6533,-2.6533,-2.6533,-2.6533,-2.6533,-2.6533,-2.6533,-2.6653,-2.6954,-2.7105,-2.7758,-2.8673,-4.0933,-4.0679,-4.0439,0.0,0.0,0.0,0.0,0.0,0.0,-3.9925,-4.1535,-4.2915,-4.3729,-4.328,-4.3353,-4.4501,-4.3672,-4.2284,-4.0427,-3.9679,-3.8658,-3.7195,-3.616,-3.6057,-3.681,-3.6236,-3.6115,-3.646,0.0,0.0,0.0,0.0,0.0,0.0,0.0,-3.5904,-3.5627,0.0,-3.4301,-3.3634,-3.3465,-3.3255,-3.289,-3.1669,-3.0758,-3.0139,-2.9856,-3.0011,-3.0241,-3.0394,-3.1009,0.0,-3.1564,-3.1755,-3.2153,0.0,0.0,0.0,-3.1026,0.0,0.0,0.0,-3.0971,-3.0737,-3.0438,-3.008,-2.9792,-2.9792,-2.9792,0.0,0.0,0.0,-2.9792,-2.9792,0.0,-2.9792,0.0,-2.9792,0.0,0.0,0.0,0.0,0.0,-2.9792,-2.9831,-2.982,-2.9827,-2.982,-2.982,-2.8319,-2.7232,-2.6964,-2.6287,-2.5632,-2.5004,-2.4952,-2.4442,-2.3514,-2.4779,-2.53,-2.5004,-2.6025,-2.6533,-2.6533,-2.6533,-2.6533,-2.6533,-2.6533,-2.6533,-2.6533,-2.6533,-2.6804,-2.7256,-2.7005,-2.7873,-2.918,-4.2371,-4.2219,-4.1971,0.0,0.0,0.0,0.0,0.0,0.0,-4.113,-4.247,-4.3773,-4.508,-4.5756,-4.6461,-4.7163,-4.6565,-4.5368,-4.3531,-4.2336,-4.0843,-3.9001,-3.838,-3.8131,-3.8131,-3.7454,-3.7137,-3.7204,0.0,0.0,0.0,0.0,0.0,0.0,-3.7659,-3.736,-3.7261,-3.6649,-3.638,-3.632,-3.5693,-3.4839,-3.3739,0.0,-3.118,-3.1044,-3.0139,0.0,0.0,-3.1751,-3.224,0.0,0.0,0.0,0.0,0.0,0.0,0.0,0.0,0.0,0.0,-3.259,0.0,0.0,0.0,-2.9804,-2.9792,-2.9792,-2.9792,-2.9792,-2.9792,-2.9792,-2.9792,-2.9792,-2.9792,0.0,0.0,0.0,-2.9792,-2.9792,0.0,0.0,0.0,-2.9792,-2.982,-2.9795,-2.9782,-2.9795,-2.9795,-2.9731,-2.9155,-2.8096,-2.7023,-2.599,-2.5004,-2.593,-2.5419,-2.3514,-2.5499,-2.5955,-2.5004,-2.6025,-2.6533,-2.6533,-2.6533,-2.6533,-2.6533,-2.6533,-2.6533,-2.6533,-2.6533,-2.6804,-2.7344,-2.7858,-2.8626,-2.9636,-4.5314,-4.5263,-4.4188,0.0,0.0,0.0,0.0,-4.0651,-4.2032,-4.3776,-4.4767,-4.6001,-4.7719,-4.7747,-4.7748,-4.7967,-4.7743,-4.6681,-4.4399,-4.3834,-4.2765,-4.0886,-4.0263,-4.0081,-4.0278,-3.9751,-3.9642,-3.9974,0.0,0.0,0.0,0.0,0.0,0.0,0.0,-3.6791,0.0,0.0,0.0,0.0,0.0,-3.5547,-3.5427,0.0,-3.2664,-3.2105,-3.1756,-3.1829,0.0,-3.1888,-3.2209,-3.2804,-3.2973,-3.3248,-3.3307,-3.2919,-3.3289,0.0,0.0,0.0,-3.0833,-3.0764,0.0,0.0,0.0,0.0,0.0,0.0,-2.9792,-2.9792,-2.9792,-2.9792,-2.9792,-2.9792,-2.9792,-2.9792,0.0,-2.9821,-2.9769,-2.9769,-2.9821,-2.9792,0.0,0.0,-2.9796,-2.9769,-2.8462,-2.7631,-2.7631,-2.8976,-2.9466,-2.8642,-2.8675,-2.8191,-2.7025,-2.7409,-2.687,-2.5499,-2.6164,-2.6314,-2.6013,-2.6314,-2.6533,-2.6533,-2.6533,-2.6533,-2.6533,-2.6533,-2.6533,-2.6533,-2.6533,-2.6647,-2.6766,-2.6942,-2.8325,-3.0365,-4.6836,-4.7005,-4.6092,0.0,0.0,0.0,0.0,0.0,-4.3611,-4.512,-4.6101,-4.7249,-4.8786,-4.8552,-4.8298,-4.8312,-4.8282,-4.7331,-4.5039,-4.5069,-4.4342,-4.2336,-4.2095,-4.2051,-4.2044,-4.1718,-4.1504,-4.1384,0.0,-4.0382,0.0,0.0,0.0,0.0,0.0,-3.6492,-3.6462,-3.6028,-3.5714,0.0,0.0,-3.5759,0.0,0.0,-3.4103,-3.3395,0.0,-3.2778,-3.2919,-3.2514,-3.3003,-3.3748,-3.3632,-3.4115,-3.4583,-3.3833,-3.4143,-3.4696,-3.4726,-3.3297,0.0,-3.1839,-3.2753,0.0,-3.0366,0.0,-3.0636,0.0,0.0,0.0,-2.9808,0.0,0.0,-2.9783,-2.9833,-2.9806,0.0,-2.9789,-3.0302,-3.1656,-3.0654,-2.9796,-2.977,-2.9821,-2.9491,-2.8659,-2.7323,-2.6469,0.0,-2.7853,-2.8837,-2.9202,-2.9617,-2.934,-2.8411,-2.821,-2.7657,-2.6753,-2.6622,-2.6533,-2.6533,-2.6533,-2.6533,-2.6533,-2.6533,-2.6533,-2.6533,-2.6533,-2.6533,-2.6533,-2.6533,-2.6658,-2.6956,-2.7421,-2.9333,-3.1969,-4.7039,-4.7479,0.0,0.0,-4.4022,0.0,0.0,0.0,-4.4594,-4.5337,-4.6594,-4.7695,-4.8381,-4.8411,-4.8385,-4.8327,-4.8282,-4.7459,-4.5529,-4.6007,-4.5514,-4.3569,-4.4047,-4.4062,-4.3389,-4.3314,-4.2686,-4.1474,-4.1339,0.0,0.0,0.0,0.0,0.0,-3.6746,0.0,-3.6432,-3.6432,-3.6073,-3.5504,-3.5504,-3.5534,-3.5549,-3.5519,-3.5318,-3.4877,-3.3311,-3.3156,-3.369,-3.369,-3.4507,-3.5504,-3.5504,-3.5504,-3.5504,-3.5504,-3.5504,-3.5463,-3.551,-3.5492,-3.5473,-3.5522,-3.5496,0.0,0.0,0.0,-3.1944,0.0,0.0,0.0,0.0,0.0,0.0,0.0,0.0,-2.9897,-3.0028,-3.0086,-3.1422,-3.5053,-3.2309,-3.003,-2.9823,-2.968,-2.8838,-2.6788,-2.6553,-2.6493,0.0,-2.6493,-2.7508,-2.9655,-2.9757,-2.9515,-2.895,-2.8386,-2.7821,-2.7268,-2.6798,-2.6533,-2.6533,-2.6533,-2.6533,-2.6533,-2.6533,-2.6533,-2.6533,-2.6533,-2.6533,-2.6533,-2.6533,-2.7066,-2.8014,-2.9154,-3.1406,-3.4033,-4.8477,-4.8595,-4.8161,0.0,-4.4096,-4.2515,0.0,0.0,0.0,0.0,-4.8295,-4.9239,-5.0306,-4.9989,-4.9298,-4.8371,-4.8282,-4.7863,-4.686,-4.695,-4.6606,-4.5589,-4.5229,-4.4736,-4.4077,-4.3105,-4.2686,-4.2836,-4.0876,0.0,-3.9843,0.0,0.0,0.0,0.0,0.0,-3.5759,-3.5759,-3.5669,-3.5504,-3.5504,-3.5804,-3.6178,0.0,-3.5762,-3.6022,-3.5074,-3.489,-3.5008,-3.5008,-3.5249,-3.5504,-3.5504,-3.5504,-3.5504,-3.5504,-3.5504,-3.5534,-3.5523,-3.5487,-3.5525,-3.5527,-3.5507,-3.5215,0.0,0.0,0.0,0.0,0.0,0.0,0.0,0.0,0.0,-3.0059,-2.9764,-3.0758,-3.3615,-3.403,-3.4416,-3.5365,-3.4593,-3.2918,-3.009,-2.8316,-2.7763,-2.889,-2.7427,-2.6507,0.0,0.0,0.0,-2.8472,-2.9391,-2.9757,-2.9592,-2.8621,-2.7821,-2.7268,-2.6798,-2.6533,-2.6533,-2.6533,-2.6533,-2.6533,-2.6533,-2.6533,-2.6533,-2.6533,-2.6533,-2.6533,-2.6533,-2.8007,-3.0182,-3.062,-3.1276,-3.2095,-4.9001,-4.8656,0.0,-4.702,0.0,0.0,-4.4006,-4.47,0.0,-4.7814,-4.8566,0.0,-4.9869,-4.9584,-4.9119,-4.8341,-4.8027,-4.7578,-4.692,-4.7145,-4.6756,-4.5499,-4.5349,-4.4855,-4.3898,-4.3165,-4.2686,-4.2476,-4.0711,0.0,-3.9065,0.0,0.0,0.0,0.0,-3.5848,-3.5504,-3.5504,-3.5504,-3.5504,-3.5504,-3.5729,0.0,-3.5639,-3.5729,-3.6013,-3.5639,-3.5504,-3.5504,-3.5504,-3.5504,-3.5504,-3.5504,-3.5504,-3.5504,-3.5504,-3.5504,-3.5504,-3.5504,-3.5504,-3.5499,-3.5503,-3.5496,-3.548,-3.547,-3.3845,-3.2277,0.0,-3.3143,-3.3522,0.0,0.0,0.0,-3.2437,-3.2275,-3.3017,-3.5204,-3.5521,-3.5496,-3.5496,-3.5503,-3.3628,-2.8834,-2.9627,-2.9883,-2.8481,-2.718,0.0,0.0,0.0,0.0,-2.8766,-2.9467,-2.9781,-2.9821,-2.8887,-2.8185,-2.7632,-2.708,-2.676,-2.6533,-2.6533,-2.6533,-2.6533,-2.6533,-2.6533,-2.6533,-2.6533,-2.6714,-2.7121,-2.812,-2.9759,-3.1565,-3.2053,-3.2361,-3.2838,-4.9001,-4.837,0.0,0.0,0.0,0.0,0.0,-4.6122,0.0,-4.7722,0.0,-4.8506,-4.8356,-4.8328,-4.8252,-4.8162,-4.7563,-4.6935,-4.6367,-4.677,-4.6262,-4.4526,-4.4915,-4.4631,-4.3494,-4.321,-4.2566,-4.1504,-4.0591,0.0,0.0,0.0,0.0,0.0,0.0,0.0,0.0,-3.5504,-3.5504,-3.5504,-3.5504,-3.5504,-3.5504,-3.5504,-3.5504,-3.5504,-3.5504,-3.5504,-3.5504,-3.5504,-3.5504,-3.5504,-3.5504,-3.5504,-3.5504,-3.5504,-3.5504,-3.5504,-3.5504,-3.5504,-3.5504,-3.5504,-3.5504,-3.5478,-3.548,-3.5516,-3.5516,-3.5516,-3.5496,-3.5525,0.0,0.0,0.0,-3.5509,-3.5467,-3.5516,-3.5516,-3.5495,-3.5504,-3.5504,-3.5519,0.0,-2.8168,-3.2444,-3.2974,-2.6915,-2.7258,0.0,0.0,0.0,-2.752,-2.9762,-2.9834,-2.9792,-2.9792,0.0,-2.8687,-2.8097,-2.7544,-2.6992,-2.6533,-2.6533,-2.6533,-2.6533,-2.6533,-2.6533,-2.6533,-2.6734,-2.7317,-2.8332,-3.0496,-3.1757,-3.2478,-3.3295,-3.3978,-3.4547,-4.9001,0.0,0.0,0.0,0.0,-4.8584,-4.9034,-4.9347,-4.9268,-4.8717,-4.9662,-4.987,-4.841,-4.8295,-4.8072,-4.7519,-4.6875,0.0,0.0,-4.5903,-4.5484,-4.514,-4.4721,-4.4377,-4.4152,-4.2551,-4.1878,-4.2192,-3.9873,0.0,0.0,0.0,0.0,0.0,0.0,0.0,-3.5504,-3.5504,0.0,-3.5504,-3.5504,-3.5504,-3.5504,-3.5504,-3.5504,-3.5504,-3.5504,-3.5504,-3.5504,-3.5504,-3.5504,-3.5504,-3.5504,-3.5504,-3.5504,-3.5504,-3.5504,-3.5504,-3.5504,-3.5504,-3.5504,-3.5504,-3.5504,-3.5519,-3.5478,-3.5493,-3.5493,-3.5493,-3.5502,-3.5502,-3.5469,0.0,0.0,0.0,0.0,0.0,-3.5493,-3.5484,-3.5504,-3.5504,-3.5478,-3.5059,-3.4024,-3.4854,-3.3006,-2.6933,0.0,0.0,0.0,0.0,0.0,0.0,-2.9834,0.0,0.0,0.0,-2.9149,-2.8097,-2.7544,-2.6992,-2.6533,-2.6533,-2.6533,-2.6533,-2.6533,-2.6533,-2.6559,-2.779,-2.912,-3.056,-3.1604,-3.2421,-3.3129,-3.4025,-3.4382,-3.4412,-4.9001,0.0,0.0,0.0,0.0,0.0,0.0,-5.1615,-5.1514,-5.0099,-5.0019,-4.9521,-4.8162,-4.8001,-4.7804,-4.7381,-4.6381,-4.5948,-4.6307,-4.5678,-4.514,-4.4811,-4.4481,-4.3988,-4.3314,-4.2043,-4.1369,-4.1339,0.0,0.0,0.0,0.0,0.0,0.0,0.0,-3.5504,0.0,0.0,0.0,-3.5504,-3.5504,-3.5504,-3.5504,-3.5504,-3.5504,-3.5504,-3.5504,-3.5504,-3.5504,-3.5504,-3.5504,-3.5504,-3.5504,-3.5504,-3.5504,-3.5504,-3.5504,-3.5504,-3.5504,-3.5504,-3.5504,-3.5504,-3.5504,-3.5504,-3.5504,-3.5504,-3.5504,-3.5504,-3.5504,-3.5504,-3.5504,-3.5504,0.0,0.0,0.0,0.0,0.0,-3.5504,-3.5504,-3.5504,-3.5494,-3.5479,-3.5489,-3.5494,-3.4307,0.0,0.0,0.0,0.0,0.0,0.0,0.0,0.0,0.0,0.0,0.0,0.0,-2.8988,-2.8091,-2.7268,-2.6533,-2.6533,-2.6533,-2.6533,-2.6533,-2.6697,-2.7056,-2.8997,-3.0535,-3.1738,-3.2553,-3.3073,-3.3461,-3.4211,-3.4472,-3.4487,0.0,-4.9137,0.0,0.0,-5.0845,0.0,-5.2215,-5.2993,-5.2944,-5.1346,-5.0304,-4.9305,-4.8461,-4.8019,-4.78,-4.773,-4.6312,-4.5619,-4.6162,-4.5327,-4.4646,-4.4122,-4.3973,-4.3483,-4.2665,-4.1851,-4.1187,-4.0724,0.0,0.0,0.0,0.0,0.0,0.0,0.0,0.0,0.0,0.0,-3.5504,-3.5504,-3.5504,-3.5504,-3.5504,-3.5504,-3.5504,-3.5504,-3.5504,-3.5504,-3.5504,-3.5504,-3.5504,-3.5504,-3.5504,-3.5504,-3.5504,-3.5504,-3.5504,-3.5504,-3.5504,-3.5504,-3.5504,-3.5504,-3.5504,-3.5504,-3.5504,-3.5504,-3.5504,-3.5504,-3.5504,-3.5504,-3.5504,-3.5504,0.0,0.0,0.0,0.0,0.0,0.0,-3.5474,-3.5479,-3.5522,-3.5262,-3.4733,-3.5153,0.0,0.0,0.0,0.0,-3.4288,0.0,0.0,0.0,0.0,-2.9795,-2.9795,0.0,-2.9771,-2.9775,-2.8629,-2.7532,-2.6533,-2.6533,-2.6533,-2.6533,-2.6647,-2.7272,-2.8389,-3.0337,-3.1834,-3.2946,-3.349,-3.3709,-3.3754,-3.4128,-3.4262,-3.4337,0.0,0.0,0.0,0.0,0.0,0.0,-5.2283,-5.2993,-5.3062,-5.195,-5.1098,-5.0549,-5.0179,-4.8885,-4.8354,-4.9069,-4.7028,-4.5665,-4.5727,-4.4316,-4.3494,-4.3434,-4.2865,-4.2924,-4.3568,-4.2304,-4.1704,0.0,0.0,-3.9473,0.0,0.0,0.0,0.0,0.0,0.0,0.0,-3.5504,-3.5504,-3.5504,-3.5504,-3.5504,-3.5504,-3.5504,-3.5504,-3.5504,-3.5504,-3.5504,-3.5504,-3.5504,-3.5504,-3.5504,-3.5504,-3.5504,-3.5504,-3.5504,-3.5504,-3.5504,-3.5504,-3.5504,-3.5504,-3.5504,-3.5504,-3.5504,-3.5504,-3.5504,-3.5504,-3.5504,-3.5504,-3.5504,-3.5504,-3.5504,-3.5504,0.0,0.0,0.0,0.0,0.0,-3.5479,-3.5528,-3.5518,-3.452,-3.2079,-3.4085,0.0,0.0,-3.0457,0.0,0.0,0.0,0.0,-2.9764,0.0,-2.9802,-2.9802,-2.9796,-2.9771,-2.9775,-2.8629,-2.7532,-2.6533,-2.6533,-2.6533,-2.6559,-2.6979,-2.8812,-3.1447,-3.2041,-3.3493,-3.5121,-3.4622,-3.4382,-3.4322,-3.3784,-3.3589,-3.3589,0.0,0.0,0.0,0.0,0.0,0.0,0.0,-5.1913,-5.1999,-5.1546,-5.1648,-5.1243,-5.0099,-4.9055,-4.8512,-4.8547,-4.6967,-4.6202,-4.6571,-4.5196,-4.4366,-4.4366,-4.3712,-4.3365,-4.3289,-4.2737,-4.2116,0.0,0.0,0.0,0.0,0.0,0.0,0.0,0.0,-3.5504,-3.5504,-3.5504,-3.5504,-3.5504,-3.5504,-3.5504,-3.5504,-3.5504,-3.5504,-3.5504,-3.5504,-3.5504,-3.5504,-3.5504,-3.5504,-3.5504,-3.5504,-3.5504,-3.5504,-3.5504,-3.5504,-3.5504,-3.5504,-3.5504,-3.5504,-3.5504,-3.5504,-3.5504,-3.5504,-3.5504,-3.5504,-3.5504,-3.5504,-3.5504,-3.5504,-3.5504,-3.5504,-3.5504,0.0,0.0,0.0,0.0,0.0,-3.5483,-3.4077,-3.3324,-3.3847,-3.3401,0.0,0.0,0.0,0.0,0.0,0.0,0.0,-3.3086,0.0,-3.2146,-2.9836,-2.9813,-2.981,-2.9757,-2.803,-2.6949,-2.6531,-2.7574,-2.796,-2.8039,-2.8972,-3.0378,-3.207,-3.2634,-3.3667,-3.4816,-3.4143,-3.3888,-3.3903,-3.4038,-3.3844,-3.3619,-4.9001,0.0,-4.9492,0.0,-5.027,-5.0608,-5.1133,-5.1189,-5.1107,-5.0902,-5.1338,-5.1294,-5.0274,-4.931,-4.8794,-4.8692,-4.7249,-4.6528,-4.6974,-4.5587,-4.4777,-4.4777,-4.409,0.0,-4.3396,-4.3186,-4.2506,-4.1325,-4.1215,0.0,0.0,0.0,0.0,0.0,-3.5504,-3.5504,-3.5504,-3.5504,-3.5504,-3.5504,-3.5504,-3.5504,-3.5504,-3.5504,-3.5504,-3.5504,-3.5504,-3.5504,-3.5504,-3.5504,-3.5504,-3.5504,-3.5504,-3.5504,-3.5504,-3.5504,-3.5504,-3.5504,-3.5504,-3.5504,-3.5504,-3.5504,-3.5504,-3.5504,-3.5504,-3.5504,-3.5504,-3.5504,-3.5504,-3.5504,-3.5504,-3.5504,-3.5504,-3.5504,0.0,0.0,0.0,-3.5504,0.0,-3.5483,-3.3155,-3.2211,-3.4135,-3.2623,0.0,0.0,0.0,0.0,0.0,0.0,0.0,0.0,0.0,0.0,-3.1498,-3.148,-3.1459,-3.1467,-2.9072,-2.7456,-2.6568,-2.8743,-2.9673,-2.9675,-3.0526,-3.1575,-3.2796,-3.3499,-3.4177,-3.4711,-3.4038,-3.3664,-3.3559,-3.4023,-3.3769,-3.3365,-4.9001,-4.9593,-5.0084,-5.0084,-5.071,-5.12,-5.1217,-5.1189,-5.0953,-5.0219,-5.0122,-5.0392,-5.1108,-4.9893,-4.9306,-5.0033,-4.7863,-4.6486,-4.6503,-4.4913,-4.4026,0.0,0.0,-4.3396,-4.4253,-4.3624,-4.2966,-4.2303,0.0,0.0,-3.887,0.0,-3.6243,-3.5504,-3.5504,-3.5504,-3.5504,-3.5504,-3.5504,-3.5504,-3.5504,-3.5504,-3.5504,-3.5504,-3.5504,-3.5504,-3.5504,-3.5504,-3.5504,-3.5504,-3.5504,-3.5504,-3.5504,-3.5504,-3.5504,-3.5504,-3.5504,-3.5504,-3.5504,-3.5504,-3.5504,-3.5504,-3.5504,-3.5504,-3.5504,-3.5504,-3.5504,-3.5504,-3.5504,-3.5504,-3.5504,-3.5504,-3.5504,-3.5504,0.0,0.0,0.0,-3.5504,0.0,-3.5483,-3.3127,-3.1482,-3.1576,-3.1488,0.0,0.0,0.0,0.0,0.0,0.0,0.0,-3.5518,-3.5496,0.0,-3.5439,-3.5406,-3.5404,-3.5421,-3.2732,-2.9673,-2.6609,-2.9951,-3.1354,-3.111,-3.111,-3.216,-3.4081,-3.5052,-3.5489,-3.5429,-3.4741,-3.4068,-3.3499,-3.3499,-3.3095,-3.2617,-4.9006,-4.9187,-4.9357,-4.9357,-4.9543,-4.9712,-4.9712,-4.9683,-4.9429,-4.8714,-4.8572,-4.8497,-4.8233,-4.8206,-4.8359,0.0,-4.744,-4.6669,0.0,-4.5724,-4.5186,-4.5186,-4.4471,-4.3973,-4.3702,-4.3468,-4.274,-4.1542,0.0,0.0,0.0,-3.7839,-3.7279,-3.7071,-3.7071,-3.7071,-3.7011,-3.6461,-3.6275,-3.6228,-3.5733,-3.5504,-3.5504,-3.5504,-3.5504,-3.5504,-3.5504,-3.5504,-3.5504,-3.5504,-3.5504,-3.5504,-3.5504,-3.5504,-3.5504,-3.5504,-3.5504,-3.5504,-3.5504,-3.5504,-3.5504,-3.5504,-3.5504,-3.5504,-3.5504,-3.5504,-3.5504,-3.5504,-3.5504,-3.5504,-3.5504,-3.5504,-3.5504,-3.5504,-3.5504,0.0,-3.5504,0.0,-3.5518,-3.5491,-3.4718,-3.4247,-3.4197,-3.4212,0.0,0.0,0.0,0.0,0.0,0.0,0.0,0.0,-3.5493,0.0,-3.5532,-3.5481,-3.5481,-3.5469,-3.2772,-3.1891,-3.2622,-3.1833,-3.144,-3.1458,-3.2674,-3.3544,-3.4189,-3.4629,-3.5085,-3.5385,-3.4247,-3.3948,-3.4113,-3.3664,-3.3365,-3.3275,-4.8521,-4.8523,-4.8422,-4.8216,-4.8173,-4.8173,-4.8173,-4.8146,-4.7994,-4.7564,-4.7463,-4.7301,-4.6819,-4.6972,0.0,-4.7462,-4.6819,-4.638,-4.638,-4.5686,-4.528,-4.528,-4.4553,-4.391,-4.3436,-4.3149,0.0,-4.1204,-4.0846,-4.0045,-3.8852,-3.84,-3.8092,-3.7822,-3.7822,-3.7822,-3.7764,-3.6964,-3.6615,-3.6554,-3.5782,-3.5504,-3.5504,-3.5504,-3.5504,-3.5504,-3.5504,-3.5504,-3.5504,-3.5504,-3.5504,-3.5504,-3.5504,-3.5504,-3.5504,-3.5504,-3.5504,-3.5504,-3.5504,-3.5504,-3.5504,-3.5504,-3.5504,-3.5504,-3.5504,-3.5504,-3.5504,-3.5504,-3.5504,-3.5504,-3.5504,-3.5504,-3.5504,-3.5504,-3.5504,-3.5524,-3.5484,0.0,-3.5461,0.0,0.0,0.0,0.0,-3.5492,-3.439,0.0,0.0,0.0,0.0,0.0,0.0,-3.5439,-3.5509,0.0,-3.5504,-3.5504,-3.5484,-3.5501,-3.3765,-3.3853,-3.5431,-3.376,-3.2996,-3.301,-3.3675,-3.405,-3.4259,-3.4718,-3.4988,-3.5011,-3.3918,-3.3739,-3.4023,-3.3365,-3.3125,-3.3215,-4.7821,-4.7674,-4.7524,0.0,-4.6844,0.0,-4.6802,-4.6777,-4.6684,-4.665,-4.6598,-4.6571,-4.6464,-4.5872,-4.5737,-4.643,0.0,0.0,0.0,-4.4891,-4.4468,-4.4418,-4.3724,-4.3318,-4.3267,-4.2574,-4.1863,-4.1119,-4.0426,-3.9731,-3.8962,-3.8962,-3.8635,-3.7978,-3.7978,-3.7978,-3.7921,-3.7084,-3.6783,-3.6737,-3.5958,-3.5683,-3.5683,-3.5619,-3.5554,-3.5554,-3.5504,-3.5504,-3.5504,-3.5504,-3.5504,-3.5504,-3.5504,-3.5504,-3.5504,-3.5504,-3.5504,-3.5504,-3.5504,-3.5504,-3.5504,-3.5504,-3.5459,-3.5444,-3.5489,-3.5489,-3.5474,-3.5504,-3.5504,-3.5504,-3.5504,-3.5504,-3.5504,-3.5504,-3.5504,-3.5529,-3.5483,-3.5314,-3.5238,0.0,0.0,0.0,-3.5245,-3.5477,-3.4493,0.0,0.0,0.0,0.0,0.0,-3.5514,-3.5483,-3.5499,-3.5504,-3.5504,-3.5504,-3.5499,-3.5483,-3.5483,-3.5483,-3.5483,-3.5483,-3.5531,-3.5455,-3.4147,-3.3752,-3.4077,-3.4964,-3.4964,-3.4337,-3.3679,-3.3425,-3.335,-3.2736,-3.2542,-3.2736,0.0,0.0,-4.7654,-4.7524,-4.7084,-4.6819,-4.6785,-4.6319,-4.579,-4.5219,-4.4572,-4.398,-4.344,-4.32,-4.3166,-4.3335,-4.4265,-4.4604,-4.3995,-4.3792,-4.3436,-4.2861,-4.2658,-4.2303,-4.1745,-4.1559,-4.1102,-4.0341,-4.0172,-4.002,-3.9833,-3.9833,-3.9731,-3.9558,-3.9558,-3.9558,-3.9506,-3.869,-3.8342,-3.8286,-3.7573,-3.7235,-3.7175,-3.6569,-3.6337,-3.629,-3.5733,-3.5504,-3.5504,-3.5504,-3.5504,-3.5504,-3.5504,-3.5504,-3.5504,-3.5504,-3.5504,-3.5504,-3.5504,-3.5504,-3.5504,-3.5504,-3.4976,-3.4678,-3.537,-3.5518,-3.5492,-3.5524,-3.5504,-3.5504,-3.5504,-3.5504,-3.5504,-3.5504,-3.5504,-3.5529,-3.5483,-3.3726,-3.2469,0.0,-3.3706,-3.4793,-3.5465,-3.5483,-3.5235,0.0,0.0,0.0,0.0,-3.5494,-3.5474,-3.5529,-3.5474,-3.5504,-3.5504,-3.5504,-3.5474,-3.5529,-3.5529,-3.5529,-3.5529,-3.5529,-3.5473,-3.5501,-3.518,-3.3901,-3.2232,-3.3104,-3.3557,-3.3664,-3.3006,-3.2751,-3.2721,-3.2572,-3.3228,-3.4275,-4.6409,-4.6217,-4.5974,-4.5702,-4.5115,-4.4716,-4.4737,-4.4384,-4.4024,-4.3613,-4.3141,-4.277,-4.2373,-4.2286,-4.2286,-4.2286,-4.3047,-4.3352,-4.2929,-4.2912,-4.2726,-4.2303,-4.1965,-4.161,-4.1221,-4.0865,-4.0493,-4.007,-4.007,-4.007,-4.007,-4.007,-4.007,-4.007,-4.007,-4.007,-4.007,-3.9262,-3.8908,-3.8799,-3.7732,-3.7263,-3.716,-3.6399,-3.6117,-3.6054,-3.5604,-3.5504,-3.5504,-3.5504,-3.5504,-3.5504,-3.5504,-3.5504,-3.5504,-3.5504,-3.5504,-3.5504,-3.5504,-3.5504,-3.5504,-3.5504,-3.5175,-3.4748,-3.4629,-3.5066,-3.5503,-3.5474,-3.5504,-3.5504,-3.5504,-3.5504,-3.5524,-3.5518,-3.5479,-3.5484,-3.552,-3.3221,-3.1959,-3.3158,-3.4592,-3.5488,-3.5522,-3.5522,-3.5473,-3.5488,-3.4169,0.0,-3.5458,-3.5494,-3.5504,-3.5504,-3.5504,-3.5504,-3.5504,-3.5504,-3.5504,-3.5504,-3.5504,-3.5504,-3.5504,-3.5504,-3.5479,-3.5398,-3.4233,-3.2815,-3.1565,-3.2016,-3.2571,-3.3021,-3.2647,-3.266,-3.298,-3.3054,-3.3769,-3.4809,-4.5059,-4.4581,-4.4039,-4.3467,-4.2859,-4.2426,-4.2294,-4.2233,-4.2136,-4.2106,-4.2053,-4.1948,-4.1948,-4.1948,-4.1948,-4.1948,-4.1948,-4.1999,-4.2117,-4.2117,-4.2066,-4.1965,-4.1373,-4.1035,-4.1035,-4.0409,-4.007,-4.007,-4.007,-4.007,-4.007,-4.007,-4.007,-4.007,-4.007,-4.007,-4.007,-3.9368,-3.9086,-3.8978,-3.7642,-3.7128,-3.7068,-3.629,-3.6022,-3.5958,-3.5733,-3.5668,-3.5668,-3.5569,-3.5504,-3.5504,-3.5504,-3.5504,-3.5504,-3.5504,-3.5504,-3.5504,-3.5504,-3.5504,-3.5489,-3.537,-3.5265,-3.4912,-3.3839,-3.4466,-3.5359,-3.5479,-3.5474,-3.5504,-3.5504,-3.5504,-3.5494,-3.5495,-3.5145,-3.5055,-3.5461,0.0,-3.2932,-3.5223,-3.5483,-3.5492,-3.5474,-3.5504,-3.5529,-3.5465,-3.5499,-3.5529,-3.5528,-3.5499,-3.5504,-3.5504,-3.5504,-3.5504,-3.5504,-3.5504,-3.5504,-3.5504,-3.5504,-3.5504,-3.5504,-3.5504,-3.5474,-3.5404,-3.3114,-3.1863,-3.1477,-3.1515,-3.1827,-3.2377,-3.2482,-3.2862,-3.3439,-3.382,-3.4407,-3.5138,-4.4766,-4.4826,-4.4653,-4.4084,-4.345,-4.2877,-4.2356,-4.1779,-4.1357,-4.1376,-4.0798,-4.0426,-4.0426,-4.0426,-4.0426,-4.0426,-4.0426,-4.0696,-4.1339,-4.1373,-4.1085,-4.0443,-4.0307,-4.0257,-4.0257,-4.0138,-4.007,-4.007,-4.007,-4.007,-4.007,-4.007,-4.007,-4.007,-4.007,-4.007,-4.007,-3.9969,-3.9901,-3.9901,-3.9662,-3.9558,-3.9489,-3.869,-3.8342,-3.823,-3.6904,-3.6446,-3.6322,-3.5733,-3.5504,-3.5504,-3.5504,-3.5504,-3.5504,-3.5504,-3.5504,-3.5504,-3.5504,-3.5504,-3.537,-3.4786,-3.4218,-3.3829,-3.4072,-3.4254,-3.4587,-3.5314,-3.5533,-3.5504,-3.5504,-3.5504,-3.5489,-3.5509,-3.3601,-3.294,-3.5178,0.0,-3.5006,-3.5453,-3.5473,-3.5524,-3.5504,-3.5504,-3.5489,-3.5509,-3.5474,-3.5489,-3.5509,-3.5474,-3.5504,-3.5504,-3.5504,-3.5504,-3.5504,-3.5504,-3.5504,-3.5504,-3.5504,-3.5504,-3.5504,-3.5504,-3.5499,-3.5483,-3.5047,-3.3607,-3.15,-3.1471,-3.1571,-3.1676,-3.2302,-3.2604,-3.2943,-3.4647,-3.5792,-3.6648,-4.4048,-4.3905,-4.3598,-4.2959,-4.238,-4.1771,-4.1188,-4.0815,-4.0612,-4.0629,-4.029,-4.007,-4.007,-4.007,-4.007,-4.007,-4.007,-4.0223,-4.0578,-4.0595,-4.0443,-4.0087,-4.007,-4.007,-4.007,-4.007,-4.007,-4.007,-4.007,-4.007,-4.007,-4.007,-3.9868,-3.9512,-3.9901,-3.9648,-3.8937,-3.9326,-3.9276,-3.8888,-3.8874,-3.8853,-3.8835,-3.8449,-3.8318,-3.8189,-3.7499,-3.7279,-3.7219,-3.6829,-3.6723,-3.66,-3.5799,-3.5568,-3.5383,-3.4643,-3.4936,-3.5504,-3.5504,-3.5504,-3.534,-3.4651,-3.4532,-3.4502,-3.425,-3.3826,-3.3853,-3.5213,-3.5473,-3.5503,-3.5474,-3.5504,-3.5509,-3.5488,-3.448,0.0,-3.5329,-3.5518,-3.5524,-3.5518,-3.5494,-3.5504,-3.5504,-3.5504,-3.5504,-3.5504,-3.5504,-3.5504,-3.5504,-3.5504,-3.5504,-3.5504,-3.5504,-3.5504,-3.5504,-3.5504,-3.5504,-3.5504,-3.5504,-3.5504,-3.5504,-3.5469,-3.5473,-3.5522,-3.5523,-3.4001,-3.1527,-3.1529,-3.1739,-3.215,-3.2455,-3.3287,-3.4422,-3.5754,-3.7,-3.8104,-4.3497,-4.3178,-4.2675,-4.2121,-4.1507,-4.0915,-4.0373,-4.0189,-4.007,-4.007,-4.007,-4.007,-4.007,-4.007,-4.007,-4.007,-4.007,-4.007,-4.007,-4.007,-4.007,-4.007,-4.007,-4.007,-4.007,-4.007,-4.007,-4.007,-4.007,-4.007,-4.007,-3.9901,-3.9529,-3.9005,-3.9394,-3.8954,-3.7939,-3.8497,-3.8413,-3.7908,-3.8019,-3.8079,-3.8093,-3.8101,-3.8075,-3.8059,-3.7657,-3.7536,-3.7552,-3.7326,-3.7269,-3.7058,-3.5751,-3.5344,-3.5074,-3.3864,-3.4233,-3.504,-3.504,-3.504,-3.4876,-3.4188,-3.4412,-3.4607,-3.3767,-3.3146,-3.314,-3.4584,-3.5202,-3.548,-3.5509,-3.5504,-3.5494,-3.5525,0.0,0.0,0.0,-3.5499,-3.5504,-3.5504,-3.5504,-3.5504,-3.5504,-3.5504,-3.5504,-3.5504,-3.5504,-3.5504,-3.5504,-3.5504,-3.5504,-3.5504,-3.5504,-3.5504,-3.5504,-3.5504,-3.5504,-3.5504,-3.5504,-3.5504,-3.5489,-3.5522,-3.5149,-3.4614,-3.5232,-3.4135,-3.1973,-3.198,-3.2312,-3.2857,-3.3013,-3.4062,-3.5548,-3.6653,-3.7653,-3.8633,-4.3497,-4.3463,-4.325,-4.2732,-4.2131,-4.1513,-4.0912,-4.0425,-4.007,-4.007,-4.007,-4.007,-4.007,-4.007,-4.007,-4.007,-4.007,-4.007,-4.007,-4.007,-4.007,-4.007,-4.007,-4.007,-4.007,-4.007,-4.007,-4.007,-4.007,-4.007,-4.007,-3.9394,-3.9039,-3.8971,-3.8345,-3.8007,-3.7905,-3.7973,-3.7956,-3.7973,-3.8652,-3.8939,-3.8889,-3.889,-3.8907,-3.8706,-3.7281,-3.676,-3.6656,-3.5979,-3.5776,-3.5633,-3.482,-3.4574,-3.4472,-3.3728,-3.3559,-3.3649,-3.3649,-3.3649,-3.3484,-3.2826,-3.2691,-3.2557,-3.184,-3.2124,-3.2586,-3.2926,-3.4343,-3.548,-3.5509,-3.5504,-3.5504,-3.5474,0.0,0.0,-3.5474,-3.5489,-3.5504,-3.5504,-3.5504,-3.5504,-3.5504,-3.5504,-3.5504,-3.5504,-3.5504,-3.5504,-3.5504,-3.5504,-3.5504,-3.5504,-3.5504,-3.5504,-3.5504,-3.5504,-3.5504,-3.5504,-3.5504,-3.5504,-3.5504,-3.5474,-3.4118,-3.1947,-3.4394,-3.474,-3.3429,-3.3455,-3.3495,-3.361,-3.4197,-3.4552,-3.4922,-3.6946,-3.7403,-3.7246,-4.3497,-4.3497,-4.3321,-4.2788,-4.2501,-4.2037,-4.103,-4.0747,-4.0459,-4.0155,-4.007,-4.007,-4.007,-4.007,-4.007,-4.007,-4.007,-4.007,-4.007,-4.007,-4.007,-4.007,-3.9648,-3.9411,-3.9411,-3.8954,-3.8734,-3.8734,-3.8734,-3.8734,-3.8717,-3.8447,-3.8058,-3.7618,-3.7821,-3.7381,-3.6518,-3.7009,-3.6924,-3.6552,-3.7313,-3.7618,-3.7669,-3.8142,-3.8328,-3.8229,-3.7666,-3.7451,-3.7402,-3.7136,-3.7036,-3.6835,-3.5643,-3.4968,-3.4305,-3.2715,-3.2609,-3.281,-3.239,-3.2871,-3.3335,-3.2677,-3.2826,-3.2946,-3.2287,-3.2332,-3.2617,-3.3108,-3.3997,-3.4846,-3.5386,-3.5514,-3.523,-3.4416,0.0,-3.5509,-3.5507,-3.5514,-3.5504,-3.5504,-3.5504,-3.5504,-3.5504,-3.5504,-3.5504,-3.5504,-3.5504,-3.5504,-3.5504,-3.6423,-3.6925,-3.6906,-3.5997,-3.5522,-3.5504,-3.5504,-3.5504,-3.5504,-3.5504,-3.5504,-3.5489,-3.5488,-3.494,-3.4068,-3.5065,-3.58,-3.6222,-3.5203,-3.4843,-3.4888,-3.4658,-3.5448,-3.6712,-3.7032,-3.7915,-3.8819,-4.3497,-4.3497,-4.3375,-4.3014,-4.2828,-4.2396,-4.1614,-4.1294,-4.0968,-4.0402,-4.0368,-4.0201,-3.9799,-3.9732,-3.9732,-3.9732,-3.9529,-3.9495,-3.9715,-3.9529,-3.9597,-4.0054,-3.9597,-3.9225,-3.9005,-3.8497,-3.8142,-3.7905,-3.7905,-3.7905,-3.7905,-3.7669,-3.728,-3.6789,-3.706,-3.6603,-3.5656,-3.618,-3.6096,-3.569,-3.6468,-3.6772,-3.684,-3.7347,-3.755,-3.7516,-3.728,-3.7195,-3.7195,-3.7195,-3.7195,-3.6936,-3.5759,-3.4868,-3.4064,-3.26,-3.2516,-3.2788,-3.2312,-3.2817,-3.3297,-3.242,-3.2542,-3.2766,-3.2302,-3.2374,-3.2672,-3.3111,-3.3487,-3.4197,-3.5707,-3.5359,-3.4569,-3.366,-3.4286,-3.5011,-3.5437,-3.5518,-3.5649,-3.5906,-3.5699,-3.5683,-3.6211,-3.6022,-3.5958,-3.6196,-3.6196,-3.6196,-3.6196,-3.7218,-3.7868,-3.8056,-3.6838,-3.6463,-3.6955,-3.5958,-3.5533,-3.5504,-3.5518,-3.5507,-3.5477,-3.5491,-3.602,-3.6961,-3.6933,-3.7541,-3.8455,-3.696,-3.6224,-3.6041,-3.5226,-3.5994,-3.7483,-3.6975,-3.7584,-3.8599,-4.3479,-4.3497,-4.3497,-4.3497,-4.3059,-4.272,-4.2698,-4.2203,-4.156,-4.0978,-4.0886,-4.041,-3.9154,-3.8988,-3.8988,-3.8988,-3.8328,-3.821,-3.8937,-3.8311,-3.8548,-4.0003,-4.0054,-3.9715,-3.8988,-3.8971,-3.8616,-3.7889,-3.7889,-3.7889,-3.7872,-3.711,-3.6772,-3.6738,-3.596,-3.5622,-3.5622,-3.5622,-3.5622,-3.569,-3.6451,-3.6772,-3.6772,-3.6772,-3.6772,-3.6671,-3.5893,-3.5622,-3.5622,-3.5622,-3.5622,-3.547,-3.4783,-3.4137,-3.3582,-3.3582,-3.3582,-3.3582,-3.3582,-3.3582,-3.3271,-3.1894,-3.1524,-3.1539,-3.1539,-3.2064,-3.2567,-3.248,-3.2658,-3.3643,-3.6448,-3.5079,-3.3523,-3.3487,-3.3529,-3.3969,-3.5316,-3.5503,-3.5891,-3.6909,-3.6113,-3.6148,-3.7648,-3.7084,-3.6904,-3.7748,-3.7822,-3.7822,-3.7822,-3.7822,-3.804,-3.8566,-3.8113,-3.855,-4.0066,-3.7055,-3.552,-3.5489,-3.5505,-3.5493,-3.5554,-3.5525,-3.7192,-4.0091,-4.0126,-4.0093,-3.9995,-3.8526,-3.7577,-3.7006,-3.5971,-3.6096,-3.6772,-3.6772,-3.6282,-3.5859,-4.2653,-4.3112,-4.3497,-4.3497,-4.3369,-4.2933,-4.1953,-4.1372,-4.063,-3.9458,-3.9015,-3.867,-3.8244,-3.8227,-3.8227,-3.8227,-3.8041,-3.799,-3.821,-3.8024,-3.8108,-3.8531,-3.8041,-3.7669,-3.7449,-3.6907,-3.6518,-3.6299,-3.6299,-3.6299,-3.6299,-3.6062,-3.596,-3.596,-3.5723,-3.5622,-3.5622,-3.5622,-3.5622,-3.5639,-3.5876,-3.596,-3.596,-3.596,-3.596,-3.5943,-3.5707,-3.5622,-3.5622,-3.5622,-3.5622,-3.547,-3.4783,-3.48,-3.48,-3.3887,-3.3937,-3.4186,-3.3735,-3.3582,-3.3479,-3.3077,-3.2625,-3.2272,-3.2272,-3.2064,-3.1799,-3.1779,-3.2573,-3.3547,-3.4364,-3.4758,-3.4851,-3.436,-3.4689,-3.5149,-3.5571,-3.6032,-3.6794,-3.7982,-3.7543,-3.7294,-3.7764,-3.7573,-3.7515,-3.7748,-3.7822,-3.8035,-3.8525,-3.858,-3.892,-3.9621,-3.9504,-3.9611,-4.0106,-3.7033,-3.5512,-3.5504,-3.5512,-3.6625,-3.8713,-3.8699,-3.9204,-4.0128,-4.0098,-4.0121,-4.0003,-3.8529,-3.757,-3.7006,-3.5971,-3.6096,-3.6721,-3.6163,-3.6502,-3.7127,-4.1827,-4.2213,-4.2561,-4.2527,-4.2546,-4.2252,-4.1394,-4.1053,-4.0463,-3.9382,-3.8842,-3.835,-3.7803,-3.7572,-3.7449,-3.7449,-3.7449,-3.7449,-3.7449,-3.7178,-3.7144,-3.7449,-3.6721,-3.6468,-3.6772,-3.6315,-3.5926,-3.5622,-3.5622,-3.5622,-3.5622,-3.5622,-3.5622,-3.5622,-3.5622,-3.5622,-3.5622,-3.5622,-3.5622,-3.5622,-3.5622,-3.5622,-3.5622,-3.5622,-3.5622,-3.5622,-3.5622,-3.5622,-3.5622,-3.5622,-3.5622,-3.5515,-3.5098,-3.5253,-3.5424,-3.4609,-3.4704,-3.4894,-3.4496,-3.4399,-3.4399,-3.4399,-3.37,-3.3002,-3.3002,-3.2879,-3.2648,-3.2407,-3.3412,-3.4355,-3.434,-3.4829,-3.515,-3.5069,-3.5112,-3.5336,-3.5662,-3.6302,-3.7199,-3.8529,-3.8164,-3.8035,-3.8652,-3.843,-3.8374,-3.8668,-3.8723,-3.887,-3.9368,-3.9368,-3.961,-4.007,-4.007,-4.0121,-4.0113,-3.8231,-3.7295,-3.7313,-3.7335,-3.8294,-4.0097,-4.008,-4.0113,-4.0096,-4.0104,-4.007,-4.0053,-3.9134,-3.7891,-3.6465,-3.584,-3.6096,-3.6688,-3.591,-3.6197,-3.6874,-4.1001,-4.1056,-4.1097,-4.1101,-4.1101,-4.1082,-4.0991,-4.0965,-4.069,-4.0095,-3.9593,-3.8813,-3.7634,-3.7072,-3.6763,-3.6763,-3.6717,-3.6671,-3.6671,-3.6011,-3.5943,-3.6637,-3.5994,-3.5943,-3.6671,-3.6671,-3.6332,-3.5622,-3.5622,-3.5622,-3.5622,-3.5622,-3.5622,-3.5622,-3.5622,-3.5622,-3.5622,-3.5622,-3.5622,-3.5622,-3.5622,-3.5622,-3.5622,-3.5622,-3.5622,-3.5622,-3.5622,-3.5622,-3.5622,-3.5622,-3.5622,-3.5622,-3.5622,-3.5622,-3.5622,-3.5622,-3.5622,-3.5622,-3.5622,-3.5622,-3.5622,-3.5622,-3.4704,-3.3735,-3.3684,-3.4137,-3.4333,-3.3735,-3.4623,-3.5547,-3.558,-3.5112,-3.4907,-3.558,-3.5177,-3.5021,-3.568,-3.6435,-3.742,-3.8743,-3.8381,-3.8557,-3.9952,-3.9437,-3.9315,-4.002,-4.007,-4.007,-4.007,-4.007,-4.007,-4.007,-4.007,-4.007,-4.007,-4.007,-4.0113,-4.0107,-4.0078,-4.008,-4.0117,-4.0086,-4.007,-4.007,-4.0104,-4.0104,-4.007,-4.0124,-3.8343,-3.5611,-3.5597,-3.6045,-3.6586,-3.5876,-3.5622,-3.5622,-4.0157,-4.0671,-4.1079,-4.1097,-4.1097,-4.0891,-4.0239,-3.9801,-3.9242,-3.8489,-3.7969,-3.7577,-3.7302,-3.6824,-3.6483,-3.6483,-3.611,-3.5876,-3.5876,-3.5723,-3.569,-3.5859,-3.5707,-3.569,-3.5876,-3.5876,-3.5791,-3.5622,-3.5622,-3.5622,-3.5622,-3.5622,-3.5622,-3.5622,-3.5622,-3.5622,-3.5622,-3.5622,-3.5622,-3.5622,-3.5622,-3.5622,-3.5622,-3.5622,-3.5622,-3.5622,-3.5622,-3.5622,-3.5622,-3.5622,-3.5622,-3.5622,-3.5622,-3.5622,-3.5622,-3.5622,-3.5622,-3.5622,-3.5622,-3.5622,-3.5622,-3.5622,-3.5362,-3.5005,-3.4479,-3.4087,-3.3786,-3.3633,-3.4267,-3.4823,-3.4823,-3.5143,-3.5459,-3.5614,-3.6008,-3.6396,-3.6515,-3.7669,-3.8606,-3.8925,-3.9327,-3.9731,-4.007,-3.9952,-3.9901,-4.007,-4.007,-4.007,-4.007,-4.007,-4.007,-4.007,-4.007,-4.007,-4.007,-4.007,-4.0087,-4.0083,-4.0086,-4.0087,-4.0087,-4.0121,-4.007,-4.0121,-4.0085,-4.0067,-4.0099,-4.0126,-3.8338,-3.5609,-3.5588,-3.5723,-3.5859,-3.5673,-3.5622,-3.5622,-3.9331,-3.9373,-3.9507,-3.9868,-3.9648,-3.9373,-3.9338,-3.9081,-3.8773,-3.8322,-3.7518,-3.688,-3.6643,-3.6164,-3.5852,-3.6037,-3.5783,-3.547,-3.5115,-3.5081,-3.4928,-3.459,-3.4895,-3.4928,-3.4573,-3.5267,-3.5622,-3.5622,-3.5622,-3.5436,-3.5081,-3.5453,-3.5233,-3.459,-3.4928,-3.4895,-3.4556,-3.4556,-3.4759,-3.5081,-3.5081,-3.5301,-3.5622,-3.5622,-3.5622,-3.5622,-3.5622,-3.5622,-3.5622,-3.5622,-3.5622,-3.5622,-3.5622,-3.5622,-3.5622,-3.5622,-3.5622,-3.5622,-3.5622,-3.5351,-3.5165,-3.552,-3.5351,-3.5076,-3.5078,-3.48,-3.4544,-3.4544,-3.4847,-3.5098,-3.5098,-3.5362,-3.574,-3.6113,-3.6518,-3.7026,-3.7736,-3.8497,-3.9123,-3.9462,-3.9851,-4.007,-4.007,-4.007,-4.007,-4.007,-4.007,-4.007,-4.007,-4.007,-4.007,-4.007,-4.007,-4.007,-4.007,-4.007,-4.007,-4.007,-4.007,-4.007,-4.007,-4.007,-4.007,-4.0121,-4.0086,-3.9276,-3.795,-3.7953,-3.7026,-3.5585,-3.5599,-3.5622,-3.5622,-3.5622,-3.5622,-3.5622,-3.8303,-3.7766,-3.7503,-3.8163,-3.7735,-3.754,-3.8181,-3.8401,-3.8438,-3.8322,-3.7444,-3.6651,-3.6131,-3.557,-3.5284,-3.5341,-3.5365,-3.505,-3.4353,-3.4303,-3.4032,-3.344,-3.3981,-3.4032,-3.3423,-3.4607,-3.5301,-3.5419,-3.5554,-3.5301,-3.4692,-3.5318,-3.4895,-3.3609,-3.4218,-3.4083,-3.3406,-3.3406,-3.3744,-3.4303,-3.4303,-3.4675,-3.5233,-3.5233,-3.5233,-3.5267,-3.5385,-3.5504,-3.5605,-3.547,-3.5419,-3.5402,-3.5284,-3.5334,-3.5419,-3.5419,-3.552,-3.5622,-3.5622,-3.5165,-3.4827,-3.547,-3.5148,-3.4844,-3.547,-3.5622,-3.5622,-3.5622,-3.5622,-3.5622,-3.5622,-3.5622,-3.5876,-3.6654,-3.6891,-3.7398,-3.8633,-3.9022,-3.936,-3.9834,-4.0003,-4.007,-4.007,-4.007,-4.007,-4.007,-4.007,-4.007,-4.007,-4.007,-4.007,-4.007,-4.007,-4.007,-4.007,-4.007,-4.007,-4.007,-4.007,-4.007,-4.007,-4.007,-4.007,-4.007,-4.0104,-3.8689,-3.6323,-3.5823,-3.5749,-3.5967,-3.5717,-3.5678,-3.5808,-3.5673,-3.5622,-3.5622,-3.6615,-3.6538,-3.649,-3.6615,-3.6522,-3.6498,-3.6604,-3.7234,-3.7424,-3.6725,-3.7081,-3.7094,-3.6339,-3.5792,-3.5137,-3.438,-3.4318,-3.4082,-3.3601,-3.3558,-3.3508,-3.3406,-3.3508,-3.3508,-3.3406,-3.3609,-3.4015,-3.4641,-3.5301,-3.5571,-3.547,-3.5571,-3.5165,-3.4353,-3.4455,-3.4083,-3.3406,-3.3406,-3.3457,-3.3558,-3.3558,-3.3609,-3.3711,-3.3711,-3.3711,-3.3795,-3.4421,-3.5064,-3.552,-3.4861,-3.4641,-3.4539,-3.3914,-3.4134,-3.4641,-3.4641,-3.5115,-3.5622,-3.5622,-3.5537,-3.5504,-3.5588,-3.5537,-3.5504,-3.5605,-3.5622,-3.5622,-3.5622,-3.5622,-3.5622,-3.5622,-3.5622,-3.5876,-3.6654,-3.733,-3.7821,-3.8024,-3.914,-3.9732,-3.9208,-3.9698,-4.007,-4.007,-4.007,-4.007,-4.007,-4.007,-4.007,-4.007,-4.007,-4.007,-4.007,-4.007,-4.007,-4.007,-4.007,-4.007,-4.007,-4.007,-4.007,-4.007,-4.007,-4.007,-4.0121,-4.0118,-3.9863,-3.9289,-3.6697,-3.6379,-3.7469,-3.6131,-3.6026,-3.6535,-3.5876,-3.5622,-3.5622,-3.6303,-3.5915,-3.574,-3.6229,-3.5889,-3.5734,-3.6224,-3.6583,-3.672,-3.634,-3.6193,-3.5868,-3.5296,-3.4753,-3.4445,-3.4438,-3.4436,-3.4169,-3.3526,-3.3509,-3.3222,-3.2556,-3.2951,-3.2844,-3.2188,-3.2983,-3.3355,-3.3254,-3.4015,-3.4167,-3.3761,-3.4184,-3.3761,-3.2662,-3.3068,-3.2848,-3.2171,-3.2171,-3.2408,-3.278,-3.278,-3.3034,-3.3406,-3.3406,-3.3406,-3.344,-3.3778,-3.41,-3.4336,-3.3998,-3.388,-3.3829,-3.3508,-3.3914,-3.4489,-3.4489,-3.503,-3.5622,-3.5622,-3.5318,-3.5081,-3.552,-3.5301,-3.5098,-3.552,-3.5622,-3.5622,-3.5622,-3.5622,-3.5622,-3.5622,-3.5622,-3.6011,-3.7212,-3.7686,-3.8193,-3.9005,-3.9681,-3.9952,-3.9631,-3.9884,-4.007,-4.007,-4.007,-4.007,-4.007,-4.007,-4.007,-4.007,-4.007,-4.007,-4.007,-4.007,-4.007,-4.007,-4.007,-4.007,-4.007,-4.007,-4.007,-4.007,-4.007,-4.007,-4.0121,-4.0103,-4.0118,-3.9997,-3.865,-3.854,-3.8978,-3.7454,-3.6869,-3.6789,-3.6857,-3.662,-3.6265]}]]